GFSSW_925_thetae_000.txt.gz
Theta_e
307 307 307 307 308 308 309 309 310 311 312 314 317 317 314 311 312 320 322 321 321 321 320 332 337 338 333 332 333 339 348 359 350 350 344 343 339 341 344 348 344 341 353 359 356
308 308 309 309 309 309 309 310 311 314 315 317 319 319 317 313 320 324 325 324 319 318 326 327 334 334 331 331 333 338 351 345 344 343 341 338 339 339 346 345 343 337 339 356 355
309 310 310 310 310 311 311 311 313 316 317 317 319 321 317 318 330 332 327 324 319 316 322 326 331 331 329 331 335 341 347 348 346 342 338 338 337 340 346 349 345 345 342 355 354
310 310 310 311 311 311 312 312 314 316 319 318 320 320 316 325 334 337 326 327 317 318 328 330 329 327 327 330 335 340 339 344 341 340 339 338 338 337 337 344 344 340 346 351 355
309 310 310 311 311 312 313 313 314 317 319 319 321 317 325 335 331 325 321 315 315 321 328 327 327 327 327 330 335 338 339 338 340 340 339 337 336 337 344 343 340 344 348 354 354
309 310 310 311 311 311 313 313 314 317 319 321 320 317 329 335 329 322 320 319 319 327 327 326 326 327 328 331 333 335 339 340 338 339 337 337 339 338 339 339 350 355 355 354 354
309 309 309 310 311 311 312 313 314 316 318 322 319 323 331 332 329 328 322 324 325 329 327 325 326 328 329 332 334 333 334 339 339 338 338 335 342 340 337 334 346 351 352 352 354
308 308 308 310 310 311 312 313 313 316 318 322 320 327 332 328 327 328 327 329 329 327 326 327 327 330 333 333 336 338 337 340 339 338 337 336 342 341 337 338 348 349 350 351 353
307 308 308 309 310 311 312 313 313 319 319 322 327 331 331 326 327 326 329 329 327 326 325 328 332 333 334 335 337 337 339 337 342 343 336 335 344 347 342 343 349 348 350 350 352
307 308 309 309 310 311 313 314 319 320 327 327 328 332 332 331 328 327 328 329 328 326 326 328 330 334 333 335 340 335 338 342 346 341 336 334 335 347 342 342 345 349 350 350 351
307 308 309 310 311 311 313 321 330 335 329 331 331 324 329 331 329 329 327 328 328 327 326 327 329 331 332 334 334 335 337 336 344 339 336 335 335 338 342 342 340 350 352 352 350
306 308 309 310 311 312 313 326 321 319 322 323 324 325 324 329 332 329 326 327 328 329 327 327 327 329 331 331 331 334 334 335 336 336 336 336 334 338 344 341 340 342 349 350 350
306 307 309 311 311 314 320 321 319 320 323 323 324 324 324 325 329 330 328 327 329 330 330 328 328 328 327 328 328 330 332 334 334 334 336 336 336 336 341 337 340 340 347 346 348
306 307 308 310 315 319 319 321 318 320 323 323 324 324 324 324 323 325 328 328 330 331 331 331 330 328 326 326 326 327 331 331 331 332 334 335 338 341 342 341 338 341 343 343 346
305 306 307 308 312 318 320 319 318 321 326 325 324 323 324 322 325 324 329 329 330 331 330 331 330 327 326 326 326 325 330 331 332 332 332 333 333 343 344 342 339 338 341 343 346
306 307 307 314 317 317 317 317 319 323 324 325 325 324 324 323 323 325 328 330 331 331 331 330 329 328 327 327 327 327 328 331 331 329 331 332 333 341 344 345 340 339 341 346 359
306 307 308 310 318 317 317 318 321 324 324 323 324 324 323 324 323 324 324 329 331 331 331 332 329 328 328 327 328 328 329 332 333 332 333 337 333 341 343 344 342 344 345 355 359
307 308 308 309 313 316 317 319 324 325 323 324 324 324 324 324 325 324 325 328 330 331 332 333 333 329 329 327 327 329 330 332 337 337 338 346 345 348 345 343 340 342 346 356 356
307 313 315 315 313 316 319 320 322 324 325 323 323 322 323 323 325 325 326 327 330 330 335 332 332 332 330 329 328 328 329 330 332 332 337 345 343 340 340 343 345 345 345 354 355
309 314 317 317 317 316 319 319 320 321 323 322 321 321 322 323 324 325 327 328 329 330 330 332 333 331 330 331 330 328 329 331 329 335 337 339 340 345 351 348 348 347 346 354 358
313 321 318 317 316 318 318 318 319 320 321 320 321 321 322 322 325 325 325 328 328 329 330 330 331 331 330 329 329 329 327 330 332 333 335 339 347 349 345 346 347 349 348 352 357
315 319 319 318 318 317 319 318 318 320 321 320 319 320 321 323 324 326 326 327 329 328 329 329 329 331 332 329 329 330 330 331 335 341 336 338 349 343 347 344 347 348 352 353 355
317 319 320 319 320 318 318 318 319 319 320 319 319 319 321 322 324 326 327 327 328 328 330 330 330 331 333 332 331 330 329 331 334 341 342 338 338 343 342 346 350 351 354 357 357
318 318 319 320 320 319 320 321 320 320 320 320 320 320 319 321 323 325 327 327 328 328 343 335 336 334 332 334 336 332 331 330 333 336 334 333 348 345 347 350 348 353 354 359 359
318 319 321 321 319 319 319 322 324 321 320 320 320 320 321 322 322 323 326 330 327 330 330 333 344 336 332 334 335 336 334 331 329 332 332 335 339 348 348 344 339 342 361 360 360
318 319 320 321 322 324 321 320 324 325 322 321 319 321 321 325 325 326 325 328 329 330 333 334 341 338 336 334 333 334 334 332 329 328 330 331 346 341 339 338 337 344 358 358 357
312 313 316 318 320 321 324 324 321 323 324 321 323 322 321 324 324 325 325 331 331 332 336 338 339 345 340 334 334 336 333 335 331 330 331 342 346 342 343 345 341 359 355 354 353

GFSSW_925_thetae_003.txt.gz
Theta_e
308 309 309 309 310 311 311 311 312 314 315 315 317 320 318 313 311 319 322 318 320 320 318 329 330 333 335 331 329 329 343 351 353 350 345 342 342 343 341 346 346 349 350 352 356
309 310 310 310 311 311 312 312 312 315 317 317 316 320 320 315 317 322 317 324 322 319 317 330 332 335 331 329 328 331 340 343 343 342 344 342 342 341 343 340 342 343 359 358 356
310 310 311 311 311 311 312 313 313 315 318 318 318 321 318 319 330 331 331 323 323 318 318 325 326 330 328 325 326 331 347 343 340 341 342 340 341 340 345 346 342 344 362 357 355
310 310 311 311 311 311 312 313 313 315 318 318 319 319 316 325 337 334 326 324 323 316 319 324 328 328 325 324 326 329 337 344 344 344 343 336 335 346 343 345 344 341 355 356 354
309 310 310 310 311 311 311 313 313 314 317 318 320 317 326 333 334 326 328 325 318 317 321 330 328 325 323 324 325 330 335 337 342 338 338 336 337 343 344 342 343 340 353 355 354
309 309 309 310 310 311 311 312 313 314 315 318 320 318 328 337 328 324 318 315 316 320 325 327 325 325 324 324 326 331 332 333 338 337 337 337 337 335 342 343 342 344 353 352 353
307 308 309 309 310 310 311 312 313 313 315 319 319 322 330 332 328 323 317 318 319 323 327 327 325 324 325 328 328 332 333 331 335 337 337 337 339 336 337 346 349 353 354 353 352
307 308 309 309 310 310 311 312 313 313 318 321 320 327 331 331 329 324 322 323 322 328 329 326 326 325 328 330 333 331 332 335 338 338 339 336 335 339 337 339 341 356 356 356 351
307 308 309 310 310 311 311 312 313 316 319 323 327 329 333 328 326 328 326 327 328 328 325 325 328 330 332 332 330 332 334 341 340 337 338 337 338 344 340 343 344 346 353 355 350
307 308 310 310 311 311 312 313 320 323 326 326 328 330 331 331 327 327 327 328 327 325 324 326 327 329 328 329 331 334 341 344 341 342 336 337 339 344 342 341 346 348 343 345 351
306 308 309 311 312 312 312 316 324 333 327 333 330 326 326 330 327 327 325 328 327 325 324 326 326 326 328 328 330 330 331 342 342 341 338 339 338 345 341 343 341 344 340 340 351
306 307 308 310 312 313 312 320 319 318 318 320 321 323 325 328 330 328 326 327 327 326 325 324 323 325 328 329 329 328 327 329 333 339 337 336 336 344 342 339 336 340 340 345 347
305 306 307 309 312 316 318 320 319 319 319 321 321 321 323 323 330 330 326 325 326 327 327 324 325 326 326 325 325 324 325 326 330 330 332 335 337 344 341 336 335 343 342 340 340
305 306 307 308 313 315 318 320 318 318 321 323 321 322 322 322 322 328 326 325 326 327 328 328 328 328 327 325 324 321 324 325 329 328 329 331 330 345 341 337 337 339 339 341 342
306 306 307 307 309 315 317 318 317 318 327 326 323 325 322 322 323 323 327 325 326 327 329 330 330 329 329 326 324 322 323 324 331 328 327 329 329 344 342 341 340 338 342 336 339
306 306 307 310 314 316 318 318 317 322 326 325 322 321 321 321 322 323 326 326 327 327 328 330 329 328 325 326 325 326 325 326 330 327 326 326 331 341 343 342 341 339 340 336 338
306 306 306 308 313 315 316 317 319 323 324 322 322 322 321 321 321 321 327 329 329 329 330 330 329 328 328 327 325 326 326 326 330 330 329 341 340 339 338 341 341 340 340 353 360
306 306 308 308 307 313 316 318 322 323 320 321 322 323 323 322 322 322 322 329 328 328 329 330 330 330 327 326 325 327 325 327 333 336 336 341 343 351 339 339 341 356 359 351 347
306 308 313 315 308 311 317 319 321 322 323 322 322 322 322 322 322 323 321 322 322 326 328 331 333 332 330 327 325 325 329 326 327 329 329 340 340 339 344 345 342 360 356 348 345
309 311 314 316 316 315 318 319 319 319 319 320 321 322 322 322 320 320 323 323 324 325 327 327 331 331 331 327 327 325 327 327 326 329 332 341 348 348 345 340 348 353 357 349 351
311 319 320 317 315 315 316 317 317 318 318 320 320 320 321 322 321 320 324 325 326 326 327 327 328 329 330 331 330 329 327 326 326 328 327 342 347 342 343 347 348 345 355 353 349
312 319 317 317 317 316 316 317 315 317 318 318 320 319 319 320 320 322 324 325 325 327 326 327 331 331 330 328 328 328 327 326 328 332 336 341 347 340 341 340 344 347 343 352 350
312 318 318 318 319 317 316 316 316 317 318 318 320 320 318 318 322 326 327 326 326 328 330 332 326 329 328 329 329 328 327 329 332 334 332 339 346 341 345 344 337 336 343 349 348
312 322 319 320 319 320 320 319 319 318 317 318 319 320 319 318 320 325 324 326 326 332 338 332 335 327 327 335 335 335 333 328 328 331 329 330 347 344 341 338 339 337 336 344 348
315 321 319 322 321 322 322 319 319 321 323 319 320 321 320 320 319 322 323 322 324 331 328 331 336 338 336 335 331 334 333 334 332 328 333 331 345 343 345 339 339 349 341 349 354
316 316 315 317 320 322 323 325 323 320 322 323 320 320 319 321 324 324 323 325 330 329 329 331 337 339 339 338 336 336 335 337 335 330 327 337 345 344 338 342 348 341 340 334 352
310 310 313 315 317 317 320 322 322 322 319 322 323 320 319 319 327 326 324 324 331 338 335 336 334 342 338 339 339 336 339 340 339 336 333 339 339 339 340 344 353 350 344 355 352

GFSSW_925_thetae_006.txt.gz
Theta_e
310 310 311 311 311 311 312 312 312 314 315 317 316 316 320 317 313 314 318 316 317 320 320 327 327 329 331 332 329 328 342 349 350 350 349 346 348 346 343 347 347 346 345 348 353
310 310 311 311 311 311 312 312 312 314 316 317 317 317 320 318 318 320 317 317 319 319 319 329 330 332 332 329 327 328 336 344 344 346 343 343 345 343 341 343 343 350 355 354 356
309 310 310 310 311 311 311 312 313 313 315 317 317 319 317 319 330 332 329 321 323 320 317 327 328 329 330 326 325 329 338 339 339 341 341 340 340 339 341 340 340 357 359 355 356
309 309 309 310 310 310 311 312 312 313 314 316 318 319 319 325 337 336 327 323 322 319 317 320 323 326 324 323 323 326 331 335 338 340 343 342 339 343 342 341 340 358 358 356 356
308 308 309 309 309 310 311 311 312 312 313 315 319 318 323 331 331 329 326 323 322 316 318 320 328 327 323 322 322 324 326 329 334 339 338 338 341 344 344 343 343 359 357 356 357
307 308 308 309 309 310 310 311 311 312 313 315 319 319 329 332 330 326 327 323 316 318 322 324 326 323 323 322 323 324 327 330 334 335 337 336 340 341 344 341 353 358 357 354 356
308 308 309 309 310 310 310 310 311 312 313 316 320 322 327 321 327 323 319 316 316 318 323 326 326 323 322 324 328 330 330 330 335 336 336 335 337 332 342 340 356 356 354 352 354
307 308 309 310 310 311 311 311 311 312 314 318 321 326 320 327 327 322 318 320 319 319 326 328 328 322 325 328 330 332 330 335 335 336 337 334 336 336 344 347 350 346 342 344 342
307 307 308 310 311 311 312 312 313 318 319 320 329 329 330 326 324 325 324 325 322 321 324 326 325 326 329 330 327 326 330 338 335 335 337 336 337 339 340 349 341 340 340 339 344
306 306 308 309 311 311 312 312 323 322 325 325 326 325 322 330 326 326 326 326 325 323 322 324 323 326 324 325 329 331 339 339 338 336 336 336 335 334 340 346 344 342 346 344 348
305 306 307 308 310 311 313 315 315 318 328 330 323 325 325 328 328 326 327 326 325 323 322 323 324 323 324 325 328 329 329 336 337 336 338 335 337 339 348 348 344 340 341 341 343
305 306 306 307 309 311 315 317 317 316 315 317 320 321 324 324 325 325 325 324 325 324 323 321 322 323 325 326 327 327 325 328 332 337 337 336 336 341 343 344 339 338 338 339 342
305 306 306 307 308 315 314 317 318 317 316 317 317 318 318 320 322 327 322 324 326 325 325 322 323 324 324 324 324 321 322 322 323 326 336 334 334 341 338 339 335 338 341 343 345
305 305 306 306 310 311 316 317 317 317 316 320 319 319 319 320 321 329 324 324 323 325 325 324 326 326 326 325 323 320 321 322 323 326 325 329 327 338 338 335 340 340 340 341 343
305 305 306 306 310 313 315 317 317 317 314 323 319 321 317 319 321 322 326 323 323 324 324 326 329 327 328 328 324 321 321 321 325 326 325 325 324 326 339 335 334 341 342 340 345
304 305 306 307 307 311 313 316 316 317 316 323 321 320 319 319 321 321 325 323 323 324 324 325 326 327 326 327 325 324 324 322 323 321 324 324 324 326 342 337 338 337 339 334 347
305 306 306 306 307 313 313 312 313 320 319 322 320 319 318 318 319 320 325 324 325 325 325 325 327 327 327 325 323 323 319 321 323 324 326 326 335 333 340 337 338 337 337 336 336
306 307 307 308 307 308 314 311 318 319 318 318 318 319 319 319 319 319 325 325 324 326 326 328 329 327 327 324 323 322 319 322 326 328 330 330 339 340 341 340 341 336 340 357 353
306 308 309 308 312 308 310 314 314 318 320 318 317 320 318 320 320 319 321 326 326 324 326 326 328 328 328 326 323 324 323 320 322 324 325 328 337 338 339 342 359 358 355 352 346
306 309 312 311 311 312 312 315 316 317 316 316 318 318 318 318 318 318 318 320 326 327 322 323 325 325 327 328 323 322 321 323 320 326 326 329 346 340 341 343 359 359 351 346 347
309 311 316 312 312 308 312 313 315 315 315 315 316 316 317 317 317 317 318 321 321 321 324 321 323 327 327 327 324 324 323 321 319 321 324 332 340 338 342 344 347 348 351 347 346
305 313 314 315 311 308 311 315 314 315 315 315 316 316 316 317 317 317 319 322 321 322 323 322 321 325 326 326 326 324 323 320 321 321 328 333 342 337 338 344 346 349 354 352 349
303 309 316 315 312 310 310 314 314 314 314 315 315 317 316 316 316 318 320 322 321 328 321 322 322 325 324 323 324 327 323 323 320 322 325 327 336 340 341 339 341 346 340 349 350
305 315 312 311 310 315 316 316 317 318 317 315 315 315 316 317 314 315 317 319 320 323 338 329 321 322 324 324 329 332 331 328 324 325 324 326 342 344 343 336 341 341 336 345 348
307 314 312 314 315 315 318 320 319 318 317 318 318 315 316 317 316 315 315 317 320 327 324 324 326 331 329 333 335 335 333 334 330 326 327 327 342 342 341 338 339 338 336 344 337
308 309 308 309 312 312 315 320 322 321 319 317 317 318 316 315 316 317 316 319 323 328 328 323 324 335 334 334 335 337 335 336 336 335 327 339 345 338 336 338 341 337 340 342 341
307 307 306 310 308 310 313 320 321 323 324 324 324 318 317 315 314 319 318 318 322 330 331 335 326 330 333 335 336 334 334 337 337 335 333 337 338 342 341 344 344 338 338 336 340

GFSSW_925_thetae_009.txt.gz
Theta_e
310 310 310 310 310 310 311 311 312 312 313 315 316 316 318 319 314 312 315 314 314 322 326 330 327 325 329 331 330 331 336 345 348 348 347 345 347 344 342 346 345 343 347 349 353
309 309 309 310 310 310 310 311 311 312 313 314 316 317 318 317 319 319 317 317 317 319 318 326 329 331 331 331 327 326 332 340 341 344 344 346 346 345 344 346 348 353 353 352 354
308 308 309 309 309 309 310 310 311 311 312 313 316 318 316 319 328 331 327 316 319 319 318 326 328 331 331 326 326 329 331 337 337 342 341 343 346 345 343 344 341 356 355 353 354
307 308 308 309 309 309 310 310 310 311 312 313 316 317 320 325 338 335 326 322 322 319 317 320 321 323 325 324 322 325 329 330 330 331 339 340 337 339 340 338 338 354 354 355 355
307 308 308 309 309 309 310 310 310 311 311 313 317 318 323 326 325 329 323 322 320 318 317 320 326 326 324 321 321 322 324 327 327 332 337 339 339 340 339 344 355 355 354 356 355
307 308 308 309 309 310 310 310 311 311 311 312 317 318 327 323 331 329 325 321 321 316 319 322 326 323 323 322 324 324 325 329 328 334 336 337 339 341 343 357 359 357 357 355 355
306 307 308 309 309 310 311 311 312 311 312 313 319 320 325 315 326 325 324 322 317 317 321 324 326 323 322 323 325 329 330 328 331 334 335 335 340 334 340 360 361 359 357 350 348
306 306 307 309 309 310 311 312 312 313 314 316 321 326 323 324 326 322 318 316 317 316 323 326 326 324 323 326 327 330 331 334 332 335 336 333 338 341 345 358 359 354 351 350 349
305 306 306 308 309 310 311 312 316 323 319 319 328 329 326 325 321 322 319 322 319 317 320 324 324 323 328 327 326 324 328 332 334 334 336 334 335 345 348 352 350 347 346 349 349
305 306 306 307 307 309 312 313 324 327 325 325 325 322 318 329 325 325 322 325 324 322 321 322 320 323 322 325 322 329 335 331 332 335 334 335 338 344 348 347 347 344 345 345 344
305 305 306 306 307 308 312 316 312 315 325 321 318 319 322 326 326 323 323 324 325 321 320 320 322 321 323 324 327 328 329 328 329 329 336 334 336 342 344 342 341 340 345 341 344
305 305 306 306 306 308 317 316 315 314 313 314 318 321 322 323 321 324 325 325 324 324 321 319 320 321 322 323 325 326 326 323 323 328 335 333 341 346 347 344 341 338 341 344 343
304 305 306 306 307 314 312 316 315 315 314 315 315 316 316 318 320 321 322 323 325 324 323 321 322 323 323 323 324 322 320 319 321 322 332 335 337 340 337 340 338 336 336 339 340
304 305 306 305 310 309 314 315 316 315 312 315 318 317 316 318 320 323 322 323 324 325 324 323 323 325 326 325 322 322 320 320 321 323 322 328 326 338 336 340 336 334 338 340 342
304 304 305 305 307 309 315 315 316 315 313 318 319 318 316 320 321 326 323 322 323 323 323 324 327 327 327 327 322 324 322 321 322 324 324 324 322 322 334 335 339 336 338 340 339
304 305 306 306 306 307 311 315 315 311 313 319 319 318 318 319 320 322 323 322 322 322 322 322 324 325 325 326 325 325 322 319 320 318 322 322 323 325 339 335 333 336 338 340 339
304 305 305 306 305 312 310 310 311 314 315 319 318 317 317 317 319 322 324 323 323 323 322 323 324 324 326 327 324 319 318 320 321 320 321 326 332 331 334 337 335 335 337 337 345
305 306 307 306 307 307 312 310 314 312 316 316 317 317 318 318 318 319 323 324 322 323 324 326 326 326 326 325 326 320 317 320 322 324 323 325 333 338 339 337 338 335 335 340 343
305 306 307 307 307 308 308 309 308 313 317 316 315 318 316 316 319 318 321 321 322 322 325 324 326 327 326 325 324 324 322 318 318 320 323 324 334 338 338 354 353 348 357 353 348
306 308 311 311 311 311 310 310 313 315 315 314 316 316 317 316 317 317 317 320 323 323 322 324 325 321 324 325 324 322 320 323 317 325 325 324 342 339 340 354 358 355 351 350 347
309 309 312 313 311 308 312 311 314 313 314 315 315 316 316 317 316 316 316 319 322 323 321 320 320 324 326 326 325 322 321 317 317 319 323 326 334 333 339 341 357 354 351 348 341
302 313 312 309 306 305 310 313 312 313 311 313 314 314 315 315 315 316 316 319 319 320 323 320 319 324 322 323 324 322 321 318 322 322 323 328 331 337 336 338 344 352 348 348 346
302 305 313 312 310 309 309 313 313 312 313 314 314 315 314 315 314 314 318 319 317 319 320 319 319 322 320 321 323 326 323 318 317 316 325 326 325 340 339 343 345 351 350 349 347
305 315 310 308 307 314 317 318 318 317 315 314 314 314 314 315 312 315 316 316 315 318 338 323 316 319 322 322 325 332 332 324 321 323 322 322 324 343 339 338 344 341 346 350 349
306 311 309 313 313 313 315 319 321 320 317 316 317 316 316 314 316 315 315 315 317 324 325 320 324 322 324 324 332 333 334 330 327 323 326 327 329 331 339 337 340 337 342 349 345
307 308 305 308 309 309 311 317 319 322 320 319 322 325 321 314 314 315 316 317 317 322 327 326 321 332 331 332 334 334 333 335 334 333 328 329 330 334 334 335 337 336 337 342 340
304 304 305 307 308 310 311 318 320 321 322 323 324 323 320 320 320 314 312 317 320 325 327 333 324 325 328 333 331 328 334 335 335 337 334 336 333 336 337 336 336 335 337 339 341

GFSSW_925_thetae_012.txt.gz
Theta_e
309 308 309 309 309 309 309 310 310 311 312 313 315 316 317 319 318 314 311 314 314 321 323 324 325 324 329 330 329 331 330 346 347 346 343 344 345 343 341 344 344 342 351 350 357
308 308 308 308 308 309 309 309 310 310 311 312 314 317 317 317 319 319 318 314 315 322 325 329 327 330 330 330 325 325 328 337 340 343 343 345 345 344 344 345 346 348 351 354 360
307 308 308 308 309 309 309 309 309 310 310 312 313 317 317 320 328 328 325 318 316 320 317 327 326 330 329 326 325 328 328 333 336 342 340 343 345 343 343 344 343 348 353 355 359
307 308 308 308 309 309 310 310 310 310 310 311 313 317 319 324 338 334 324 317 319 319 317 322 321 323 324 323 321 324 325 328 326 335 340 341 341 344 342 341 339 348 352 354 358
306 307 308 308 309 310 310 310 311 311 311 311 313 317 323 322 322 327 320 320 320 319 316 320 324 325 323 320 321 321 322 324 325 325 331 337 339 342 340 341 344 351 352 353 354
306 307 307 308 309 310 310 311 311 312 311 311 315 318 325 317 328 326 321 321 320 318 316 323 326 324 322 322 322 323 324 325 327 329 335 338 338 339 345 353 354 354 354 353 353
305 306 307 307 309 310 311 311 312 313 313 312 317 320 321 313 324 324 322 321 320 316 318 321 325 323 320 322 323 328 329 328 329 332 334 334 339 338 348 356 357 356 355 355 354
305 305 306 307 308 309 310 311 313 320 318 316 320 324 316 323 325 323 322 319 316 316 322 324 325 324 321 323 324 326 327 331 329 333 333 332 335 337 354 358 359 358 357 354 353
305 305 305 306 307 309 310 311 318 321 319 321 327 328 317 323 323 323 319 318 317 315 316 321 322 321 324 325 321 321 326 330 331 331 334 333 333 342 349 359 358 357 354 353 351
304 305 305 306 306 308 310 317 321 326 325 325 325 317 316 327 324 322 317 321 321 320 320 321 318 321 321 322 316 324 331 328 329 328 333 333 333 345 348 353 353 351 350 350 347
304 305 305 306 306 307 315 317 310 313 317 318 318 315 319 323 324 321 321 322 322 319 319 319 320 320 321 324 325 327 327 326 325 325 332 332 337 344 347 346 348 348 346 345 342
304 305 305 306 306 308 315 311 312 312 312 312 314 319 321 321 320 322 324 324 324 323 320 319 319 318 320 321 324 325 325 323 321 322 332 333 338 341 345 343 343 346 342 342 345
304 305 305 306 307 312 312 314 312 311 311 313 314 315 316 318 318 321 322 322 323 323 320 320 321 320 322 323 323 322 321 321 320 319 328 333 331 341 339 342 341 339 335 337 341
304 304 305 306 308 307 313 314 313 312 309 312 316 316 315 316 320 321 322 322 323 323 321 322 322 324 324 324 322 324 320 321 320 320 318 323 325 321 335 335 338 339 335 337 341
304 304 305 306 306 306 313 312 314 312 313 316 318 317 315 319 321 322 321 323 322 323 322 321 325 325 326 326 321 325 322 320 321 321 323 322 320 322 333 335 333 337 334 338 339
304 304 305 306 306 306 308 313 313 307 311 317 318 317 317 318 319 322 322 321 321 322 322 321 322 324 323 325 324 325 320 317 316 316 320 320 321 325 331 334 332 335 335 338 337
304 304 305 305 305 310 309 309 308 309 313 318 317 315 316 317 318 324 322 322 323 323 323 321 322 322 323 324 323 320 318 319 320 319 319 323 328 326 328 333 335 334 334 337 340
304 305 306 306 306 307 311 309 309 309 313 315 315 315 317 316 317 321 323 323 322 320 321 323 322 324 324 323 323 320 319 319 322 321 322 323 328 331 334 335 337 334 335 345 346
305 306 306 307 306 307 306 307 305 310 316 314 314 315 315 315 317 318 321 322 322 321 322 323 325 324 325 323 323 321 320 317 317 317 321 321 327 331 337 352 336 342 342 348 348
306 308 310 311 307 310 307 307 309 312 313 313 316 315 315 315 316 316 318 318 320 320 320 321 323 321 323 323 322 322 319 321 316 322 324 322 334 334 337 352 353 353 350 349 347
307 308 310 310 310 307 308 308 313 312 311 312 314 315 315 315 315 315 315 317 320 321 319 318 320 321 323 323 323 320 320 316 316 317 321 324 326 330 335 343 352 351 351 350 346
301 312 310 309 307 303 309 310 311 313 310 312 313 314 315 314 314 315 315 316 317 317 321 318 316 321 320 320 322 320 320 317 321 321 320 321 325 334 334 337 350 350 351 347 337
304 306 311 310 306 307 308 312 312 313 313 313 313 314 313 314 315 313 315 317 316 316 318 318 319 321 320 317 321 325 319 316 314 316 326 327 325 335 336 338 343 350 348 346 345
306 313 309 306 305 313 317 318 318 317 315 314 314 313 314 314 312 314 315 316 315 317 340 319 314 319 319 318 321 329 328 320 318 321 320 320 322 330 338 340 344 348 347 347 346
305 309 308 312 312 312 313 316 320 321 319 314 317 318 322 317 314 313 313 314 316 323 322 318 323 318 318 319 327 331 331 324 325 324 331 330 323 325 335 338 341 342 348 348 347
306 307 304 306 307 309 312 318 320 320 321 320 324 324 323 314 315 317 314 315 319 319 324 323 321 329 329 331 330 333 332 330 331 326 324 327 326 326 330 335 339 340 348 348 347
302 303 304 305 308 309 311 316 319 319 319 321 323 323 323 317 323 322 316 312 312 321 324 329 323 322 325 330 328 325 331 332 333 332 331 335 330 335 336 337 337 336 344 342 342

GFSSW_925_thetae_015.txt.gz
Theta_e
307 308 308 308 309 309 309 310 310 310 311 312 313 315 316 318 318 317 314 313 314 313 323 323 323 326 331 334 330 333 343 350 347 346 340 344 345 344 343 345 344 348 351 352 358
307 308 308 308 309 309 309 309 310 310 310 311 313 315 317 317 318 320 320 315 313 319 325 325 327 332 334 332 329 332 341 345 343 344 338 342 345 346 346 346 347 346 351 356 359
307 307 308 308 309 309 310 310 310 311 310 311 312 315 317 321 329 332 326 315 317 321 317 328 326 330 331 329 328 331 337 337 334 340 341 337 343 344 346 348 346 348 354 360 361
306 307 308 308 309 310 310 311 311 311 311 311 312 315 319 323 335 333 320 317 320 319 318 324 324 328 328 327 323 328 327 331 327 331 338 337 342 346 346 344 342 345 353 360 362
306 306 307 308 309 310 310 311 311 312 312 311 311 316 321 322 320 328 318 317 318 319 317 324 326 328 325 324 324 324 325 327 328 329 330 332 339 342 345 344 341 346 354 359 361
305 306 306 307 308 309 310 311 311 312 313 312 312 317 324 318 325 325 318 320 320 318 317 324 328 326 325 324 325 326 329 330 331 332 336 339 340 340 344 344 347 353 355 357 358
305 305 306 306 307 308 310 310 311 315 318 314 314 319 322 316 324 321 322 320 319 316 319 321 325 326 325 325 326 330 331 331 334 335 336 337 340 342 345 351 352 354 356 356 356
305 305 305 306 306 308 309 310 316 321 321 315 318 322 318 321 324 322 321 320 319 317 322 323 324 325 325 326 327 329 330 332 333 335 336 336 337 338 354 354 355 356 357 357 357
304 305 305 306 306 307 309 313 318 321 319 321 325 328 318 323 324 323 321 317 315 315 317 320 323 326 328 327 325 328 330 332 335 332 333 337 336 345 356 357 357 358 359 358 358
304 305 305 306 306 307 310 317 318 325 323 324 324 322 318 326 322 321 319 318 320 319 322 323 325 328 329 327 321 325 330 332 333 331 329 332 335 340 355 359 359 360 360 359 355
304 305 305 306 306 307 315 315 317 317 316 321 320 315 318 322 322 320 318 322 322 324 325 323 324 325 325 329 328 330 328 330 330 328 330 334 337 344 350 356 358 360 360 358 352
304 305 305 306 306 310 314 315 313 313 318 314 314 317 319 321 323 323 322 327 327 326 322 324 325 324 323 326 327 327 328 329 328 324 332 335 337 342 347 350 352 354 357 355 350
304 305 305 306 307 310 313 313 310 311 316 316 316 317 318 320 321 325 324 325 327 326 325 327 324 322 324 325 327 326 328 327 326 324 331 336 335 341 342 345 346 346 347 348 347
304 305 305 305 307 306 314 311 311 311 318 316 317 318 317 319 321 322 325 326 326 328 325 327 325 324 325 326 326 330 325 326 326 326 326 328 327 335 335 340 341 345 345 342 344
303 304 304 305 306 307 312 309 312 311 320 316 319 316 316 320 322 323 323 325 327 326 326 324 326 327 328 328 326 329 324 325 325 325 328 328 328 332 334 340 339 343 345 342 345
303 304 304 306 306 306 307 311 312 314 317 319 318 318 318 320 321 323 325 324 324 325 324 325 324 326 326 326 326 326 324 324 325 327 327 328 328 330 334 339 340 338 343 343 344
304 304 304 305 307 307 308 312 314 314 315 319 318 317 318 319 321 325 326 327 328 329 329 326 326 325 325 326 325 325 329 331 327 328 327 330 333 334 333 337 339 340 341 342 342
305 305 306 306 306 307 310 315 312 312 313 316 316 316 319 318 320 325 326 328 324 325 327 325 323 326 325 326 327 327 330 330 329 327 327 329 333 333 339 340 341 341 339 340 341
305 307 306 307 306 307 315 313 313 311 316 316 317 319 319 318 319 323 327 327 327 326 328 328 327 326 326 326 326 326 329 325 329 326 329 328 330 335 342 347 342 340 340 342 346
305 309 310 311 307 310 316 312 311 312 314 315 319 317 319 318 320 321 323 322 325 325 327 327 325 324 325 326 324 327 325 329 328 334 333 330 334 335 342 347 345 343 342 349 354
306 314 310 307 309 315 315 314 314 314 312 314 317 318 317 318 317 319 321 320 321 323 325 326 327 324 325 326 327 326 327 326 328 329 331 330 331 339 343 344 350 347 346 350 352
306 315 310 310 314 310 315 314 311 313 312 313 315 316 317 317 318 318 319 319 317 322 324 325 327 328 325 324 324 326 328 330 330 334 330 332 330 331 340 340 350 348 350 351 351
312 312 310 310 312 314 311 313 313 315 315 315 316 315 316 318 321 317 317 318 317 320 326 325 328 329 327 325 325 328 326 327 330 332 338 333 331 332 342 342 349 352 352 347 346
313 316 314 312 310 315 319 318 315 319 317 317 317 318 319 319 317 319 318 317 317 321 334 326 329 332 326 326 327 331 327 325 331 333 334 331 332 335 337 345 350 356 354 349 346
311 314 311 314 315 315 316 319 321 322 321 321 318 325 325 323 318 319 317 318 318 325 325 328 333 328 327 324 324 329 334 326 332 336 334 337 333 339 339 342 346 353 355 351 346
312 313 308 312 310 312 315 321 322 322 322 323 325 326 326 324 319 322 325 322 321 324 330 329 335 332 334 332 325 326 328 333 331 330 332 334 337 335 338 342 347 352 354 354 350
302 303 309 307 313 314 317 320 320 320 321 322 322 326 326 323 323 325 325 325 324 323 327 336 337 335 331 334 334 335 333 335 335 336 336 339 340 339 342 342 348 353 353 353 351

GFSSW_925_thetae_018.txt.gz
Theta_e
308 308 308 309 309 309 310 310 310 310 310 310 312 314 316 316 317 321 321 316 316 314 324 325 323 325 337 338 334 336 346 346 343 340 339 341 343 347 346 348 347 348 350 353 356
307 308 308 309 309 310 310 310 311 311 311 311 311 313 315 317 324 325 323 315 313 315 326 323 323 330 339 338 336 339 344 342 339 338 338 338 342 345 347 348 349 349 350 356 356
307 308 308 309 309 310 310 311 311 311 312 311 311 312 315 322 333 332 326 316 318 320 323 326 329 330 335 336 335 338 341 336 333 333 335 338 340 343 346 347 347 350 354 358 357
307 307 308 309 309 310 310 311 311 311 312 312 311 312 315 328 333 334 317 316 321 320 325 328 327 326 332 336 330 337 333 331 331 331 332 336 339 343 344 344 345 346 353 358 359
305 306 307 308 309 310 310 311 311 311 312 314 312 312 322 327 326 334 317 318 325 321 325 327 327 329 329 330 330 332 331 331 332 333 335 336 338 341 343 343 345 346 352 356 357
305 305 306 306 308 309 310 310 311 312 316 317 313 313 325 323 327 332 324 322 322 321 326 328 328 328 328 329 330 330 331 333 334 336 336 338 338 341 345 346 344 347 351 353 356
305 305 305 306 306 308 309 310 311 317 320 320 313 317 324 321 328 326 323 322 321 320 327 327 327 328 328 329 329 330 333 335 336 335 334 337 339 341 342 348 349 350 352 353 356
305 305 305 306 306 307 308 309 314 319 323 316 315 324 322 322 326 323 323 322 321 320 326 327 326 327 327 328 329 331 333 336 334 334 335 335 337 341 345 349 350 352 353 356 359
304 305 305 306 306 307 308 310 318 322 319 320 327 329 322 323 326 326 324 322 320 320 324 324 326 328 328 327 326 327 330 330 332 333 331 332 335 341 348 351 351 355 356 358 359
304 305 305 306 306 307 308 315 320 324 323 324 326 327 322 324 325 325 324 320 320 323 326 327 327 328 327 326 324 325 326 328 330 332 329 330 333 335 345 353 353 356 359 360 361
304 305 305 306 306 307 314 320 326 326 321 325 324 320 321 326 324 325 321 323 323 326 328 327 327 327 326 328 329 330 329 328 328 331 330 331 331 334 346 352 355 359 361 361 359
304 305 305 306 306 309 315 321 318 317 321 320 319 320 321 324 328 326 323 327 326 327 327 327 326 326 325 327 328 328 330 329 331 328 329 332 331 333 343 348 351 356 361 361 359
304 305 305 306 307 312 318 317 312 314 322 321 319 320 321 324 328 328 326 328 328 328 327 327 327 325 325 327 327 328 328 329 330 330 330 331 330 331 340 345 349 351 354 358 358
303 305 305 305 310 310 319 314 313 314 324 322 320 320 320 324 324 328 327 329 329 330 328 327 327 326 327 327 328 330 329 330 330 330 329 329 328 333 333 338 344 347 350 355 357
303 304 305 304 310 313 315 311 313 316 324 320 321 319 321 323 325 326 328 329 330 329 329 329 328 327 328 327 328 332 329 330 330 329 329 330 329 331 332 333 341 344 348 348 351
304 305 305 309 310 310 310 312 315 321 322 322 321 320 321 322 325 327 329 328 328 329 328 328 327 328 328 329 329 329 330 331 331 329 329 331 328 329 332 340 341 342 346 348 348
307 305 304 306 312 309 310 317 320 320 318 322 322 322 322 322 326 327 330 330 330 330 331 329 329 328 328 328 328 328 330 331 332 330 330 334 331 331 332 336 342 343 345 348 349
308 305 308 308 310 310 315 320 320 318 318 319 320 321 322 322 324 327 330 331 329 329 328 328 328 327 327 327 327 329 329 330 333 331 330 333 330 335 338 340 343 343 343 347 348
308 310 310 310 310 310 320 319 319 317 319 319 320 322 323 321 322 326 328 329 329 329 329 327 326 328 328 327 328 330 330 329 332 331 331 330 331 331 338 342 345 345 344 346 345
309 314 315 312 311 313 320 318 316 316 317 318 321 322 324 323 323 324 327 326 327 327 328 328 328 326 326 327 328 330 330 331 331 333 335 332 332 332 338 340 346 344 344 346 349
312 318 311 309 311 317 318 317 315 317 316 318 320 322 322 323 324 324 326 323 325 326 327 327 327 327 325 327 327 330 331 331 332 334 334 333 333 332 334 338 347 346 345 356 358
315 317 311 312 315 316 316 317 313 316 316 316 318 320 322 321 322 323 324 324 320 325 327 327 328 328 327 327 327 328 330 333 333 338 333 336 333 331 335 342 348 347 347 355 354
318 315 313 314 315 315 317 315 315 315 316 316 317 319 320 322 324 322 322 321 320 325 328 330 328 330 330 329 328 328 328 331 333 339 335 336 334 337 339 345 346 349 351 356 355
320 316 314 316 318 317 316 315 315 318 318 317 318 318 320 322 322 323 321 320 320 323 332 328 333 331 327 331 330 329 328 330 333 335 334 334 333 334 335 340 351 351 354 354 352
318 320 317 315 318 318 319 318 315 320 318 318 318 318 319 321 322 323 322 321 320 328 329 330 334 331 328 328 329 328 329 330 333 334 336 335 335 335 343 343 346 354 356 352 350
318 320 317 317 318 319 317 320 319 320 321 321 320 322 323 321 321 322 326 325 324 326 330 333 335 334 330 329 331 329 328 331 333 334 333 333 334 341 344 344 346 357 357 353 354
309 310 316 313 318 317 319 321 320 322 322 324 324 325 323 325 326 327 328 329 329 331 329 334 333 334 329 332 332 332 329 328 332 334 332 333 336 344 344 346 348 354 358 355 350

GFSSW_925_thetae_021.txt.gz
Theta_e
308 308 309 309 309 310 310 310 311 311 311 311 311 312 314 315 316 324 326 320 319 318 323 326 325 325 329 342 340 341 346 345 341 340 340 340 342 341 344 348 348 347 349 351 353
308 308 309 309 309 310 310 311 311 311 311 311 312 311 313 315 327 329 325 322 314 315 330 325 324 326 336 341 340 341 344 341 339 337 338 338 338 340 344 347 350 350 351 353 353
308 308 309 309 309 310 310 311 311 311 311 312 312 311 313 319 336 335 325 320 314 324 326 325 326 330 336 340 340 342 340 337 335 335 335 337 339 340 341 344 348 351 355 355 354
306 307 308 309 309 309 310 311 311 311 311 313 314 312 313 329 338 334 316 317 319 326 324 327 328 329 334 340 338 339 337 335 334 334 334 335 336 339 340 344 346 348 353 356 355
305 306 307 308 308 309 309 310 311 311 313 316 316 312 322 333 333 330 317 318 325 322 325 328 327 329 333 337 336 338 336 336 336 336 337 335 337 337 338 342 346 348 353 356 355
305 305 306 307 308 308 309 310 310 312 316 320 317 312 330 327 331 328 325 326 324 323 327 327 329 330 332 333 336 336 336 337 336 337 336 336 337 338 343 344 345 349 353 354 355
305 305 306 306 307 308 308 309 310 313 318 323 315 319 325 325 331 329 324 325 323 323 328 329 328 328 331 333 334 334 337 337 336 336 335 335 337 340 340 346 346 349 352 353 355
305 305 305 306 306 307 308 309 310 316 321 321 315 327 326 324 328 327 326 325 323 322 328 328 328 328 329 331 332 335 335 335 337 335 335 333 339 338 343 346 348 351 352 353 356
304 305 305 306 306 307 307 309 314 319 321 319 330 328 328 321 325 329 326 326 323 324 327 327 328 329 329 327 328 330 331 334 333 334 333 332 334 338 344 347 349 354 353 356 359
304 305 305 306 306 307 307 313 319 321 327 327 327 329 325 323 324 328 327 323 323 325 327 328 328 328 327 328 327 328 328 328 330 332 333 331 333 333 339 345 350 355 356 358 360
304 305 306 306 306 307 312 322 330 330 328 327 328 323 324 327 325 326 326 324 326 325 328 329 328 326 328 329 329 330 328 328 329 330 331 332 333 332 337 340 348 355 360 358 360
304 305 306 306 306 308 314 324 321 320 323 324 323 324 324 327 326 326 325 326 326 327 328 329 326 328 328 327 327 327 328 329 330 332 331 331 332 332 334 340 344 352 360 358 359
304 305 306 306 307 312 320 321 318 319 323 324 323 322 323 326 327 328 326 327 328 328 329 328 329 328 327 326 327 327 328 329 330 332 331 330 333 332 334 339 344 346 353 356 359
303 304 306 306 311 314 319 319 318 319 325 324 322 322 323 325 327 329 326 329 330 330 329 328 328 327 327 327 328 329 330 329 329 330 331 332 330 334 334 337 344 346 348 353 358
303 305 306 305 311 315 320 317 318 320 326 324 322 323 324 324 327 327 328 330 332 331 331 330 328 328 327 327 328 330 332 329 330 331 331 331 331 332 334 332 339 339 347 348 356
304 307 306 313 314 314 314 316 320 324 323 324 324 322 323 324 326 328 330 330 331 331 330 331 329 329 328 329 329 330 330 330 331 331 330 331 332 330 335 338 336 341 346 348 352
307 308 305 310 316 313 314 319 323 324 324 324 324 324 324 324 325 329 331 332 332 333 332 330 330 328 329 329 330 330 330 332 332 334 332 334 332 331 333 334 336 339 346 349 350
310 307 311 309 313 313 316 322 325 323 323 324 324 324 324 324 326 328 331 332 330 330 331 332 330 330 330 329 330 331 331 331 333 332 336 333 332 337 335 335 339 342 345 348 349
310 314 313 314 312 313 320 323 324 324 322 322 323 324 325 325 326 328 330 331 331 330 333 330 330 329 328 328 328 330 331 330 330 331 332 331 331 333 334 336 340 343 345 348 348
310 314 316 315 314 314 320 322 323 320 320 321 324 325 326 325 324 328 329 329 330 330 330 331 332 330 328 328 328 329 331 332 331 333 334 334 335 335 338 339 343 344 346 346 347
314 318 315 312 313 317 318 321 322 319 319 320 321 325 326 326 325 326 328 327 328 330 329 329 330 329 328 329 329 331 331 331 330 333 337 339 339 337 336 337 343 342 345 347 348
318 318 314 313 315 317 318 320 315 319 318 319 321 322 324 325 325 326 327 328 326 327 328 328 330 331 330 329 328 328 331 332 333 335 334 335 336 336 334 337 336 342 345 352 353
322 318 314 315 316 318 319 319 318 319 319 319 319 322 323 324 326 325 326 324 323 326 329 329 329 332 332 329 329 328 327 330 333 336 340 341 337 337 337 337 340 343 347 355 354
322 318 316 315 318 321 320 320 318 317 318 318 319 321 323 324 326 326 325 323 322 325 338 333 330 331 330 332 332 331 329 329 331 335 334 332 335 339 337 338 347 346 349 356 357
320 322 320 317 318 319 320 319 318 320 319 320 320 320 321 324 324 325 324 323 322 328 327 330 333 332 331 328 328 329 329 330 330 332 334 335 340 340 343 343 348 349 355 356 358
320 321 316 320 322 320 318 321 320 319 322 320 320 320 319 321 323 324 325 325 325 326 327 330 335 333 333 330 328 328 328 328 330 331 333 334 338 336 344 346 344 352 356 356 355
312 316 320 317 318 320 321 320 321 320 322 324 323 322 323 324 325 328 330 332 332 332 330 333 334 333 335 330 328 331 330 328 329 332 333 334 336 340 340 347 348 351 356 355 353

GFSSW_925_thetae_024.txt.gz
Theta_e
308 308 309 309 309 310 310 310 311 311 311 312 312 312 311 314 316 325 329 322 321 317 317 328 326 326 327 329 339 341 349 349 340 340 339 340 343 340 340 345 347 347 349 351 352
308 308 309 309 309 309 310 310 311 311 311 311 312 313 312 314 328 330 326 325 319 315 320 328 326 326 329 337 341 344 351 347 337 337 337 337 337 339 344 346 350 351 352 351 352
307 308 308 308 309 309 310 310 311 311 311 312 314 314 312 315 337 335 322 323 316 316 328 326 326 328 332 338 341 341 345 341 335 334 334 336 339 339 342 347 345 352 354 353 352
306 306 307 308 308 309 309 310 310 311 312 315 317 315 312 327 341 329 317 317 317 323 328 327 328 329 334 339 339 342 340 335 334 334 335 336 335 337 340 346 348 352 353 353 353
305 306 306 307 308 308 309 309 310 311 312 316 320 314 319 337 337 324 318 318 320 328 325 328 328 329 331 337 337 338 335 334 335 335 336 336 336 338 337 345 345 352 354 354 353
305 305 306 306 307 308 308 309 310 311 314 319 321 313 331 330 333 324 326 324 329 324 327 328 329 330 332 334 335 337 337 336 336 336 336 336 338 338 342 341 346 352 356 355 354
305 305 305 306 307 307 308 309 310 311 316 321 318 316 327 326 331 330 327 326 325 324 328 329 329 329 330 333 334 335 334 335 337 336 333 338 339 340 339 343 347 349 352 355 356
304 305 305 306 306 307 308 309 310 313 317 321 318 325 329 325 328 329 327 326 324 323 327 329 328 328 329 332 332 332 334 335 335 337 335 332 342 338 339 342 345 348 350 353 356
304 305 305 306 306 307 308 309 311 315 317 321 328 330 327 322 323 328 327 327 325 324 327 328 327 329 329 328 329 331 332 333 337 334 333 331 332 337 339 342 346 350 351 352 357
304 305 305 306 306 307 308 310 316 317 327 326 328 328 327 327 324 328 328 327 325 326 327 328 328 328 328 328 327 329 329 329 334 332 334 332 332 333 338 338 347 353 353 354 358
304 304 305 306 306 306 308 320 329 332 325 326 327 323 326 327 325 328 328 326 325 325 326 329 327 327 327 329 329 329 330 329 329 330 331 331 331 332 334 336 339 358 357 357 358
303 304 305 306 306 307 309 323 323 321 323 326 326 327 325 327 327 326 327 326 326 325 326 330 327 328 329 329 327 327 327 328 329 330 332 331 331 332 332 336 340 353 360 356 358
302 304 306 306 307 308 317 322 320 320 322 323 324 324 325 325 327 326 328 326 327 326 328 328 329 329 328 326 326 327 327 329 330 331 332 332 332 335 333 337 338 337 358 355 358
302 304 306 307 311 318 317 322 319 321 323 323 324 324 324 324 325 328 327 327 328 328 328 329 329 329 328 326 328 328 331 329 328 329 331 332 333 338 337 339 340 342 347 353 359
302 304 307 306 309 317 321 319 318 321 325 324 325 324 324 324 326 328 328 327 329 330 331 330 328 328 326 327 328 328 332 332 329 330 331 330 330 341 338 335 341 341 346 351 358
302 307 308 312 314 312 315 317 319 323 322 325 324 324 323 324 325 327 329 328 330 332 331 331 331 329 328 328 328 329 330 330 330 330 332 334 330 334 341 340 337 339 347 356 355
303 309 308 309 317 316 315 317 321 323 323 325 325 325 323 323 325 328 330 329 331 332 333 331 330 329 329 329 330 329 330 331 331 333 335 338 336 340 335 337 336 341 347 351 353
306 309 310 308 313 315 316 320 324 322 323 325 325 324 323 324 324 326 329 331 330 331 331 331 330 330 329 329 329 331 331 331 336 332 338 338 340 338 335 336 338 337 347 350 350
309 314 313 314 312 314 318 321 324 325 324 324 324 325 324 324 325 325 329 330 330 330 333 331 333 331 330 330 329 329 330 329 331 332 330 330 337 338 335 335 340 341 348 349 351
310 316 317 315 314 315 318 321 322 323 322 323 324 324 325 325 325 326 329 329 330 330 331 332 332 330 330 329 329 329 330 331 333 336 336 331 341 347 341 340 341 344 348 351 351
313 319 319 316 315 316 317 319 321 322 321 322 322 325 325 326 326 325 328 329 329 330 331 331 332 331 330 330 330 329 332 330 329 333 334 337 347 347 343 341 345 344 346 349 349
319 320 317 314 315 315 316 318 320 322 321 321 322 324 325 327 327 326 327 328 328 329 330 330 330 332 331 330 329 329 329 331 334 338 336 338 340 337 341 342 344 341 343 347 349
323 321 317 314 314 316 317 318 319 322 321 321 320 322 324 326 327 326 327 326 327 327 332 332 330 330 332 331 330 329 329 329 331 340 342 344 347 337 339 339 336 342 346 355 356
323 319 317 315 317 319 321 319 320 320 320 321 321 322 323 324 325 331 327 325 324 324 336 331 334 332 331 332 333 333 332 331 330 334 335 333 340 341 344 345 345 345 354 358 358
322 324 321 316 314 317 321 322 321 321 319 321 320 321 323 325 326 327 327 326 324 327 325 328 334 332 330 329 330 331 332 331 330 331 333 333 339 342 342 340 341 344 360 360 361
318 322 322 321 322 320 318 321 321 321 321 321 321 322 322 323 326 326 325 327 325 325 327 331 335 333 332 331 330 329 328 328 328 329 331 331 335 339 339 336 339 343 358 363 362
313 315 319 320 320 322 321 320 321 322 321 323 323 322 322 324 326 329 330 332 334 334 334 336 335 337 335 332 332 333 329 328 329 329 329 333 340 343 344 344 343 355 359 357 359

GFSSW_925_thetae_027.txt.gz
Theta_e
308 308 308 309 309 309 310 310 310 311 311 311 312 313 313 312 315 323 327 324 322 320 317 318 327 328 326 325 326 340 350 353 347 346 342 339 344 344 344 345 350 352 351 350 352
307 307 308 308 309 309 309 310 310 311 311 311 314 315 314 312 326 330 329 326 324 319 316 325 328 324 322 325 338 343 346 347 343 336 334 336 344 344 342 341 342 355 352 351 352
306 307 307 308 308 309 309 309 310 310 311 312 316 318 314 314 336 333 326 322 321 316 319 326 327 326 326 328 340 338 336 336 338 333 332 332 343 344 343 342 341 355 354 352 352
305 306 306 307 307 308 308 309 310 310 311 314 319 320 313 326 341 327 318 318 317 319 325 329 326 326 328 330 340 338 336 337 333 333 334 334 333 344 345 345 340 351 351 352 353
305 305 306 307 307 308 308 309 310 310 311 315 320 318 314 332 336 321 319 318 320 326 328 327 326 326 328 330 337 336 337 335 332 334 334 335 336 338 346 345 341 350 352 352 351
304 305 306 306 307 307 307 308 309 310 312 316 320 315 329 332 333 326 320 321 327 328 325 327 328 327 328 330 332 335 333 333 333 334 336 335 338 341 346 345 347 350 353 352 352
304 305 305 306 306 307 308 309 309 310 312 316 320 317 327 325 332 330 327 326 327 324 323 328 328 326 325 326 331 333 333 331 332 333 335 334 336 339 343 351 354 355 354 353 353
305 305 305 306 306 307 308 309 309 310 313 317 320 322 330 326 327 330 328 326 326 324 323 328 328 326 327 326 328 329 329 330 334 334 333 333 335 338 337 345 351 355 356 356 353
304 305 305 306 306 307 308 309 310 311 314 317 327 328 331 326 324 328 328 327 326 324 324 327 326 325 326 325 323 325 325 328 336 334 333 330 335 337 335 341 346 350 351 357 353
303 304 305 306 306 307 308 310 312 318 323 328 327 327 328 327 324 323 327 327 326 324 324 326 325 324 323 322 323 325 327 329 338 336 333 330 329 336 339 341 349 351 354 357 355
302 303 305 306 307 307 308 311 326 329 323 327 326 324 325 327 325 325 328 327 325 324 322 325 324 323 323 323 326 326 325 326 329 330 329 330 330 330 332 335 352 352 355 357 356
301 303 305 306 307 307 307 317 321 320 319 321 323 328 326 327 326 326 328 326 325 324 323 323 324 324 327 328 326 324 324 324 326 330 329 330 329 328 331 334 353 354 357 358 357
301 302 304 306 307 309 311 318 320 319 319 321 321 322 324 325 326 325 325 326 325 325 325 323 327 328 328 326 325 324 324 324 328 328 326 329 331 331 331 336 356 355 354 357 359
301 303 305 307 311 313 318 321 319 319 320 322 320 321 323 323 322 324 326 326 325 325 325 325 327 329 328 328 324 323 328 329 328 326 326 329 327 329 334 337 337 358 355 359 359
300 303 305 307 307 312 316 316 318 319 328 324 321 324 321 321 324 324 327 325 325 326 328 328 328 327 328 325 325 326 330 331 331 326 326 327 326 331 334 340 341 348 352 361 361
301 303 306 314 313 313 315 315 318 322 326 324 323 321 320 320 322 324 326 325 325 326 330 328 329 329 327 326 327 328 328 329 328 325 326 332 331 335 336 340 341 344 345 359 360
302 304 307 308 316 314 315 316 320 323 322 322 322 321 319 320 321 323 328 325 325 330 331 332 329 329 328 327 327 329 326 328 329 329 332 333 333 336 336 337 337 335 359 356 360
303 307 307 307 308 314 316 318 324 322 320 322 323 322 322 321 321 322 328 328 326 328 330 332 331 327 327 327 329 328 325 327 333 331 333 335 334 338 336 336 335 349 352 355 356
307 313 312 309 307 313 316 319 323 325 322 322 322 324 322 322 322 321 326 328 328 327 330 332 333 332 328 328 327 328 327 327 327 329 328 329 340 336 339 340 340 343 343 355 355
312 312 316 315 313 313 316 319 320 321 322 321 322 324 325 322 321 321 325 327 329 328 327 328 333 329 329 329 328 328 328 325 327 335 336 333 342 340 343 341 340 341 341 350 353
315 319 316 316 315 315 316 316 319 320 321 321 320 322 325 325 323 322 323 327 328 328 327 326 330 331 331 328 328 328 325 328 323 325 328 331 334 340 341 341 341 339 341 350 352
317 324 319 315 315 315 314 316 316 318 319 320 321 322 324 326 329 324 325 328 327 328 328 328 329 331 331 330 328 327 327 330 333 332 333 333 339 338 338 338 343 345 347 346 349
317 324 317 315 313 313 315 315 315 316 317 321 321 321 321 325 329 332 328 324 324 328 330 330 328 328 327 328 329 332 331 328 327 330 329 334 339 337 341 339 342 348 351 344 349
316 325 318 316 314 315 318 321 320 318 319 320 321 321 321 325 325 328 328 325 324 326 334 330 334 336 328 334 332 332 332 331 328 330 329 331 339 339 342 336 333 338 343 342 348
319 325 321 317 315 314 316 320 321 320 320 320 322 321 321 326 328 325 326 326 324 323 325 329 332 333 331 329 328 329 331 331 331 330 330 327 340 342 340 337 337 335 343 341 342
319 317 316 319 323 317 320 317 322 322 321 319 321 322 321 325 325 332 333 334 335 327 325 327 332 332 334 332 330 331 330 331 329 328 327 336 344 337 339 337 339 341 343 343 341
313 311 315 320 321 321 321 322 320 321 323 322 321 324 323 330 329 327 326 328 333 334 336 331 333 331 332 333 332 332 332 333 333 334 334 330 339 339 339 343 341 335 334 342 341

GFSSW_925_thetae_030.txt.gz
Theta_e
308 308 308 309 309 309 309 309 310 310 311 311 312 315 315 313 313 321 322 325 322 321 320 319 329 326 326 322 327 340 339 345 342 343 342 340 346 345 346 352 352 352 352 350 357
306 307 308 308 308 308 309 309 309 310 310 311 314 318 317 313 323 329 320 328 325 324 317 322 328 325 321 322 333 340 341 340 340 340 340 343 345 340 345 356 356 354 351 351 355
306 306 307 308 308 308 308 309 309 309 310 311 315 320 316 314 335 337 333 328 321 317 319 321 326 325 325 326 337 338 343 339 342 342 337 341 343 342 341 350 355 354 353 352 352
305 306 307 307 307 308 307 308 309 309 310 312 317 319 313 327 339 330 318 318 317 317 320 327 327 324 325 326 331 335 334 335 335 332 333 339 342 343 340 340 352 351 351 351 351
305 306 306 307 307 307 308 308 309 309 310 312 318 317 315 327 332 327 319 318 321 324 327 328 325 325 326 326 334 336 335 335 334 332 332 335 336 343 344 340 352 352 351 351 351
305 306 306 306 307 307 308 309 309 309 310 312 318 317 326 329 334 326 320 321 325 327 327 323 325 326 325 325 328 331 332 332 330 331 335 335 339 344 345 349 352 353 353 352 351
305 305 306 306 306 307 308 309 309 309 310 312 317 319 325 316 331 329 325 325 326 326 321 322 326 324 324 325 326 326 332 329 329 330 334 332 335 342 343 351 353 352 352 352 352
304 305 306 306 306 307 308 309 309 310 310 314 316 323 320 324 327 329 328 327 326 325 323 323 326 325 325 324 323 324 324 328 328 332 332 327 328 337 345 350 352 354 353 352 354
303 304 305 306 306 307 308 309 311 311 312 315 327 328 327 325 323 328 328 327 326 325 324 324 324 323 323 323 321 319 323 324 327 333 333 328 329 335 346 350 353 354 354 353 354
302 303 305 306 306 307 309 310 314 321 322 327 325 321 323 326 325 324 327 327 325 322 322 323 321 321 319 319 322 322 324 325 333 332 332 329 328 329 336 352 355 355 355 354 354
301 302 304 306 306 307 309 313 315 317 321 324 322 320 322 325 324 322 326 326 324 322 320 321 322 321 321 320 322 323 323 323 325 330 330 327 328 328 335 344 348 353 356 353 352
301 301 303 305 306 307 308 314 319 318 315 317 320 322 324 326 324 325 326 325 323 322 322 320 320 321 323 324 323 323 322 321 323 328 327 327 329 327 329 347 349 356 355 354 353
300 301 303 305 307 312 313 316 318 317 315 317 318 318 319 323 325 324 323 324 324 323 322 322 322 325 326 325 323 321 322 322 323 325 324 327 326 326 328 348 349 355 354 354 354
300 301 303 305 310 309 314 314 315 318 315 318 318 318 320 321 321 324 323 325 324 322 323 322 323 325 326 326 324 321 322 329 328 324 324 324 324 324 329 351 352 356 357 356 361
300 301 303 305 310 308 314 315 315 318 314 323 319 321 317 320 322 321 324 325 324 323 325 325 327 326 326 326 323 321 326 327 328 322 322 323 324 325 338 346 346 355 357 358 363
301 302 303 308 311 313 313 315 316 318 319 322 320 319 318 319 320 321 324 324 324 324 324 325 327 327 325 325 324 326 325 323 323 320 323 323 328 327 334 340 350 352 358 359 360
302 303 305 306 311 311 315 313 314 319 319 320 320 318 317 317 319 320 325 323 322 325 325 327 329 327 327 326 324 324 320 322 325 327 327 328 328 330 333 337 347 346 359 360 360
304 307 308 306 306 309 313 312 319 318 317 318 319 319 317 317 317 319 324 323 322 325 326 328 329 328 327 324 325 324 320 322 328 327 328 327 329 337 336 336 343 355 350 342 351
310 310 313 314 307 308 309 314 315 320 321 320 318 319 319 319 319 318 323 324 323 322 325 328 330 329 328 325 323 324 324 322 324 324 325 325 337 333 336 339 350 352 351 352 355
312 311 312 314 308 312 309 314 315 318 319 318 319 320 319 320 318 317 320 324 326 324 322 325 327 325 328 325 325 323 322 323 319 327 330 329 336 335 337 336 344 341 342 342 352
315 313 316 315 311 307 310 311 314 317 317 317 317 319 321 324 322 316 317 324 325 326 322 322 323 326 329 325 325 324 323 321 318 320 322 325 327 332 336 338 338 338 343 345 344
309 318 316 313 309 306 309 312 312 314 313 314 317 319 320 322 324 328 318 320 324 324 324 321 322 324 329 326 326 324 324 320 326 325 324 325 330 335 335 336 337 339 346 346 343
306 315 316 314 308 307 308 312 313 312 313 314 317 319 318 322 323 326 325 322 325 325 327 324 322 324 325 323 325 329 329 323 320 320 323 324 325 333 336 339 343 340 340 339 340
308 321 309 308 306 311 312 314 317 319 314 314 316 318 317 320 322 323 323 325 323 324 331 328 325 322 323 325 327 328 327 327 322 324 324 325 333 335 337 341 344 338 338 337 338
310 318 313 316 310 310 312 313 314 317 318 317 317 318 318 321 320 327 327 326 325 325 323 322 327 327 327 328 327 328 329 329 328 327 329 328 331 334 337 336 342 336 335 336 335
310 309 308 311 314 315 310 311 314 315 319 316 317 318 324 327 327 327 328 329 331 328 321 319 325 327 325 331 330 331 330 330 330 334 328 335 338 337 335 334 340 338 343 344 344
310 311 308 312 313 314 316 318 319 318 319 326 325 323 327 326 325 324 321 321 326 329 330 331 324 323 324 330 333 329 329 330 335 341 339 332 331 335 339 336 335 339 340 341 341

GFSSW_925_thetae_033.txt.gz
Theta_e
307 307 308 308 308 308 308 308 309 309 310 310 312 316 318 315 313 320 317 324 323 323 322 319 327 326 325 322 326 336 337 338 339 341 340 339 345 346 347 352 352 352 351 350 352
306 307 307 308 308 308 308 308 308 309 309 310 313 318 318 314 322 330 318 327 327 325 318 322 324 325 320 321 329 330 337 337 338 338 339 342 344 346 352 354 354 354 356 356 356
306 307 307 307 307 307 307 308 309 308 309 310 313 318 315 319 333 335 332 330 324 319 316 321 325 324 324 324 337 337 338 338 340 340 338 338 342 339 353 354 353 355 360 358 356
306 306 307 307 307 307 307 308 308 309 309 310 313 318 315 328 337 331 319 318 316 317 322 326 325 323 323 324 327 338 334 334 335 333 337 335 339 339 343 345 350 351 356 357 356
305 306 306 306 306 307 307 308 309 309 309 309 313 318 318 324 328 333 319 317 319 323 326 326 324 324 326 324 326 334 333 332 332 331 330 335 340 341 339 351 350 351 351 356 356
304 305 306 306 306 307 308 309 309 309 309 309 313 318 322 320 332 327 320 319 322 326 326 324 323 325 325 324 326 328 326 328 329 331 331 334 337 342 344 351 351 352 352 352 354
304 305 305 306 306 307 308 309 309 309 310 310 313 318 324 314 328 327 322 323 325 325 323 321 322 325 324 325 324 324 329 327 328 329 332 334 341 343 344 352 353 352 352 351 351
303 304 305 306 306 307 308 309 310 310 311 311 315 324 324 324 326 327 326 325 326 326 325 323 323 323 325 323 321 322 321 325 326 328 328 329 329 340 349 353 355 353 353 352 351
302 303 304 305 306 307 308 309 311 313 312 314 324 327 324 325 324 326 328 326 326 326 325 322 322 320 320 321 319 318 322 322 322 325 330 328 327 338 348 352 354 354 353 353 352
301 302 303 304 305 307 309 311 320 323 322 326 325 316 319 324 324 323 327 328 325 321 320 321 317 319 317 318 320 322 322 321 324 329 331 327 326 341 347 351 353 352 353 352 353
301 301 303 304 305 307 309 316 314 315 318 320 319 315 319 323 324 321 323 325 323 319 319 318 319 320 319 320 321 322 321 320 321 325 330 328 326 326 346 348 351 351 352 353 353
300 301 302 304 305 307 312 314 316 314 313 314 316 320 321 322 324 322 324 325 322 321 321 318 318 318 321 322 322 322 320 319 321 324 326 326 326 326 336 349 352 353 355 353 351
300 301 302 304 306 311 310 315 313 313 313 315 316 316 317 321 322 323 323 323 322 322 321 320 321 323 324 324 323 320 321 321 323 322 322 324 323 323 325 341 346 352 352 352 353
300 301 302 304 310 309 313 314 314 315 312 315 317 316 318 320 321 324 324 325 324 323 321 321 321 323 323 325 321 323 320 325 326 323 323 321 322 322 334 352 355 354 353 352 353
300 301 302 303 306 309 312 314 315 315 310 316 317 318 316 320 321 321 323 323 324 322 321 323 325 326 326 324 322 322 324 325 325 321 321 322 320 322 338 354 357 356 354 353 356
301 302 303 306 306 310 311 315 316 314 314 319 318 317 318 319 320 320 322 323 323 324 323 321 324 326 326 324 322 323 323 320 320 318 322 322 323 325 341 345 348 356 357 360 360
302 304 307 306 307 312 311 311 311 315 315 318 318 317 316 317 319 319 323 322 322 322 322 324 326 327 326 325 323 320 318 320 321 324 326 324 328 326 332 337 351 362 360 349 341
304 308 310 308 306 306 312 312 312 312 315 316 317 316 317 316 317 318 321 322 321 324 323 326 327 328 326 324 324 323 319 320 325 324 325 323 329 332 336 336 355 353 351 336 337
306 312 308 309 309 307 308 311 312 315 319 318 317 318 317 317 318 317 318 320 321 321 322 326 328 327 326 325 323 323 323 320 319 320 323 324 332 332 349 354 352 340 339 337 340
307 314 310 314 307 310 308 310 312 315 316 316 318 318 320 317 316 315 317 320 323 322 320 323 326 325 326 324 322 321 319 321 317 325 327 324 327 334 347 351 342 344 341 341 342
312 312 314 310 311 305 308 308 312 313 314 316 316 317 318 322 316 314 316 319 322 323 320 321 322 324 325 324 324 322 321 317 316 318 321 323 324 325 337 339 340 341 343 344 343
307 314 313 309 306 302 307 310 311 312 311 313 313 314 317 319 322 325 316 318 322 321 322 320 319 323 324 325 323 323 322 318 321 325 321 321 324 331 331 333 334 335 344 341 344
305 309 313 311 309 306 306 310 312 312 311 312 314 316 317 318 322 323 322 322 322 321 321 320 320 323 324 322 323 326 325 320 316 316 321 323 324 332 333 335 336 340 343 341 344
309 319 309 305 303 308 311 310 313 316 313 312 313 314 316 320 320 322 322 323 321 328 337 324 317 322 324 324 325 327 327 324 320 322 322 322 325 335 336 338 341 337 335 337 340
309 314 310 314 311 311 309 310 312 313 316 314 315 316 317 320 321 326 328 327 326 330 320 320 326 325 323 326 326 328 329 328 327 325 328 327 327 328 335 337 339 334 334 337 336
308 307 306 308 311 313 311 311 312 311 314 317 315 323 323 326 325 326 325 326 330 326 320 317 325 324 325 329 329 329 327 328 332 338 330 334 335 332 334 335 339 336 339 342 342
307 308 307 310 311 311 312 312 314 316 317 325 325 324 325 325 323 323 321 319 323 327 331 329 320 319 321 330 327 323 330 334 342 342 340 331 332 335 335 336 337 337 337 337 340

GFSSW_925_thetae_036.txt.gz
Theta_e
306 307 307 308 307 307 307 307 308 308 309 310 311 314 317 315 314 320 316 321 323 325 324 321 325 325 323 321 333 332 334 339 338 340 340 338 347 347 347 352 352 352 352 351 353
305 307 307 307 307 307 307 308 308 308 308 309 310 314 317 315 324 329 322 322 327 325 318 322 323 323 320 321 330 328 330 334 334 336 338 341 345 346 350 352 353 359 352 352 354
306 306 307 306 307 306 307 308 308 309 309 309 310 314 317 320 333 332 329 329 324 318 318 321 324 323 323 323 334 334 332 337 337 338 337 340 343 340 350 354 352 359 356 354 355
305 306 306 306 306 306 307 308 309 309 309 309 310 314 317 327 335 332 319 317 316 318 324 325 323 323 322 325 323 332 333 335 335 335 337 337 339 342 350 344 348 356 355 355 354
305 305 305 306 306 307 307 308 309 309 309 310 310 314 319 319 324 333 318 317 321 324 325 324 323 324 325 324 324 334 332 331 331 331 331 335 339 339 348 349 351 357 356 355 354
304 305 305 305 306 306 307 308 309 309 310 310 310 314 319 315 326 329 319 318 322 325 325 323 322 323 324 324 325 325 324 324 326 330 330 334 337 339 346 350 354 358 357 356 354
302 304 305 305 306 307 307 309 309 310 310 310 310 316 321 312 321 328 322 321 323 324 323 321 321 324 323 325 322 322 323 324 327 328 331 335 340 340 348 351 353 354 355 356 355
302 302 304 304 305 306 308 309 309 311 311 311 313 325 323 320 325 327 325 324 325 325 324 324 321 321 323 322 319 320 320 322 323 327 328 329 328 335 350 352 354 353 352 353 352
301 301 303 304 305 306 308 309 312 321 314 312 323 326 320 321 324 324 327 326 325 325 323 321 320 319 319 320 318 316 320 321 321 324 327 329 329 327 350 352 353 353 352 351 350
301 301 302 303 305 306 309 313 320 323 322 325 325 314 315 322 324 323 325 327 325 321 318 319 315 318 316 317 320 322 321 320 320 323 329 329 326 341 349 352 353 352 352 352 351
301 301 302 303 305 307 311 317 312 314 315 318 316 312 316 321 323 320 324 325 321 318 318 316 317 316 318 320 320 321 321 320 319 320 328 328 326 325 344 349 351 351 352 351 351
300 301 302 303 305 307 313 310 311 311 312 312 313 317 319 321 321 322 324 324 322 321 319 316 317 317 320 321 322 322 321 318 319 321 325 323 325 325 343 347 349 350 351 351 351
300 301 302 304 305 311 310 313 311 311 311 313 314 315 317 319 319 321 321 322 321 320 320 318 319 321 322 322 323 320 318 320 323 321 321 322 323 322 324 333 340 347 350 350 351
300 301 302 304 309 307 312 312 312 312 309 312 315 315 316 318 321 322 322 323 323 323 319 320 320 322 323 322 321 323 319 322 325 324 324 319 323 320 325 348 352 352 352 351 353
300 301 303 304 304 309 312 312 313 311 309 314 316 316 315 318 320 320 322 323 323 321 319 321 323 323 324 325 321 322 321 325 322 320 320 320 319 320 334 350 351 354 354 356 344
300 302 304 306 305 307 310 313 314 310 311 315 317 316 318 319 319 320 322 322 321 322 322 321 322 324 324 324 321 321 320 318 317 317 321 323 321 323 333 333 334 359 363 355 347
301 303 306 307 305 311 308 309 311 311 311 316 316 316 315 317 319 319 321 321 320 320 321 323 325 326 326 324 322 319 317 319 319 321 323 321 327 326 327 335 344 362 356 356 348
303 304 309 309 306 306 311 310 310 310 312 314 317 315 316 316 317 318 320 319 320 321 321 323 323 326 324 324 322 321 318 318 322 322 324 321 328 333 340 341 357 358 354 341 340
304 308 310 307 308 306 307 310 310 311 317 316 315 317 316 316 317 317 316 317 319 319 321 324 327 326 326 324 323 322 322 317 318 318 322 322 330 331 351 355 348 341 337 338 338
307 313 312 312 310 309 306 309 310 312 314 315 317 316 319 319 315 314 315 316 319 319 319 322 325 324 325 322 321 322 318 321 317 324 325 322 323 332 345 353 346 343 336 337 338
311 309 311 308 309 304 307 306 310 311 311 314 315 315 316 319 314 313 314 317 319 320 319 320 322 324 323 323 322 321 320 315 315 316 320 323 324 321 337 345 343 343 340 341 340
305 311 312 308 305 301 306 309 310 310 310 310 312 313 315 317 320 314 315 316 319 318 320 319 318 322 323 323 322 321 320 317 321 323 319 319 323 322 331 338 339 339 341 341 341
304 308 311 310 309 305 305 308 310 311 310 310 312 313 315 316 319 322 321 320 320 319 320 319 319 322 323 322 323 325 322 317 314 315 322 324 325 326 331 333 333 333 334 341 339
309 315 308 303 301 308 311 310 311 312 311 311 311 313 314 316 319 321 324 322 323 325 334 322 316 321 323 324 323 326 326 320 319 323 320 321 324 324 334 333 334 338 334 337 337
306 310 308 313 309 312 310 310 311 311 312 313 313 312 316 317 322 326 327 326 325 326 319 319 321 321 321 322 324 325 327 324 325 322 327 326 323 324 325 333 334 333 334 334 335
306 306 305 307 309 311 310 312 311 312 310 314 316 314 316 321 321 326 324 325 328 325 319 318 323 323 326 328 328 328 327 326 331 326 326 331 329 324 331 332 338 335 336 338 340
305 306 304 308 310 310 310 312 312 312 314 316 325 323 324 324 323 323 321 316 321 327 330 323 319 319 325 330 323 323 330 335 341 341 338 331 328 334 333 335 335 335 335 336 337

GFSSW_925_thetae_039.txt.gz
Theta_e
306 306 307 307 307 307 307 308 308 309 309 309 310 311 315 316 318 321 319 318 323 325 323 321 324 323 325 324 337 336 341 345 343 343 343 345 349 347 348 352 351 352 353 353 355
306 306 307 306 306 307 308 308 308 309 309 309 309 310 315 316 328 331 326 320 327 324 318 321 326 325 325 326 335 331 341 339 337 339 342 344 347 348 353 352 355 356 354 356 355
305 307 306 306 306 307 308 309 309 309 309 309 310 310 314 319 333 331 325 325 322 317 318 322 325 325 327 327 336 336 337 338 339 339 340 345 347 349 352 354 353 357 358 356 356
305 305 305 306 306 307 308 309 309 309 309 310 310 311 315 326 331 331 318 317 316 321 324 324 325 327 328 328 326 332 335 337 337 337 340 344 346 349 351 349 347 352 355 357 358
304 304 305 305 306 307 307 308 309 309 310 310 310 312 318 319 325 331 318 317 321 324 325 325 326 327 329 328 328 334 332 331 333 334 338 340 345 346 350 349 351 354 356 357 357
303 305 305 305 305 306 308 309 309 310 310 310 310 312 318 317 322 327 319 319 322 324 324 323 324 325 327 327 328 326 326 327 329 332 334 335 338 343 345 353 357 356 357 356 356
302 304 304 304 305 306 308 309 309 310 311 311 311 315 322 318 321 325 321 320 323 324 325 322 321 324 326 328 325 325 329 330 330 331 333 337 341 343 347 353 358 357 357 356 356
301 302 304 304 305 306 308 309 310 312 315 311 312 322 321 319 322 325 324 324 324 325 324 322 320 323 325 325 324 325 327 331 326 328 329 337 335 338 348 353 358 357 357 357 357
301 301 303 304 306 307 308 309 313 321 316 312 321 325 319 319 323 324 325 326 325 324 320 320 322 323 324 326 328 326 331 327 327 328 328 334 334 333 350 352 355 356 357 357 357
301 301 303 304 305 307 309 315 320 322 322 324 323 318 317 322 322 322 324 326 326 322 321 324 323 325 325 327 334 329 326 326 327 326 328 333 333 337 351 353 355 355 355 356 355
300 301 303 304 305 307 313 315 317 318 315 321 318 314 315 320 321 321 324 326 323 323 322 321 323 323 326 325 324 325 325 326 326 323 328 332 333 329 349 353 354 355 356 356 354
300 301 303 304 305 309 313 314 312 311 317 315 314 316 317 320 321 322 323 325 325 325 321 322 322 321 322 323 324 326 326 326 325 325 329 328 330 329 342 350 350 353 356 355 357
300 301 303 304 306 310 312 311 310 310 316 317 316 317 318 320 321 322 324 324 325 323 322 321 322 321 322 324 326 325 324 324 329 327 325 329 331 329 330 346 353 344 353 354 356
300 301 303 304 307 306 312 310 311 310 316 316 315 317 319 320 322 322 323 326 325 324 322 322 322 323 325 326 325 328 324 323 328 329 329 326 329 336 329 350 355 355 353 356 352
300 301 303 304 304 308 311 310 311 310 316 315 317 316 317 321 321 323 322 325 327 325 323 322 325 325 325 328 325 328 324 328 326 328 328 332 331 333 341 344 344 358 357 355 352
300 302 304 306 305 306 308 311 312 316 315 317 318 317 320 320 320 321 324 324 325 324 324 324 323 324 326 325 323 324 325 325 327 327 327 332 331 333 338 341 342 361 359 356 352
302 304 304 306 306 307 307 313 317 315 315 318 318 318 318 320 321 322 325 325 325 327 326 324 325 326 327 326 324 325 328 327 326 327 327 329 333 336 334 341 343 360 362 356 349
303 304 307 308 306 306 311 317 317 315 315 315 318 318 318 318 321 320 324 325 322 325 325 324 326 328 327 329 329 326 328 327 328 327 330 329 334 334 338 349 353 360 362 357 353
304 308 310 308 309 307 315 319 317 314 318 318 318 319 319 317 319 321 322 323 324 325 326 329 327 328 328 325 327 327 330 325 330 327 330 331 337 337 343 349 358 354 355 359 356
308 313 310 311 310 308 316 315 315 311 316 316 319 318 321 321 319 320 321 321 321 323 325 328 330 326 326 325 324 328 324 329 329 334 331 331 333 333 339 347 359 351 351 345 342
311 315 310 308 308 313 316 314 312 312 314 315 317 318 319 320 319 319 321 320 320 322 323 327 329 328 327 328 329 326 327 325 328 329 330 330 331 335 338 342 352 355 343 341 341
308 317 310 308 314 307 313 311 309 312 311 312 314 316 318 318 321 320 320 320 320 322 323 326 328 329 328 326 323 325 329 331 330 335 331 332 329 327 335 339 349 350 347 345 345
315 316 311 309 311 311 310 310 311 311 311 312 313 316 317 318 321 325 322 321 321 323 326 326 329 329 330 328 326 329 325 326 330 333 337 332 331 329 336 339 343 348 342 340 343
316 318 314 310 307 313 315 315 314 313 312 313 314 315 316 319 322 326 327 324 325 323 331 329 330 332 328 331 331 332 328 326 332 334 333 332 334 335 335 340 339 341 341 340 344
310 315 311 317 315 316 315 314 315 315 314 314 318 317 317 321 325 329 329 329 327 325 324 330 334 329 327 325 328 330 329 326 331 334 332 334 333 336 335 339 339 341 340 342 342
312 312 310 313 313 314 313 317 315 316 315 316 318 319 317 320 326 328 328 329 331 329 326 326 334 330 329 327 328 330 330 329 330 328 332 333 336 339 339 338 341 340 342 343 342
305 306 309 311 314 314 314 314 314 314 318 315 318 325 325 321 326 325 325 323 326 332 335 331 331 332 333 332 330 333 332 334 341 341 337 337 337 339 341 341 342 341 339 341 342

GFSSW_925_thetae_042.txt.gz
Theta_e
307 307 307 306 306 307 308 308 309 309 309 310 310 311 312 315 322 324 323 320 325 325 322 321 323 325 335 332 332 339 344 343 341 342 341 345 347 348 347 353 348 353 350 351 358
306 307 306 306 307 308 308 308 309 309 310 310 310 311 312 316 332 330 329 321 325 324 320 325 328 328 331 329 334 338 344 341 340 341 341 343 346 349 351 352 353 357 354 355 357
306 306 306 306 306 308 308 309 309 310 310 310 310 311 313 319 336 330 321 322 323 317 319 325 328 329 329 332 337 340 342 339 339 338 339 342 345 348 350 351 348 355 356 355 355
305 306 306 306 307 308 308 309 309 310 310 310 311 311 314 328 330 334 318 317 317 324 327 327 329 329 332 335 332 339 338 338 337 338 339 342 344 348 348 348 346 351 353 354 356
304 305 305 306 307 307 308 309 309 310 310 311 311 311 321 326 332 331 319 319 322 325 326 328 329 330 334 334 333 337 336 334 335 335 337 340 343 346 348 347 349 353 353 354 354
303 304 304 305 306 307 308 309 309 310 311 311 311 312 323 323 324 328 319 320 324 326 326 327 328 329 332 332 334 332 333 333 334 335 337 338 339 344 344 349 354 354 353 353 353
303 304 304 304 306 307 308 309 310 310 312 313 311 314 323 321 323 326 322 322 325 326 328 325 325 328 331 333 330 331 335 335 334 333 335 337 340 342 341 351 355 354 352 352 353
302 303 304 305 306 307 308 309 310 313 317 314 312 324 322 320 323 324 326 325 326 327 326 325 324 327 329 330 331 335 336 336 332 329 332 336 337 336 346 351 355 353 353 352 354
301 302 304 305 305 307 308 310 316 319 319 313 324 325 321 319 323 325 326 326 326 326 324 323 326 328 328 332 336 336 338 333 332 330 330 337 337 337 343 349 353 354 355 353 353
301 302 303 304 305 307 309 315 319 320 322 323 325 324 321 323 324 324 326 327 327 326 325 326 327 328 330 333 336 336 335 333 332 329 329 332 335 335 344 348 351 355 356 356 354
300 302 303 304 305 307 313 318 322 325 321 323 323 320 319 323 323 325 326 326 326 325 325 326 326 326 331 333 330 332 333 333 330 329 330 333 336 335 343 348 352 355 357 357 356
300 301 303 304 305 309 314 320 317 315 321 321 320 321 321 321 324 325 326 326 325 325 325 324 324 326 326 327 328 331 333 332 329 331 331 331 333 334 342 347 346 350 357 357 358
300 302 303 304 306 313 316 316 312 313 321 321 320 320 321 321 323 325 326 326 325 324 324 323 325 324 324 326 328 331 332 330 329 331 331 331 333 333 334 349 353 349 350 355 359
300 301 303 304 310 310 317 313 312 313 321 321 319 320 320 323 322 324 325 326 325 324 324 323 324 324 325 326 327 329 329 328 328 329 331 331 330 337 338 345 354 351 350 353 356
300 302 303 304 311 313 315 312 313 315 320 318 319 319 321 322 324 324 325 327 326 325 324 323 323 324 326 326 326 329 327 328 329 329 330 332 329 333 338 341 348 357 354 356 358
301 302 304 309 310 310 310 311 316 321 318 320 321 320 321 322 323 325 325 326 327 327 325 325 326 327 326 329 329 329 330 330 329 328 328 333 329 333 333 343 346 356 359 358 357
302 303 304 306 312 309 310 317 321 320 318 320 321 321 321 322 322 324 326 327 326 327 328 325 326 326 328 330 329 329 329 329 329 328 329 333 330 332 335 344 348 349 361 359 357
304 304 308 308 311 310 314 320 321 319 319 319 320 321 322 321 322 323 325 326 326 326 326 326 325 327 329 330 329 329 329 328 331 328 329 334 329 336 340 349 354 354 363 360 358
305 311 313 311 311 311 319 320 319 319 319 320 320 320 322 322 321 323 323 325 326 326 326 325 325 327 329 329 331 330 329 330 331 329 327 331 333 332 341 351 357 359 363 363 361
311 318 314 312 312 312 319 319 319 316 319 319 320 321 323 323 321 322 323 323 324 325 327 329 328 327 329 329 329 331 331 329 329 332 331 331 333 331 333 344 355 356 360 360 354
316 318 311 310 309 317 318 318 317 316 317 318 321 321 322 324 323 323 324 323 324 324 326 326 329 329 330 331 331 331 331 331 331 332 332 332 332 332 336 341 350 355 355 351 345
316 318 312 311 315 316 317 317 309 315 315 316 317 319 320 322 324 324 323 323 323 325 326 327 329 329 328 330 329 331 332 332 332 336 331 335 333 333 339 343 350 353 349 346 348
321 318 312 313 314 315 315 314 314 314 315 315 316 317 320 322 324 325 327 323 323 324 325 328 328 331 330 331 330 331 330 333 336 337 335 332 334 335 337 342 349 353 351 349 346
322 319 314 314 316 316 316 316 315 314 313 314 315 316 317 319 323 326 327 326 326 325 330 329 328 331 328 330 331 334 332 331 333 333 336 332 334 334 341 342 345 351 349 346 348
319 320 318 316 316 319 319 318 316 315 314 317 317 316 318 321 322 325 329 330 329 330 327 327 331 330 328 330 329 332 331 330 334 333 333 332 333 341 343 345 343 346 346 347 348
319 320 318 321 320 320 316 321 320 319 318 316 317 319 319 320 323 329 329 332 330 330 330 329 333 329 328 327 327 329 331 331 332 333 333 332 334 342 343 343 344 345 347 346 347
311 313 316 315 320 320 320 320 319 318 319 317 319 320 323 324 322 327 329 331 334 335 334 333 331 335 328 329 329 330 331 331 332 332 333 334 344 343 345 347 347 345 343 344 345

GFSSW_925_thetae_045.txt.gz
Theta_e
307 307 307 307 307 307 308 309 309 309 310 310 311 311 312 314 319 324 329 323 324 323 323 330 327 338 334 342 340 336 346 348 340 342 342 343 343 343 344 344 348 347 349 353 355
307 306 306 307 308 307 308 309 309 310 310 311 311 311 312 314 330 330 326 321 325 324 324 325 328 330 332 337 335 341 346 345 338 339 339 340 344 344 346 345 351 352 351 353 354
306 306 306 306 306 308 308 309 309 310 310 311 311 312 312 315 337 332 319 323 324 319 321 325 328 332 333 335 338 341 344 338 337 337 338 340 341 343 345 344 346 353 354 353 352
306 306 306 306 306 308 308 308 309 310 310 311 312 312 313 327 336 333 319 317 317 322 324 327 329 331 334 335 337 339 340 338 337 336 337 339 341 342 343 343 344 351 351 352 353
305 306 306 306 307 308 308 309 309 310 311 312 312 313 320 331 334 330 319 321 324 326 327 329 330 333 335 337 337 340 338 337 336 335 336 337 339 341 341 347 346 350 351 352 352
304 305 306 306 307 307 307 309 310 310 311 312 313 312 330 326 330 329 323 323 326 327 327 328 331 333 334 336 337 338 337 336 335 336 336 336 337 339 340 344 350 351 350 351 352
303 304 305 306 307 307 308 309 310 311 313 316 313 314 325 324 323 329 325 324 326 327 329 328 328 330 334 336 337 336 337 336 336 335 334 335 336 337 338 344 352 352 350 351 352
303 304 305 305 306 307 308 309 310 315 317 318 314 324 326 322 323 325 327 326 326 327 327 328 328 329 332 335 335 337 337 336 335 332 333 333 339 342 340 345 350 352 351 351 353
301 303 304 305 306 307 309 310 314 318 320 319 325 330 325 320 322 323 326 326 327 327 327 326 327 329 333 334 337 337 338 342 334 332 331 333 336 338 337 342 346 352 352 352 353
301 302 304 305 306 307 309 312 316 318 326 326 326 325 324 323 325 325 325 326 327 328 327 327 327 329 332 334 337 337 337 340 334 333 330 331 333 334 339 340 343 350 354 353 353
301 302 303 304 306 307 311 321 325 329 324 323 326 324 323 323 324 324 325 326 327 327 327 327 327 328 330 333 334 334 336 335 334 332 331 333 333 336 339 339 342 348 354 355 354
301 302 303 304 306 308 315 323 321 318 322 323 323 323 323 323 325 326 326 326 326 326 326 327 326 327 329 331 333 332 333 333 334 331 331 332 333 334 336 339 339 341 351 354 355
301 302 303 304 306 313 319 320 318 319 322 323 323 322 323 322 323 325 326 327 326 326 326 326 327 327 326 328 331 331 332 333 333 333 332 331 332 335 336 340 344 346 346 353 355
301 301 303 305 311 314 319 318 318 319 323 323 322 322 323 323 323 325 326 327 326 326 325 326 326 326 325 326 329 331 331 331 330 330 331 334 332 337 338 341 345 348 348 352 356
301 301 303 304 311 315 319 317 318 320 323 323 322 323 324 323 325 324 326 327 327 326 326 326 324 325 325 327 327 327 330 330 329 330 331 330 332 335 337 341 341 350 353 355 360
301 303 304 313 314 314 314 317 320 323 322 322 323 321 322 323 324 326 326 327 327 327 327 326 327 326 325 326 327 328 330 330 330 330 331 331 331 330 337 339 338 353 359 359 359
302 305 304 310 317 314 315 319 322 323 323 322 322 323 323 323 323 325 326 326 327 328 329 326 326 326 327 328 329 328 329 331 332 331 329 333 332 331 335 341 342 353 361 360 358
308 306 313 310 314 313 317 321 323 323 323 323 323 324 323 324 324 324 325 326 327 327 327 328 326 326 327 328 330 328 329 331 332 331 332 333 330 332 336 343 347 355 361 361 359
309 314 315 315 313 314 321 322 323 324 322 321 322 322 323 324 324 324 325 326 327 327 328 327 327 328 328 329 330 332 329 330 330 331 332 331 332 334 334 344 348 354 361 362 360
312 316 317 314 314 314 320 321 322 321 320 321 322 323 323 324 324 324 325 325 326 327 328 328 330 328 328 330 330 331 332 330 330 331 334 331 333 337 336 342 347 352 358 363 362
314 320 316 313 312 316 320 322 321 321 320 320 321 322 323 326 325 324 324 325 325 326 327 327 330 329 329 330 330 330 331 332 331 333 333 335 336 335 337 339 345 348 357 357 350
317 319 314 312 315 317 321 323 311 320 318 319 320 322 323 324 325 326 325 326 325 325 325 327 328 329 331 330 330 331 332 331 333 335 333 332 335 331 337 341 343 351 353 349 348
322 320 314 314 316 318 320 320 319 318 318 318 318 320 322 323 325 326 326 326 324 324 326 327 328 331 330 330 330 331 332 333 334 335 338 335 334 335 338 342 346 351 350 352 351
323 319 316 315 317 319 319 319 318 317 317 317 318 319 320 322 324 327 326 327 325 325 336 329 329 330 330 330 331 332 330 330 331 335 335 333 337 338 340 345 350 353 354 352 349
321 322 322 317 317 318 319 319 319 319 317 317 317 318 320 322 323 325 325 328 329 331 327 327 331 330 329 330 331 332 332 331 330 333 334 336 338 340 344 344 345 351 351 350 350
322 321 318 321 322 319 317 321 321 320 320 320 318 319 319 321 324 327 328 328 330 330 330 328 331 331 330 329 329 331 331 332 330 331 332 332 340 339 343 345 346 348 349 349 349
316 318 321 319 321 321 321 321 322 320 321 321 320 319 320 323 324 325 327 331 333 337 334 333 332 333 332 329 329 329 330 332 332 332 333 335 345 344 346 348 348 348 346 346 346

GFSSW_925_thetae_048.txt.gz
Theta_e
307 306 306 306 308 308 309 309 309 310 310 310 311 311 312 313 316 324 326 326 325 323 323 337 337 334 339 336 339 341 345 347 343 346 345 342 342 341 341 344 343 343 348 352 352
307 306 306 307 308 309 309 309 310 310 310 311 311 311 312 312 321 331 325 321 322 323 326 327 328 330 332 334 337 343 344 344 343 338 341 346 343 345 347 343 349 349 350 352 353
306 306 306 306 307 308 308 308 309 310 311 311 312 312 312 313 333 329 325 323 323 323 324 324 327 330 333 335 336 343 345 343 344 336 338 341 345 342 342 341 346 351 353 353 353
306 306 306 306 306 307 308 308 309 310 311 312 312 313 313 324 338 328 319 318 319 319 322 325 329 330 333 336 336 340 341 340 337 336 337 338 341 344 342 343 342 350 352 352 353
305 306 306 307 306 307 308 309 309 310 311 312 313 314 317 333 332 324 320 318 319 322 327 330 330 331 333 335 336 337 340 338 336 335 335 336 338 340 343 344 344 350 350 351 352
304 305 306 307 306 307 308 309 310 310 312 313 315 313 329 328 330 326 324 323 324 326 328 329 330 331 333 334 336 338 339 337 335 336 335 334 336 337 339 345 345 350 350 350 351
303 305 306 305 306 307 309 309 310 311 314 315 316 313 325 324 324 330 326 324 326 327 329 329 329 330 332 334 336 337 337 336 336 335 334 335 338 338 339 340 345 349 350 350 351
302 304 305 305 306 307 309 310 310 312 316 318 317 321 326 325 324 325 328 327 326 326 327 329 329 330 331 333 335 336 336 338 338 339 333 332 340 339 339 341 346 349 350 350 352
301 303 304 305 306 307 309 310 311 313 317 319 323 329 328 324 322 322 326 327 327 327 328 327 328 328 331 332 334 335 337 340 337 338 332 331 340 340 339 342 343 348 350 350 352
301 302 303 304 305 307 310 312 314 318 321 325 326 326 325 324 324 325 326 327 328 328 328 328 326 326 329 331 334 338 340 340 342 338 332 330 333 337 338 339 339 346 352 351 352
301 302 303 304 305 307 309 319 326 330 322 325 327 324 325 324 325 325 325 326 326 327 328 328 326 326 328 331 332 333 340 343 341 340 331 331 333 334 336 336 338 343 355 355 353
301 302 303 304 306 308 308 325 322 321 322 324 326 325 325 324 325 325 325 326 326 325 327 327 327 327 328 330 331 333 334 338 339 335 332 331 332 334 335 336 335 335 349 353 364
301 302 303 305 306 309 318 321 320 320 321 322 323 324 324 324 323 324 327 326 326 326 326 326 327 328 327 328 329 332 333 332 332 334 333 332 331 333 336 336 340 342 342 353 364
301 302 303 305 312 318 317 321 319 320 322 322 323 324 324 324 323 324 327 326 326 326 326 326 328 327 327 326 327 328 330 331 331 332 330 333 334 337 336 340 343 346 346 354 367
301 302 304 304 308 317 321 319 319 321 323 325 324 325 324 323 325 324 325 327 326 327 326 326 326 326 326 326 326 329 329 331 331 329 330 331 331 343 340 342 346 350 353 361 365
301 302 305 313 315 313 316 318 320 322 322 324 324 323 323 324 324 326 325 327 327 326 328 326 328 326 326 326 327 328 328 330 330 330 331 332 332 342 340 344 351 356 358 360 360
302 306 307 308 318 317 315 319 322 322 323 323 323 324 323 323 323 325 325 326 325 327 328 328 327 327 327 325 327 327 328 331 332 331 331 334 331 340 341 339 348 360 359 360 360
305 309 308 310 313 316 316 320 323 323 323 325 324 324 323 324 324 324 326 326 326 326 327 328 327 326 327 326 328 330 328 331 336 334 338 338 340 338 342 341 352 356 358 360 360
309 313 314 317 312 314 319 321 322 324 324 324 324 323 324 324 324 324 325 326 327 326 329 328 328 329 327 327 327 330 329 328 330 331 333 338 337 337 338 343 350 357 360 360 359
311 314 318 316 315 315 319 321 321 323 323 323 323 324 323 324 324 324 325 326 326 328 328 328 329 329 328 328 328 329 331 331 329 336 337 332 340 343 341 346 353 355 358 359 359
312 321 319 316 315 317 319 320 321 323 323 322 322 323 323 324 325 325 324 326 326 327 328 327 328 330 328 328 329 330 330 333 332 332 337 341 345 341 342 342 347 351 357 359 359
318 321 318 314 315 317 320 322 322 323 322 321 321 322 324 325 326 327 325 326 327 326 326 327 327 330 330 329 330 330 330 330 332 339 335 338 339 336 339 339 346 353 356 353 348
322 321 318 314 314 316 318 321 324 323 322 321 320 321 322 324 326 327 327 326 326 326 327 328 327 328 330 330 332 330 330 331 335 340 341 342 339 339 342 343 343 352 352 352 352
324 321 318 316 316 318 321 321 323 321 321 320 320 320 321 321 324 326 327 327 326 325 333 329 330 333 327 332 330 333 330 330 333 337 336 338 345 346 344 339 338 352 355 354 352
321 324 323 317 316 316 320 321 321 321 320 320 319 319 320 321 323 324 325 327 328 326 326 328 337 330 330 329 330 331 332 332 330 331 333 339 345 343 341 336 339 353 352 352 351
323 323 323 322 323 319 317 319 321 321 321 321 320 320 320 321 322 324 324 326 328 329 328 327 335 332 330 329 329 329 332 337 336 331 330 332 343 338 338 335 334 351 352 351 351
317 317 320 321 320 322 321 321 321 321 322 322 322 321 321 322 322 322 325 327 332 335 340 336 333 338 333 329 329 331 329 330 330 332 330 335 341 339 340 341 343 355 350 349 348

GFSSW_925_thetae_051.txt.gz
Theta_e
307 306 306 307 308 308 309 309 309 310 310 311 311 311 312 313 315 324 326 325 327 325 322 326 340 341 339 338 337 336 341 344 344 345 344 339 342 343 340 343 345 350 352 351 349
307 306 306 306 308 308 309 309 309 310 310 311 311 311 312 312 316 326 327 325 325 322 322 326 327 326 325 329 333 338 337 338 339 340 342 342 341 341 337 340 343 356 353 351 351
306 306 307 307 307 308 309 309 310 310 311 311 311 312 313 312 331 328 328 326 322 322 323 324 324 324 326 326 335 340 339 338 339 339 341 342 342 341 341 340 341 354 354 353 352
305 306 307 307 307 308 309 309 310 310 311 311 312 313 313 320 336 328 327 323 321 323 324 323 324 325 327 328 331 341 339 339 339 336 345 344 343 343 342 340 339 351 352 353 353
304 306 306 306 307 308 309 309 310 310 311 312 314 315 314 330 331 326 321 319 318 318 320 324 326 328 327 328 331 335 341 340 338 333 335 344 344 344 344 342 340 351 352 352 351
303 304 306 306 307 307 309 309 310 311 311 313 315 315 325 326 331 329 324 321 321 321 324 327 327 327 327 329 330 333 336 336 335 335 334 335 338 340 342 340 343 346 351 350 351
302 303 305 305 306 307 309 310 311 311 312 314 317 315 324 322 325 329 326 324 324 324 325 327 328 327 326 327 330 331 333 335 337 336 336 333 337 339 342 341 340 342 350 350 351
301 303 304 304 305 306 308 310 311 312 312 314 318 317 324 321 324 324 327 327 326 325 326 327 328 327 328 326 328 330 333 336 337 336 335 335 336 340 338 337 338 340 349 352 347
301 303 304 304 305 307 309 311 312 313 313 315 320 322 329 325 324 324 323 326 327 326 326 327 327 325 324 324 326 335 337 338 338 337 336 337 333 339 337 337 339 341 350 355 350
301 303 304 304 305 307 310 312 314 316 320 321 325 325 325 325 325 324 322 324 326 326 326 326 324 321 319 321 325 335 338 338 338 337 335 336 333 338 337 339 341 348 351 355 352
301 302 303 304 305 306 309 312 322 327 322 323 326 323 324 325 324 325 325 326 326 325 323 326 323 320 320 322 326 329 336 339 337 336 336 334 331 337 335 338 341 343 341 358 355
301 302 303 305 306 307 307 318 321 320 318 321 322 323 325 325 324 324 324 322 325 323 323 323 322 324 325 325 327 328 338 338 338 335 335 333 328 334 335 334 336 347 365 363 357
301 302 303 305 306 310 312 319 320 320 319 320 320 320 322 323 322 322 322 323 324 324 323 322 324 327 327 325 326 325 334 338 338 335 335 332 330 329 337 345 344 349 363 363 359
301 302 302 305 310 312 318 320 319 320 319 321 320 321 321 321 320 323 324 324 324 323 324 323 324 326 326 326 325 322 326 328 328 328 329 330 328 336 345 343 341 346 366 365 362
300 302 303 305 305 310 317 317 319 319 324 323 322 324 322 321 322 322 324 322 324 324 325 324 325 323 325 325 325 323 325 327 329 326 328 327 326 340 342 345 341 346 366 367 365
300 302 303 314 313 314 317 316 318 321 325 323 323 322 320 320 322 323 322 322 326 324 324 325 325 325 324 325 325 325 326 326 328 325 325 329 330 333 342 343 341 345 368 367 364
301 303 306 308 313 314 316 316 320 322 322 322 321 321 320 320 320 322 322 321 322 325 326 326 326 325 327 325 324 323 323 325 328 328 330 331 335 335 341 340 340 347 361 361 360
302 306 307 307 307 313 316 318 322 322 321 322 322 321 321 321 321 322 323 322 323 323 323 326 326 326 325 324 323 324 323 324 331 335 335 332 335 345 341 347 356 358 359 361 360
304 312 314 312 308 312 316 319 322 323 323 322 323 323 323 322 321 322 321 323 325 323 323 325 326 328 326 324 323 322 328 324 324 324 329 335 337 337 345 351 357 361 361 361 361
308 313 314 319 316 313 317 319 320 320 321 322 323 324 323 323 323 322 322 322 323 324 323 323 325 326 328 324 324 323 326 329 325 328 333 338 340 341 348 343 344 354 352 359 356
310 316 319 317 315 316 316 318 319 320 321 322 322 322 322 323 323 323 324 324 323 324 322 323 324 324 328 327 325 325 324 328 330 329 328 337 340 341 345 340 340 338 343 357 355
318 321 319 315 316 316 316 319 318 320 321 322 321 321 321 322 324 325 326 326 324 323 323 323 327 326 327 327 327 325 328 326 330 328 335 332 339 338 339 337 347 338 335 345 352
319 321 318 315 313 313 315 317 319 321 322 321 321 321 321 321 324 327 328 327 325 324 327 328 327 324 324 324 330 332 327 329 330 331 331 335 340 340 342 341 341 335 339 345 352
319 328 320 318 315 316 316 320 319 320 322 321 321 320 320 320 321 326 325 326 325 326 330 326 330 331 323 328 332 333 332 330 330 335 332 336 346 345 339 338 341 347 352 347 352
319 326 324 320 316 315 316 319 321 322 321 321 321 320 319 323 324 324 324 324 326 331 326 325 329 333 328 328 328 328 330 332 331 334 334 338 342 342 339 342 343 344 347 351 352
321 322 319 320 325 323 318 320 320 321 322 321 320 320 320 321 321 323 322 325 330 335 337 328 328 331 329 328 328 329 329 334 334 333 331 334 343 339 339 338 338 340 350 353 350
318 316 321 320 320 322 321 322 320 321 322 322 322 322 322 323 326 325 323 323 326 331 334 341 332 335 332 332 331 330 330 333 336 334 334 333 337 337 337 334 334 350 349 350 349

GFSSW_925_thetae_054.txt.gz
Theta_e
307 306 306 307 308 308 309 309 310 310 310 310 311 311 312 314 315 317 324 321 325 325 324 326 338 337 339 341 337 337 340 346 344 345 344 339 340 341 338 352 352 352 350 348 349
306 307 307 307 307 308 309 309 310 310 310 310 311 312 313 314 314 324 321 323 325 325 322 324 325 329 332 327 329 334 334 336 339 342 341 340 340 341 335 343 357 354 349 349 350
305 306 307 307 307 307 308 309 310 310 310 311 311 313 314 313 329 329 325 322 326 322 322 324 324 323 322 323 326 336 334 336 337 340 340 339 340 340 337 338 347 354 351 350 349
305 305 306 306 306 307 309 309 310 310 310 311 312 314 315 321 332 329 329 327 324 322 323 323 321 322 325 326 326 334 334 337 336 341 338 340 340 342 340 340 350 352 351 350 351
304 305 306 306 306 308 308 309 310 310 311 311 312 316 315 323 329 328 323 323 320 320 320 321 322 324 326 326 325 334 332 337 337 340 340 342 343 343 342 341 352 352 352 351 347
303 304 305 306 306 308 308 310 310 311 311 311 312 316 322 319 324 329 323 319 318 318 321 320 324 325 325 325 326 328 328 328 334 341 342 343 343 342 342 344 353 354 354 346 347
302 303 304 305 306 307 309 310 311 311 311 311 312 317 323 315 322 328 324 325 323 322 321 324 325 323 325 325 326 325 331 332 334 335 339 335 342 342 340 339 353 354 353 346 346
302 303 304 304 305 307 309 311 312 312 312 312 314 318 316 321 323 323 325 325 326 323 322 324 324 325 326 324 322 330 332 333 334 335 332 332 332 336 337 339 344 353 353 349 346
302 303 303 304 305 306 308 311 312 313 313 314 318 322 325 325 324 324 323 325 326 326 326 325 325 323 322 321 319 324 334 335 334 335 335 334 334 334 336 336 340 353 355 351 345
301 302 303 304 305 306 309 311 314 321 319 321 323 317 318 322 324 325 324 323 321 323 323 324 318 319 316 316 319 323 336 334 335 335 335 334 333 332 335 334 340 355 355 351 345
301 302 303 304 305 305 308 311 315 317 320 320 326 320 320 323 324 324 324 322 322 323 322 321 320 320 320 317 319 323 330 335 335 335 334 332 332 331 335 337 340 355 354 352 347
300 301 303 304 305 306 308 311 319 317 315 316 318 320 321 323 322 321 324 321 322 322 321 319 319 321 322 321 321 322 326 334 335 336 333 331 332 338 335 336 338 355 355 354 350
300 301 302 304 306 311 310 315 316 318 315 316 317 317 318 319 320 320 320 319 321 322 321 319 320 323 324 323 323 322 329 334 335 333 333 332 332 343 344 348 342 348 356 355 352
300 300 302 304 309 308 312 315 315 316 314 318 318 317 318 317 318 321 321 320 321 321 321 320 321 322 322 323 321 322 328 335 336 331 325 329 330 340 343 342 365 364 361 358 354
300 300 302 303 309 309 314 316 316 317 314 321 320 321 316 317 320 321 322 320 321 321 321 321 323 322 323 323 323 322 323 322 324 325 323 324 322 337 340 340 344 364 365 361 355
299 300 302 306 307 311 311 315 316 316 321 323 321 318 318 317 319 320 320 319 320 321 321 321 322 323 322 324 323 323 323 320 321 320 323 323 329 330 341 340 339 359 366 364 359
300 301 302 304 307 313 310 312 314 318 319 318 320 318 316 317 318 319 319 319 317 321 320 321 322 322 324 324 321 320 316 318 321 323 324 325 334 337 332 340 338 367 368 365 362
301 302 306 306 306 307 312 311 318 319 317 318 318 318 319 317 317 318 319 317 317 320 320 322 322 323 325 322 321 320 316 318 323 328 329 326 330 342 343 338 352 359 355 357 356
302 306 310 308 311 307 308 313 314 318 320 319 318 320 320 318 319 318 316 317 318 318 319 319 321 325 325 324 321 321 322 318 319 321 323 326 337 352 353 361 351 346 345 351 359
309 309 310 308 311 311 309 313 314 317 318 317 319 320 319 319 320 320 318 318 321 320 318 319 320 320 323 324 321 320 320 321 318 323 324 329 335 351 353 356 351 346 344 347 352
312 309 317 313 311 308 311 312 315 316 317 318 318 319 319 319 321 321 322 322 321 320 317 317 318 322 325 323 320 320 320 321 320 321 323 329 333 337 350 348 343 344 349 350 351
311 316 316 317 310 308 311 314 316 316 317 317 317 317 319 318 320 321 324 325 322 320 318 317 317 319 321 323 326 321 320 317 321 323 327 327 339 337 340 342 340 342 344 340 346
308 313 317 316 310 309 309 314 315 315 316 318 317 318 318 318 318 320 323 322 322 322 322 321 319 320 321 319 321 329 328 324 321 321 326 329 340 338 341 338 334 337 339 339 336
310 322 313 308 307 311 313 312 315 318 316 316 318 318 316 316 317 318 320 323 323 330 340 323 321 318 320 320 326 330 328 327 324 327 329 328 346 345 338 339 335 336 339 337 340
310 316 317 318 312 311 311 312 314 317 318 318 318 319 317 318 316 319 320 319 320 330 329 319 320 326 325 325 326 327 327 327 328 327 329 334 346 344 343 336 333 331 334 340 346
313 316 315 314 316 314 310 310 315 318 319 319 317 318 317 318 317 317 321 320 322 323 326 326 324 327 325 326 327 328 328 329 329 332 330 336 339 338 336 335 337 340 344 348 357
315 315 314 317 314 316 317 319 319 319 319 319 320 319 324 325 324 323 321 318 319 324 323 332 332 329 324 328 327 324 327 330 333 332 331 335 335 336 337 337 337 337 342 349 357

GFSSW_925_thetae_060.txt.gz
Theta_e
306 307 307 307 306 307 308 309 309 309 309 310 311 311 312 314 315 316 319 320 321 324 327 336 346 343 346 343 344 338 345 342 342 342 340 337 339 348 346 351 350 350 351 348 350
305 306 306 306 306 307 308 308 309 309 309 310 311 311 312 315 316 319 321 320 322 323 327 335 341 336 337 337 337 335 336 336 336 338 340 338 337 342 351 353 353 353 351 350 351
304 305 306 306 306 306 307 308 308 309 310 310 311 311 313 315 322 326 327 321 322 324 324 324 328 331 329 324 324 331 331 330 332 336 337 337 337 337 349 354 352 355 354 352 351
303 304 305 306 305 306 307 308 309 310 310 310 311 311 313 320 330 327 327 321 324 324 322 323 320 318 319 324 323 327 327 329 328 332 337 338 335 337 347 345 347 352 353 352 352
302 303 304 305 305 306 307 309 309 310 310 310 311 311 316 315 314 324 326 322 323 323 323 320 318 319 324 324 323 323 325 324 324 326 331 337 338 338 336 341 348 352 355 354 352
301 302 303 304 305 306 308 309 310 310 311 311 311 311 317 313 316 323 325 323 323 322 317 317 317 320 323 323 323 324 323 323 329 338 338 338 341 339 339 349 350 354 357 355 353
301 302 303 303 304 305 307 309 310 311 311 312 312 313 318 312 317 318 324 321 320 318 316 318 319 322 322 323 322 322 326 328 329 334 340 337 341 340 344 350 351 352 351 353 351
300 301 302 303 304 305 307 310 311 311 312 313 312 317 311 316 318 322 323 321 321 321 319 319 321 320 321 321 318 323 326 327 327 333 335 335 335 335 349 351 352 351 351 350 346
300 300 302 302 303 305 308 310 311 314 319 314 317 319 316 318 318 322 324 322 322 322 322 320 320 318 317 317 315 316 323 327 330 330 333 334 331 330 348 352 353 352 352 349 346
300 300 301 302 303 305 308 310 314 321 320 320 323 315 314 318 321 322 321 322 321 318 319 320 314 317 314 315 316 320 321 322 325 326 330 333 331 329 339 352 354 353 353 350 347
300 300 301 302 303 305 308 313 311 313 314 317 318 313 316 320 322 321 321 318 318 317 316 317 318 319 319 317 318 319 319 320 321 322 326 328 328 328 331 342 352 353 353 350 348
299 300 301 302 303 305 309 311 310 310 311 312 312 315 319 320 318 318 321 319 319 318 319 317 317 318 319 319 319 319 319 318 319 324 328 330 330 341 334 337 340 351 352 349 346
299 299 301 302 303 309 307 310 310 310 311 313 313 314 315 317 317 317 318 318 319 319 318 318 318 319 320 320 320 318 319 319 320 325 328 326 324 331 340 341 348 351 349 347 347
298 299 300 301 306 304 310 310 309 311 309 313 314 315 314 314 317 318 320 319 318 317 317 317 318 320 320 320 318 319 317 320 322 330 326 324 324 324 338 355 358 356 353 350 349
298 298 299 300 302 306 310 308 312 310 310 314 315 316 313 314 316 318 317 318 318 318 316 317 320 320 320 320 318 318 319 320 326 323 321 321 322 322 340 357 361 357 344 342 345
298 299 300 303 303 304 306 308 312 312 312 314 318 316 315 315 316 316 317 317 316 317 317 316 318 319 319 320 319 319 318 314 315 315 318 319 325 325 340 354 355 342 337 337 338
298 299 302 302 303 306 305 309 312 313 313 316 316 316 314 315 315 317 316 315 316 316 315 316 318 319 320 321 319 315 313 315 317 316 319 321 327 327 343 342 352 342 338 340 337
299 301 306 305 304 305 307 310 314 312 313 314 316 315 317 315 315 316 315 315 315 314 313 314 316 319 320 320 320 318 314 315 317 317 319 320 325 335 352 350 345 338 340 341 336
300 306 309 308 306 305 306 311 313 312 316 315 315 316 316 316 316 315 314 313 314 314 315 316 317 318 320 320 319 319 318 315 314 314 317 319 349 348 350 343 338 337 339 339 334
303 308 311 309 308 307 308 310 310 311 314 313 316 316 317 316 316 317 315 318 317 314 313 315 316 317 320 320 318 319 316 318 314 320 321 320 340 345 356 348 341 339 340 340 357
307 308 311 311 307 305 309 308 311 312 313 315 316 316 316 317 317 317 320 321 320 320 313 312 314 317 321 320 319 316 317 314 314 315 320 322 326 328 354 350 342 340 339 339 347
302 310 311 307 304 301 308 309 312 313 314 314 315 315 316 316 316 317 320 321 318 321 316 314 312 314 316 318 319 318 317 315 317 319 320 321 325 330 340 348 344 342 342 339 344
301 305 310 308 308 307 307 310 311 311 311 312 315 314 314 315 316 316 318 320 318 326 327 316 314 316 316 315 318 324 319 315 313 316 324 325 324 335 335 343 344 343 340 343 347
304 318 311 304 303 308 311 311 312 312 311 310 313 314 315 315 315 316 318 319 318 323 329 320 312 314 315 316 318 327 325 321 320 322 321 323 325 328 339 341 343 341 337 335 337
305 309 314 313 311 310 310 311 312 313 312 312 313 313 314 313 315 316 321 319 318 322 323 316 321 322 320 318 323 324 325 325 324 322 326 325 326 327 332 342 343 336 333 334 334
306 313 311 312 312 314 312 314 314 314 313 315 314 314 312 313 312 316 322 320 320 319 320 321 325 324 323 322 325 326 325 325 325 323 328 330 332 328 331 333 336 337 332 332 333
306 310 309 311 313 313 313 314 316 315 315 314 319 319 317 319 318 320 318 318 319 321 319 321 321 326 327 327 324 323 321 325 328 328 331 333 329 329 334 338 336 334 332 333 332

GFSSW_925_thetae_063.txt.gz
Theta_e
305 306 307 307 306 307 308 309 309 309 310 310 311 311 312 313 314 317 320 319 323 323 329 342 345 349 352 348 347 344 347 338 335 338 336 341 346 348 348 351 349 349 352 350 353
304 305 306 307 306 306 308 309 309 310 310 310 311 311 312 313 317 320 320 319 322 324 339 343 345 344 346 341 342 343 342 334 334 334 335 338 341 348 352 353 353 353 352 352 353
303 304 305 306 305 306 308 309 309 309 310 311 311 311 312 314 324 328 327 320 322 324 327 334 336 340 334 330 333 338 334 331 330 332 332 336 339 345 349 355 352 356 355 354 354
302 303 304 305 305 306 307 308 309 309 310 310 311 312 312 318 332 325 326 320 324 325 328 324 332 322 323 325 326 331 331 331 330 328 330 337 339 341 345 345 350 352 352 354 355
301 303 303 304 304 306 307 308 309 310 310 311 311 312 313 316 317 321 323 323 327 326 323 322 321 322 323 326 326 327 327 327 327 332 334 337 339 340 342 343 348 353 353 354 354
302 302 303 303 304 306 307 308 309 310 310 312 312 311 315 315 315 324 323 324 326 323 322 320 320 321 325 326 326 326 326 326 330 339 340 339 341 340 342 350 355 355 354 353 354
301 302 302 303 303 305 307 308 309 310 311 312 312 312 317 316 316 318 324 323 322 320 318 318 318 322 324 325 324 324 327 329 333 336 342 341 343 343 347 351 357 357 355 355 355
300 301 302 302 303 305 307 308 309 311 313 318 312 315 315 315 316 318 321 322 319 318 317 319 321 323 323 323 323 325 328 331 331 333 339 340 340 338 349 352 357 358 358 357 357
300 301 301 302 303 305 307 309 310 315 317 314 317 317 316 317 316 319 321 322 320 320 320 319 321 321 321 323 325 324 327 329 330 329 335 334 330 334 348 352 355 356 357 357 355
299 300 301 302 303 304 307 310 315 320 320 321 322 319 317 318 320 321 320 321 322 320 321 321 321 323 322 324 330 325 324 324 326 328 326 327 329 331 340 351 354 355 356 355 355
299 299 301 302 303 304 307 314 316 317 314 321 320 316 317 320 320 321 319 320 319 321 321 320 323 325 325 324 323 323 324 325 326 324 325 330 332 333 337 348 355 355 357 355 354
298 299 301 301 303 305 308 313 310 309 315 315 314 315 317 319 320 320 320 321 322 322 321 323 324 324 321 322 322 323 324 325 325 327 327 331 333 344 347 347 346 356 358 356 353
298 298 300 301 303 307 306 310 307 308 315 317 316 317 317 318 319 321 320 321 322 322 322 322 323 321 321 323 323 324 324 325 325 326 330 329 330 339 350 354 350 354 356 355 354
298 298 299 301 304 302 309 309 306 309 317 317 316 317 316 318 319 319 321 322 320 322 321 322 321 321 322 323 323 325 323 323 323 327 327 328 326 336 359 361 358 356 355 355 354
298 298 298 299 301 305 309 305 308 309 315 316 316 316 315 317 317 319 318 321 322 320 321 322 322 322 323 323 322 324 321 323 326 330 328 327 327 332 346 360 361 357 356 354 354
298 298 299 302 303 303 305 306 310 318 315 315 318 317 316 317 317 317 319 320 321 321 320 321 320 321 322 322 322 322 322 322 324 325 326 328 331 330 344 353 360 357 355 354 354
298 299 300 301 305 304 304 311 318 317 315 316 318 318 317 317 317 318 319 321 322 323 323 322 321 321 321 321 321 321 324 326 325 325 325 328 332 333 343 346 349 357 351 343 342
299 300 303 305 305 305 306 316 320 317 316 316 318 318 319 318 317 317 319 320 318 320 322 322 321 320 321 322 323 324 326 325 326 324 324 327 330 328 348 354 356 350 352 345 342
299 303 305 308 307 305 312 318 318 318 317 316 317 318 320 319 318 317 319 320 320 320 322 322 321 320 321 322 324 324 326 322 326 324 326 326 335 344 351 354 352 354 352 348 344
300 306 308 310 308 306 313 317 316 312 315 315 318 319 320 320 320 321 319 320 319 318 320 322 321 321 322 322 320 325 323 326 326 331 329 328 334 333 349 354 356 353 351 348 344
304 310 310 309 305 310 312 315 314 313 315 315 318 316 318 319 319 320 321 322 323 320 318 320 323 322 323 325 325 323 324 323 325 327 327 327 329 339 347 354 356 354 351 346 342
303 309 310 306 309 308 313 314 312 315 314 315 316 316 315 316 320 320 322 323 321 322 322 320 323 324 322 321 321 324 326 329 326 332 330 331 326 329 336 344 354 353 350 344 341
305 307 310 307 311 312 311 312 313 313 314 314 316 316 317 319 321 319 320 320 320 328 328 321 324 324 325 322 323 326 323 325 328 331 337 332 328 337 340 342 352 352 349 345 344
307 321 314 310 308 311 314 315 315 313 313 313 313 315 317 319 318 320 320 320 320 324 326 325 324 328 324 325 325 330 326 324 330 333 334 331 334 336 337 344 345 353 350 346 347
307 313 315 316 315 314 314 315 316 316 315 314 315 314 317 321 319 319 323 322 320 323 327 327 333 328 326 323 325 327 329 328 330 332 332 334 334 337 338 339 343 347 351 345 344
310 316 315 315 316 317 315 319 317 318 317 318 317 317 316 320 321 321 324 325 324 324 327 328 337 333 331 327 330 328 327 328 328 328 332 335 335 337 338 338 340 342 347 345 344
301 309 312 315 317 317 317 317 317 317 319 317 316 319 316 318 318 322 323 324 324 326 328 332 333 337 329 333 329 329 327 327 332 335 338 336 340 343 345 345 341 340 340 342 343

GFSSW_925_thetae_066.txt.gz
Theta_e
307 307 307 307 306 308 309 309 309 310 310 311 311 311 312 312 313 322 324 322 330 326 341 343 347 350 351 346 347 345 343 337 336 336 337 340 344 346 348 351 352 350 352 348 353
306 306 307 307 307 307 308 309 309 310 310 310 311 312 312 312 322 324 323 318 324 324 341 343 345 348 346 340 340 343 338 335 334 334 335 336 340 344 350 350 354 353 354 351 354
304 305 305 306 307 308 308 308 309 310 310 311 311 311 312 313 329 331 326 320 324 329 338 336 337 341 336 332 335 337 336 333 333 333 333 336 337 341 348 351 350 354 357 353 353
303 304 304 305 306 307 308 308 309 310 310 311 311 311 312 323 330 331 325 321 325 334 336 330 335 333 331 333 331 334 334 332 332 332 337 338 339 341 345 346 348 349 354 353 353
302 303 303 303 304 306 308 308 309 309 310 311 312 312 316 321 322 322 322 323 329 330 330 328 330 330 332 332 331 332 333 332 331 333 340 339 340 340 342 342 345 350 352 353 351
302 302 303 303 304 306 307 308 309 310 311 312 312 312 321 319 323 329 335 336 333 330 326 327 327 326 328 330 331 332 331 332 333 336 342 341 342 342 346 345 349 352 353 352 351
301 301 302 302 303 305 307 308 309 310 311 312 315 312 319 320 323 331 334 334 332 327 325 323 322 324 328 330 330 329 331 333 335 335 336 340 341 343 343 348 352 353 352 353 354
300 301 301 302 303 305 307 308 309 311 313 317 315 321 319 317 319 324 326 326 324 325 322 323 324 326 327 328 328 330 333 333 334 334 335 334 334 335 345 350 354 354 353 354 356
299 300 301 302 303 304 307 308 310 313 317 314 323 321 320 317 319 320 322 323 323 323 323 322 324 326 327 327 331 332 332 333 331 331 333 332 331 334 344 348 354 356 356 356 358
299 300 301 301 302 304 307 310 313 319 322 322 324 324 321 321 322 323 323 324 324 325 324 324 326 326 326 327 328 331 332 330 330 331 331 332 331 335 339 346 352 355 359 358 358
299 300 301 301 302 304 308 317 321 324 319 322 324 322 320 321 322 323 323 324 325 325 324 326 326 326 326 327 328 328 329 329 329 329 329 332 331 336 341 343 351 355 358 358 357
299 299 300 301 302 305 309 318 313 311 318 320 320 321 321 321 322 323 322 325 324 324 324 325 325 326 326 326 326 327 327 328 327 328 329 331 333 342 349 347 346 353 356 357 357
299 298 300 302 303 309 310 315 310 311 320 320 321 320 321 320 322 323 324 325 325 324 324 325 325 325 325 325 326 327 327 327 326 328 329 331 331 340 346 353 349 347 352 354 356
299 298 300 301 308 307 314 311 308 311 320 320 319 321 320 321 321 323 323 325 325 324 325 325 325 324 324 324 325 325 326 326 326 327 329 330 330 337 345 355 356 351 351 354 356
299 299 299 299 305 310 310 308 310 314 318 320 320 319 321 321 322 322 322 324 325 325 325 326 324 323 322 323 325 325 326 326 327 328 330 330 329 334 350 347 355 357 355 354 355
300 299 299 308 307 308 308 308 313 319 317 318 320 320 320 321 321 322 322 323 324 325 325 325 324 325 324 324 325 326 325 327 329 328 330 330 330 330 333 335 346 358 356 354 354
300 300 299 304 308 307 307 313 319 319 318 318 319 321 321 322 321 321 322 323 323 325 326 325 325 324 324 324 325 325 327 328 329 328 328 332 329 330 330 340 348 352 357 355 355
300 300 307 306 309 308 309 317 320 319 319 319 319 320 321 322 321 322 322 323 324 325 325 327 327 325 325 324 325 326 327 328 330 329 328 332 327 329 331 340 351 350 354 352 350
300 306 309 311 310 310 312 318 320 319 318 317 318 319 321 322 322 321 322 323 324 324 325 326 326 324 324 324 325 326 327 327 329 328 327 326 328 331 330 338 348 353 354 354 347
303 308 311 312 311 310 312 316 319 318 318 319 318 320 321 323 323 323 323 323 323 323 325 325 325 324 324 325 325 326 328 328 328 329 330 328 330 330 335 338 351 353 357 358 352
307 310 314 311 310 311 312 315 316 318 318 318 320 320 321 322 322 324 324 326 325 322 324 324 325 325 324 325 325 326 326 327 327 330 330 329 329 330 330 337 349 352 352 357 355
307 310 312 309 312 311 311 314 312 316 317 317 318 318 319 319 321 324 325 327 326 327 323 324 325 325 325 325 326 327 327 328 328 331 329 330 329 329 329 337 348 350 352 354 350
307 310 313 311 313 312 311 313 314 315 316 317 317 317 318 319 321 323 323 323 325 327 328 326 324 326 326 325 325 325 325 327 328 333 332 331 329 333 340 342 346 353 355 353 346
309 316 318 313 315 316 314 314 313 315 315 316 317 317 318 320 320 323 322 323 323 329 325 325 329 329 326 327 326 327 326 326 329 329 329 331 330 341 343 343 345 348 354 354 349
311 316 320 320 316 314 316 318 319 319 318 317 318 317 317 319 320 321 322 322 323 329 333 333 335 331 328 328 326 327 326 326 328 329 332 333 332 345 345 345 345 346 352 354 353
316 319 320 321 320 320 317 322 322 321 321 320 319 319 319 319 321 321 321 324 324 325 328 332 334 334 332 328 329 328 329 329 330 331 333 335 339 344 345 345 346 346 345 348 353
306 312 317 320 322 321 321 321 321 321 322 320 320 320 321 321 320 321 324 328 328 328 327 329 332 332 331 330 330 329 330 330 332 334 337 334 347 346 348 348 353 352 350 347 344

GFSSW_925_thetae_069.txt.gz
Theta_e
306 307 307 307 307 308 309 309 309 310 310 310 311 312 312 312 313 325 326 326 331 326 342 347 348 348 349 350 345 345 350 338 336 337 338 337 341 344 345 351 350 348 349 350 350
305 305 305 306 306 308 308 309 309 310 310 311 311 312 312 313 320 326 325 323 320 326 344 343 346 346 349 342 340 341 341 336 336 336 336 336 336 341 347 349 353 352 349 350 350
303 304 304 305 306 307 308 308 309 309 310 311 312 312 312 312 329 332 327 326 319 326 339 341 336 343 342 337 337 338 339 336 336 335 335 337 338 338 344 346 351 354 352 352 351
303 303 303 304 306 307 308 308 309 310 310 311 312 312 313 321 331 339 325 325 321 332 339 339 335 340 339 337 336 336 337 336 336 336 336 339 338 339 340 343 346 350 352 352 353
302 302 303 304 305 307 307 308 309 309 310 311 312 312 317 328 325 328 324 322 332 341 336 337 336 337 337 336 336 336 337 336 336 336 339 339 339 339 341 342 345 350 352 352 354
302 302 302 303 305 306 307 308 309 310 311 311 312 313 326 323 327 331 337 337 333 332 332 331 332 333 332 333 334 335 335 335 335 336 339 339 338 340 345 344 348 352 352 352 353
301 302 302 303 304 305 307 308 309 310 311 312 315 316 322 322 323 333 336 334 333 332 330 329 329 329 331 333 333 333 334 336 335 336 337 336 336 343 343 346 351 352 352 353 353
301 301 302 302 304 305 307 308 309 311 312 316 317 323 324 321 322 329 335 334 333 330 328 326 326 328 329 331 332 332 332 334 335 336 335 335 335 337 341 348 352 352 352 353 355
300 301 301 302 303 304 307 310 310 312 316 318 324 327 323 319 320 323 329 331 330 327 327 326 326 327 328 328 329 331 333 332 334 335 333 334 335 335 338 345 351 353 352 354 357
300 301 301 302 303 304 307 311 314 314 324 325 325 324 324 323 323 322 322 325 327 327 326 327 326 327 328 328 328 329 333 334 333 333 333 333 334 334 337 340 347 353 354 354 356
300 300 301 302 302 304 308 317 323 328 323 323 326 324 324 323 323 324 324 324 326 326 326 327 327 327 328 329 329 329 330 332 333 332 331 331 334 334 337 338 342 353 356 355 355
300 300 301 302 303 306 312 319 317 315 319 322 323 323 325 324 324 325 325 326 326 326 327 326 326 327 327 328 328 328 328 329 329 330 330 331 333 335 336 341 342 350 353 354 355
300 300 301 303 305 313 312 317 315 315 320 320 322 323 323 323 323 324 326 326 327 327 327 326 327 327 327 327 327 327 328 329 329 329 330 331 334 334 335 345 346 344 349 352 354
300 300 301 302 309 310 316 316 313 316 320 320 322 323 324 324 323 324 325 326 327 328 328 327 328 326 326 326 326 327 328 328 327 328 328 330 332 336 335 340 346 346 346 351 354
300 300 301 302 309 313 312 311 313 318 320 322 322 324 325 323 324 325 325 326 327 328 328 328 327 327 326 325 325 326 327 328 328 328 329 329 333 333 336 337 339 342 349 350 354
300 300 300 308 311 311 311 311 315 320 320 321 322 322 323 324 325 325 326 326 327 327 329 328 329 328 327 327 325 326 327 328 328 329 329 330 332 334 335 337 336 346 350 352 354
301 301 301 306 311 310 310 313 319 320 321 322 321 322 322 323 325 326 325 325 325 326 328 328 328 328 327 326 326 326 327 329 330 331 329 331 332 333 332 332 336 339 353 355 355
301 302 309 310 311 311 312 315 321 322 322 322 321 322 322 323 324 325 326 326 326 327 327 328 329 328 328 327 327 327 327 328 332 332 332 333 332 331 331 331 336 347 350 356 354
302 308 310 313 313 312 315 316 320 322 323 321 322 320 322 322 324 324 324 325 327 328 328 328 328 329 329 328 327 327 329 328 329 331 331 332 331 331 331 331 332 347 352 355 354
305 310 313 315 315 314 314 316 319 321 321 321 321 321 322 322 323 324 324 324 324 325 327 327 329 328 328 327 327 327 328 328 328 332 333 331 331 331 332 332 337 347 350 355 351
309 312 318 316 316 315 313 316 318 319 320 320 321 321 322 323 324 324 325 325 325 325 326 326 328 328 327 326 326 326 327 328 329 330 331 331 331 335 332 333 337 348 350 357 352
309 313 315 313 317 315 314 315 315 318 319 319 320 320 322 322 323 324 325 326 327 326 325 326 326 328 327 327 327 328 328 328 329 331 330 332 331 330 331 337 341 347 351 356 355
311 312 316 313 318 318 317 315 316 317 318 319 319 320 320 320 322 323 326 326 327 328 328 326 326 327 328 327 327 327 328 329 329 330 333 333 334 335 336 340 347 349 353 356 352
311 315 319 318 317 318 319 317 316 316 316 317 318 319 320 320 322 323 325 325 325 329 336 334 328 327 326 328 328 328 326 327 328 332 331 330 330 338 344 346 348 350 357 356 350
314 316 323 324 319 318 317 319 320 320 319 320 319 318 319 321 321 322 323 324 324 328 329 330 331 329 329 327 329 328 327 326 327 329 330 334 346 347 349 348 347 350 355 356 354
316 320 322 322 324 324 319 321 323 324 323 323 322 320 321 321 321 322 322 324 326 326 327 331 334 335 331 327 328 327 327 328 328 328 328 328 340 336 346 348 348 348 347 351 355
309 309 317 320 324 324 322 320 322 322 324 323 323 322 322 323 322 321 323 325 327 328 329 330 333 335 331 328 328 328 327 327 328 328 329 340 349 346 348 353 352 351 352 352 348

GFSSW_925_thetae_075.txt.gz
Theta_e
304 305 306 307 307 308 308 308 309 310 310 311 311 311 312 312 314 318 329 322 326 326 327 333 345 347 349 348 347 347 351 341 335 334 333 338 341 345 348 349 348 351 352 352 351
303 305 306 306 307 307 307 308 309 310 310 311 312 312 312 312 315 321 320 322 326 329 327 337 342 344 344 343 341 340 336 338 335 332 332 332 336 345 352 348 347 354 352 351 351
302 303 304 306 306 306 307 308 309 309 310 310 311 312 313 313 326 331 328 325 325 324 322 329 339 341 341 336 339 339 334 334 335 334 333 332 335 345 350 350 347 354 352 350 351
302 302 303 303 305 306 307 308 309 310 310 310 311 312 313 318 324 334 326 325 326 325 327 328 335 340 340 337 336 337 333 334 333 333 333 336 335 340 343 347 348 351 350 350 351
302 303 303 303 304 305 305 307 309 310 310 310 311 311 314 321 324 326 327 326 325 325 330 332 338 339 340 336 334 331 332 331 332 332 333 334 336 339 344 348 349 350 350 351 350
302 302 303 304 304 305 306 307 309 310 311 311 311 312 325 321 321 333 325 326 330 332 332 332 339 337 338 333 331 329 329 330 330 331 333 334 336 341 342 351 352 351 351 350 351
302 302 302 303 304 304 306 308 310 311 311 311 311 314 323 319 320 335 335 333 331 332 330 333 335 332 332 330 330 328 327 328 329 330 331 333 334 340 341 350 352 352 351 352 351
301 301 302 303 305 305 306 309 312 312 311 311 312 321 323 318 320 321 330 337 334 331 330 331 330 327 325 325 325 325 324 325 328 329 330 332 332 338 340 342 353 352 352 353 352
301 302 302 303 304 305 306 310 314 312 312 313 316 323 322 324 322 323 323 334 335 332 332 332 329 325 324 323 322 323 323 324 326 328 330 332 332 334 338 345 348 351 351 352 353
301 302 302 303 305 305 307 312 316 317 320 320 322 323 323 322 325 324 323 327 333 332 331 330 324 324 321 321 322 323 324 324 326 329 331 332 331 330 332 344 348 349 351 353 356
302 302 302 303 304 305 307 313 318 322 322 323 324 321 321 323 324 324 323 325 327 332 330 328 323 322 322 322 324 325 325 326 328 328 327 327 332 331 330 333 341 349 350 354 357
303 303 303 304 305 308 311 316 315 318 315 316 317 318 320 321 323 324 324 320 322 325 326 325 324 324 326 326 325 325 325 327 327 328 327 326 327 327 329 329 334 350 350 353 358
308 308 304 303 306 313 311 313 315 315 313 316 316 318 318 319 320 324 322 322 321 322 323 323 324 326 326 326 325 323 325 326 326 325 325 326 327 328 328 329 334 350 350 351 358
311 311 312 306 310 307 312 314 314 314 314 318 318 319 318 319 318 321 324 323 323 322 323 323 325 326 327 326 325 323 326 327 326 324 324 326 324 326 329 327 335 336 352 350 361
313 311 309 307 305 311 312 314 314 314 319 320 320 322 320 318 319 320 322 323 322 323 323 324 326 327 327 327 325 324 325 324 325 322 326 326 324 325 329 329 335 335 344 352 363
314 312 303 308 307 307 311 312 313 315 320 320 321 320 320 320 319 320 321 323 322 322 323 325 326 326 326 328 326 327 325 323 322 320 323 325 327 326 327 330 341 339 341 354 364
314 314 305 305 307 308 312 313 315 317 320 320 320 320 322 321 320 320 320 321 321 320 320 322 324 325 327 326 326 326 323 321 322 323 325 323 325 327 332 339 344 342 346 354 364
310 311 314 313 310 313 313 314 318 319 319 320 320 321 323 322 322 321 321 321 323 321 321 321 323 325 326 326 326 326 323 320 324 328 327 327 330 329 332 333 342 342 349 353 364
306 309 311 313 313 315 314 315 318 320 320 320 319 321 322 323 322 322 321 321 323 323 323 322 323 326 326 326 326 326 325 323 323 323 324 324 328 333 335 341 344 351 352 352 361
304 308 314 314 314 315 315 315 316 317 317 318 319 320 322 322 322 323 324 325 325 324 324 323 324 324 326 326 326 325 326 324 322 326 329 329 333 335 337 339 354 354 353 353 357
308 316 316 317 317 317 317 316 317 317 318 318 319 320 320 322 321 321 324 324 325 326 325 326 324 325 325 325 324 327 326 324 322 324 325 329 329 335 334 335 345 349 353 354 353
308 315 319 318 318 318 319 320 317 318 317 317 318 319 320 321 321 322 322 323 324 323 324 329 328 325 324 325 327 326 326 325 325 325 328 326 326 345 333 337 344 347 339 349 352
309 314 315 316 316 314 316 318 319 320 317 317 317 318 319 320 321 323 322 322 323 323 328 327 330 331 326 324 324 325 327 327 326 325 324 328 334 350 348 348 350 352 348 351 348
308 316 317 317 318 319 318 318 320 320 321 321 318 317 318 318 319 322 322 322 322 322 337 328 329 335 333 331 328 328 329 327 324 327 325 327 342 352 347 349 351 354 349 354 350
311 318 317 320 317 319 323 324 323 322 320 324 326 321 319 318 320 320 320 321 322 325 327 328 330 335 330 330 329 328 328 328 327 327 332 329 352 343 340 341 358 352 343 350 353
312 313 312 312 315 318 321 325 325 322 323 325 324 325 325 325 323 323 320 320 322 323 326 333 335 337 337 332 331 332 334 333 337 341 337 342 348 338 339 343 352 342 349 358 355
311 311 312 312 313 316 321 326 326 325 323 323 323 323 325 326 326 326 324 323 321 321 331 335 332 334 338 335 333 334 350 349 350 343 350 354 353 350 354 354 353 352 355 357 358

GFSSW_925_thetae_078.txt.gz
Theta_e
304 305 306 306 306 307 307 309 309 310 310 310 311 311 312 313 314 315 320 318 321 325 328 336 337 342 342 348 350 346 350 354 349 333 332 339 343 344 346 350 351 351 351 348 349
303 304 305 306 306 307 307 308 309 310 310 310 310 311 311 312 315 321 324 319 323 327 329 333 334 337 343 343 337 339 340 338 337 332 330 339 344 348 348 346 356 355 350 348 354
303 303 304 304 305 306 306 308 309 310 310 310 311 311 311 313 321 322 328 325 321 324 326 326 327 333 339 338 337 335 337 335 331 334 331 331 345 350 347 346 354 356 352 349 350
302 303 303 304 305 305 306 307 309 309 310 310 310 311 312 318 314 333 327 325 325 324 325 326 328 335 339 339 338 332 330 329 327 327 328 331 338 350 346 345 352 353 351 350 350
302 302 303 305 305 305 306 307 309 310 310 310 310 310 313 316 319 319 320 326 325 325 329 328 331 336 339 338 335 331 329 327 326 326 328 330 331 335 348 346 351 351 351 351 351
302 302 303 304 305 306 307 308 308 310 311 310 310 310 322 320 318 320 327 325 326 326 331 329 333 337 336 335 330 329 325 325 325 326 327 329 330 339 345 349 351 351 351 351 351
303 303 304 304 305 306 307 308 309 310 311 311 310 311 322 314 318 325 330 331 328 331 329 330 330 334 330 330 328 323 323 324 325 325 326 327 327 335 347 351 351 351 351 351 350
303 303 303 304 305 305 307 309 310 311 312 312 311 318 317 315 317 318 319 334 333 332 331 330 330 327 326 324 321 322 322 322 324 324 325 327 327 330 349 351 352 352 351 351 350
306 306 305 305 305 305 307 310 313 315 316 314 315 320 317 319 323 323 321 322 328 334 331 330 329 325 323 321 319 318 321 321 323 325 324 326 326 330 350 352 352 352 352 351 351
310 310 311 309 306 305 308 314 318 319 320 321 321 317 316 318 321 322 323 322 332 332 331 331 325 322 319 317 321 320 320 321 322 325 324 324 327 328 345 352 353 352 352 352 352
312 313 315 316 311 307 311 315 311 313 314 315 316 319 319 320 320 321 321 321 328 331 331 329 326 323 321 320 321 321 321 321 322 324 325 323 324 326 331 351 351 351 352 353 353
314 314 315 316 315 308 307 312 314 313 310 312 314 315 315 316 316 317 320 318 322 325 327 327 326 327 323 323 323 323 322 322 323 324 324 322 324 324 324 330 345 349 351 354 357
316 316 316 316 313 310 306 311 313 312 309 311 313 314 314 315 316 317 319 319 318 321 323 326 328 326 324 324 324 323 321 322 323 324 322 323 323 323 324 326 340 348 352 355 359
316 316 315 314 311 311 309 311 312 312 309 313 315 315 315 316 316 318 318 319 319 319 320 320 322 323 323 324 323 321 323 322 324 323 322 322 322 321 322 324 339 348 354 357 359
316 314 313 308 308 308 308 309 311 311 315 319 318 319 315 316 318 318 319 317 318 319 318 319 321 321 323 323 324 324 324 323 323 321 320 320 321 321 322 326 325 346 353 358 358
315 314 309 309 307 313 308 310 311 312 316 319 319 318 317 318 317 318 318 316 318 319 319 320 321 322 322 324 325 324 323 320 318 315 318 318 322 322 323 323 326 334 350 358 360
315 315 310 306 311 312 312 309 310 313 315 317 317 317 317 318 320 319 317 316 316 318 318 319 319 321 323 323 323 324 318 319 320 319 320 318 322 323 322 324 324 331 350 358 360
313 314 312 310 312 311 312 308 314 315 316 317 317 316 318 318 320 321 317 316 315 316 317 319 320 319 321 321 322 322 318 319 321 320 321 322 324 325 325 325 328 333 350 360 362
312 311 309 312 312 311 307 310 312 316 317 316 315 316 317 318 319 319 320 321 318 318 317 318 318 320 320 321 321 322 323 319 318 320 320 321 321 326 332 339 344 349 361 363 364
305 307 311 313 311 312 308 311 312 314 314 315 315 316 317 317 317 317 319 321 323 323 323 324 323 320 322 322 323 322 322 322 317 323 323 323 325 328 334 344 351 353 365 365 364
306 307 314 314 313 308 311 310 313 315 315 315 315 314 315 316 318 317 319 320 320 322 322 324 323 324 325 323 323 322 324 322 319 319 322 323 324 328 336 332 344 351 358 363 364
304 309 314 314 312 309 313 316 316 317 316 317 314 314 316 316 317 318 319 320 320 321 324 325 323 323 324 325 324 323 323 322 325 322 322 323 324 340 345 350 346 351 356 358 362
301 305 314 314 310 308 308 312 317 318 318 318 316 318 315 316 316 317 319 318 319 322 323 323 324 324 330 324 324 323 322 322 320 319 325 324 323 343 349 350 349 354 353 354 354
301 307 308 307 308 315 316 318 321 322 320 321 322 320 320 316 316 316 317 319 319 321 341 326 323 327 329 330 327 328 327 327 323 324 323 321 325 346 351 345 346 348 348 352 351
303 310 308 308 308 308 312 316 320 323 320 319 320 321 321 322 320 320 320 322 323 322 322 321 325 329 329 331 330 331 330 338 330 332 326 324 335 342 346 340 338 340 345 347 343
306 307 306 307 306 308 312 318 320 324 322 320 321 322 319 322 325 326 324 323 319 319 321 324 324 330 332 333 347 353 348 345 344 344 345 342 341 342 341 338 340 340 340 343 345
308 307 305 307 306 308 310 312 317 316 321 321 321 322 323 323 324 324 323 319 320 321 321 328 326 327 329 332 334 349 350 347 347 345 344 352 345 345 350 350 350 351 347 354 355

GFSSW_925_thetae_084.txt.gz
Theta_e
302 303 304 305 305 305 307 307 307 309 309 310 310 310 310 311 312 315 316 317 317 323 330 334 336 339 345 348 351 346 352 353 348 345 331 330 341 342 346 351 351 349 349 348 348
303 304 304 304 305 306 306 308 308 309 310 310 310 311 311 311 314 318 319 319 319 321 331 332 333 335 339 342 348 346 348 346 338 336 327 325 340 343 351 352 354 352 351 350 348
305 306 307 307 306 306 306 307 308 309 310 311 310 311 311 311 314 313 326 326 319 325 329 332 331 337 338 338 340 340 338 333 333 328 325 325 337 343 350 353 352 353 352 350 350
311 313 314 314 313 310 309 307 308 309 310 310 311 312 311 315 313 320 320 321 320 324 329 324 322 323 331 337 335 334 332 333 327 327 323 324 337 345 349 348 348 349 349 349 350
315 317 316 317 317 317 315 310 309 309 311 311 311 312 311 311 312 317 317 323 324 327 326 324 323 327 332 334 336 335 334 326 323 321 322 323 335 344 347 345 349 349 348 350 350
317 317 317 317 317 317 317 316 309 311 314 314 314 312 316 310 316 316 324 325 325 327 327 324 323 324 328 335 333 331 329 324 320 322 324 323 324 341 341 350 352 351 350 349 349
318 318 317 318 318 317 317 313 311 314 316 316 315 311 316 310 316 320 323 323 319 323 325 326 326 329 330 331 326 325 321 320 322 323 322 321 324 334 334 350 352 354 353 351 349
318 318 317 317 317 317 316 310 312 317 317 316 314 316 308 314 314 314 315 318 319 320 328 327 328 323 328 325 318 319 318 321 321 321 322 321 322 324 349 351 351 352 353 353 351
318 318 318 318 317 317 311 311 313 315 317 315 317 313 310 315 317 319 319 319 320 325 329 330 326 325 324 320 320 317 321 320 319 320 322 322 321 322 342 352 353 351 351 351 350
318 317 317 317 316 316 313 312 313 319 313 317 321 315 316 315 315 317 317 318 317 323 328 329 324 323 316 320 328 322 320 318 319 321 319 320 319 319 323 351 354 352 352 351 350
317 317 316 316 316 314 313 312 306 308 309 310 310 313 312 314 315 316 317 315 317 327 328 328 326 325 327 321 321 321 319 320 319 320 321 320 319 321 325 349 352 353 352 351 351
317 316 316 316 316 312 311 306 307 307 307 308 308 309 311 312 313 313 316 315 322 322 326 326 327 327 328 322 322 321 320 320 319 320 321 320 320 320 328 350 350 351 351 350 348
317 316 315 316 315 313 310 308 309 308 307 309 309 310 311 311 312 313 314 315 317 320 325 322 324 327 328 326 325 322 321 321 320 320 319 319 319 319 320 337 348 348 349 348 349
317 316 314 315 314 312 312 309 310 308 307 311 314 315 314 313 314 314 314 315 315 315 316 320 324 326 326 326 324 325 322 322 321 320 320 319 320 319 318 323 340 349 348 348 348
317 316 314 312 310 309 314 311 311 306 311 313 315 316 312 314 316 318 316 314 315 315 315 316 318 320 323 323 321 323 321 321 321 319 318 319 317 318 317 318 319 325 347 348 347
316 315 314 310 308 313 312 311 308 310 311 314 314 313 312 314 315 316 316 314 314 314 315 315 316 317 318 319 319 321 321 317 312 312 317 317 317 317 317 319 319 324 331 345 347
316 315 310 307 310 311 311 306 309 311 312 315 314 312 311 313 314 316 316 315 313 314 314 314 315 316 318 318 318 320 316 318 319 319 321 315 316 317 318 318 318 319 335 342 346
315 313 309 309 309 310 308 307 313 313 313 313 313 311 314 313 314 314 315 316 316 313 312 313 315 316 317 317 317 317 315 317 320 319 319 317 319 321 320 318 318 320 321 338 345
314 310 310 311 310 310 305 310 312 312 313 313 312 314 313 314 314 313 314 316 317 317 318 314 316 316 317 317 317 317 318 316 317 314 317 317 317 319 320 320 326 341 347 333 339
309 307 310 311 312 308 304 309 310 309 312 313 315 314 314 314 314 313 314 316 316 318 315 318 322 320 321 318 318 317 317 319 318 328 325 321 320 322 322 321 333 339 342 336 347
306 306 310 311 311 307 308 308 310 311 312 314 314 314 314 314 313 314 315 316 316 318 317 319 319 322 322 322 321 321 318 318 320 319 323 324 322 318 326 345 349 349 346 354 353
301 310 310 311 310 303 311 312 313 314 316 316 314 313 314 313 313 314 315 316 317 322 319 320 316 321 323 322 321 320 320 318 322 322 319 320 323 344 344 343 341 347 355 359 357
300 300 309 310 311 307 308 312 312 317 318 319 318 320 318 317 320 317 318 320 321 324 320 321 316 322 323 324 325 327 325 318 318 318 322 323 324 342 341 338 341 346 349 352 352
301 308 304 301 301 308 308 310 315 315 318 319 318 318 319 319 318 317 324 323 324 324 334 321 320 324 323 325 326 331 329 331 317 318 319 320 324 346 342 342 342 349 348 349 349
300 307 303 307 307 306 307 309 314 314 313 317 319 319 319 321 322 324 323 322 323 324 321 318 319 322 324 324 329 333 344 345 333 321 323 326 341 348 343 345 347 349 344 344 347
306 306 302 305 303 306 306 310 311 311 311 319 320 319 319 321 322 323 323 322 323 321 321 316 321 327 326 326 329 339 334 335 346 347 352 350 349 347 345 345 349 350 347 344 342
303 303 303 306 304 306 306 309 310 308 311 314 318 319 318 320 318 318 317 318 320 321 320 316 318 319 323 324 330 341 343 342 344 342 344 348 347 345 345 344 347 344 343 345 345

GFSSW_925_thetae_087.txt.gz
Theta_e
309 311 312 311 311 310 308 308 309 310 311 311 312 312 312 312 311 315 319 316 316 323 334 343 342 345 348 349 353 354 355 352 345 341 335 331 331 344 347 352 350 348 351 349 351
315 316 316 317 317 317 315 312 309 309 310 312 312 311 312 312 313 318 320 317 317 326 339 338 338 342 348 345 350 353 356 347 343 339 333 330 329 344 351 353 355 353 351 350 350
317 317 318 317 317 317 317 317 316 310 309 311 312 312 312 312 318 316 323 323 319 328 330 332 332 337 339 342 348 351 346 345 339 337 330 328 328 343 349 354 353 355 356 351 351
318 318 318 318 318 317 317 317 318 311 309 312 313 312 312 314 320 322 317 319 320 329 331 328 334 331 328 333 338 342 342 340 337 328 326 328 332 343 347 345 349 352 354 352 352
319 319 318 318 317 317 317 317 314 310 312 314 314 314 313 314 315 316 317 324 327 329 328 326 325 325 327 331 336 338 337 337 336 326 325 327 328 336 346 345 349 352 353 353 352
318 318 318 318 318 317 317 316 310 311 314 316 315 314 316 317 315 315 326 326 327 329 327 325 326 325 326 328 333 334 333 333 327 325 325 328 329 332 339 347 352 353 354 353 352
319 318 317 318 318 317 316 312 312 312 316 317 316 313 316 318 317 322 327 321 321 325 325 326 326 327 332 333 331 329 329 330 328 328 327 326 326 333 333 348 353 354 354 353 352
318 318 317 317 317 316 315 313 312 314 316 314 314 315 317 315 314 315 315 317 319 321 321 325 326 328 327 328 325 325 323 329 328 324 325 324 327 330 331 343 350 355 354 353 353
318 317 317 316 316 316 315 312 312 316 315 319 317 313 316 316 317 318 318 318 318 325 328 329 328 329 327 327 330 327 330 327 327 323 323 324 325 327 331 328 341 354 356 354 354
318 317 316 316 316 315 313 312 312 314 312 314 319 318 318 317 315 315 316 317 319 320 329 328 330 330 328 331 328 329 327 324 326 326 325 325 325 326 326 326 338 351 355 356 355
318 317 317 316 315 313 311 310 311 313 310 313 313 313 314 314 313 315 316 316 317 323 321 328 326 327 330 330 329 328 328 328 327 325 324 326 326 328 327 328 342 352 354 355 355
317 317 317 315 315 313 310 309 307 307 312 310 310 311 311 312 314 317 314 316 321 321 327 326 326 328 330 331 330 330 331 330 329 324 326 329 327 327 326 330 340 348 354 354 354
317 317 316 315 314 313 308 307 309 307 312 313 312 312 314 313 315 316 316 317 319 322 322 321 322 326 330 330 331 332 333 332 331 329 325 325 327 328 328 326 334 347 350 353 354
317 316 314 314 312 312 312 307 310 308 314 315 317 316 316 314 317 316 315 318 318 320 321 322 323 324 327 327 331 331 330 331 330 330 332 323 326 328 329 327 328 335 348 351 353
316 315 313 312 310 311 311 311 309 307 316 316 317 316 315 317 317 320 316 316 319 319 319 321 321 325 325 326 326 324 325 325 325 328 325 324 325 327 328 327 329 328 333 347 350
315 314 312 310 308 311 311 310 306 315 315 317 316 316 317 316 317 317 318 317 316 317 317 318 318 319 323 325 325 324 324 323 321 323 324 326 325 326 327 328 328 328 327 334 346
315 314 310 308 311 309 310 309 315 314 315 317 316 317 315 317 317 317 318 321 319 320 321 320 319 318 319 320 321 323 323 323 324 325 326 324 323 327 328 327 327 327 328 329 333
314 312 309 309 309 309 307 315 316 315 316 315 316 316 316 316 317 317 319 320 319 321 321 321 322 319 319 320 322 322 323 323 325 325 325 324 324 326 328 326 326 330 338 342 343
314 310 310 310 310 309 314 318 317 315 315 317 318 318 319 317 316 317 318 319 319 322 325 324 323 323 318 320 321 322 323 323 324 322 322 323 326 327 329 329 340 349 351 354 351
310 307 309 310 311 307 313 313 313 312 313 316 319 317 320 321 318 318 318 318 320 322 323 323 326 325 324 321 320 322 322 322 324 326 326 326 328 327 331 338 348 350 355 362 360
306 313 311 310 309 315 316 315 314 315 314 317 318 319 319 320 318 318 318 321 322 325 325 323 324 326 326 326 326 322 322 322 325 326 326 328 327 330 337 350 352 354 359 365 361
304 316 310 311 317 310 316 314 313 317 318 318 317 317 319 319 322 318 319 325 324 325 327 323 325 327 326 325 324 325 327 327 326 329 327 328 328 346 347 348 351 356 354 358 362
308 308 309 309 317 316 313 314 314 318 319 322 322 322 321 322 325 323 323 324 324 325 327 327 325 325 326 327 328 331 331 338 334 328 329 327 328 345 346 352 352 356 355 356 355
309 315 312 309 307 313 313 314 316 316 317 319 321 321 323 324 322 325 324 323 323 324 333 324 326 328 326 327 327 329 331 341 338 334 328 328 328 347 349 352 351 350 351 353 351
308 312 307 314 312 310 310 311 316 317 316 318 322 322 322 325 324 325 324 324 323 324 325 325 330 326 326 327 328 329 331 339 339 345 342 334 330 349 346 351 348 346 346 348 348
312 312 308 311 308 309 308 314 313 314 313 321 321 319 321 324 325 325 325 326 326 324 326 326 329 328 329 325 327 330 333 334 337 340 341 348 349 345 343 346 347 348 347 346 345
303 303 309 309 310 312 313 312 312 311 313 314 316 315 320 322 318 318 319 321 324 326 326 326 327 329 328 326 327 330 343 343 336 338 344 347 347 346 348 347 344 343 344 343 342

GFSSW_925_thetae_090.txt.gz
Theta_e
318 318 318 318 318 318 318 317 317 316 312 310 311 313 313 313 312 321 324 320 319 322 349 345 344 346 350 349 349 353 351 347 343 341 339 336 335 338 347 347 350 350 352 350 352
319 319 318 318 318 317 317 317 317 318 314 309 311 312 313 314 319 321 322 318 317 324 341 340 341 344 348 343 345 351 346 344 342 340 341 336 335 335 348 350 353 352 353 352 353
319 319 319 319 318 318 317 317 317 317 311 310 311 313 313 314 323 325 323 319 317 329 338 333 335 341 338 335 337 342 346 340 340 340 339 336 336 335 342 347 352 356 356 355 352
319 318 317 318 319 318 317 317 317 313 311 312 313 314 313 322 322 331 317 321 322 333 332 332 335 336 332 329 330 335 334 333 337 338 336 334 334 335 336 338 346 349 355 354 353
318 318 318 316 317 318 317 316 315 312 312 313 316 315 317 322 322 325 319 322 332 332 332 332 332 331 328 327 328 330 330 331 334 335 334 331 332 334 335 336 347 350 356 355 353
318 318 317 316 317 317 316 315 314 313 312 315 316 315 322 321 317 326 334 334 333 333 327 328 328 328 328 328 328 328 330 331 332 333 332 331 331 332 334 339 348 353 356 355 353
318 317 317 316 316 316 315 315 314 312 314 316 315 315 320 320 323 327 330 327 326 325 324 326 328 330 329 329 331 332 331 330 330 329 329 329 329 329 331 337 340 351 353 354 354
318 318 317 317 316 315 315 315 311 313 315 316 314 321 321 318 316 316 317 318 319 321 322 321 324 330 329 329 329 330 330 330 329 328 328 327 327 328 331 334 334 344 349 354 355
318 318 317 317 316 315 315 312 312 315 317 316 323 320 321 317 319 320 321 321 320 324 326 326 326 327 327 327 326 328 330 330 330 328 327 326 327 327 330 330 330 332 350 353 356
317 318 317 316 315 314 314 310 311 313 315 320 322 323 321 320 318 318 318 319 320 324 328 329 329 329 329 328 328 327 329 330 330 329 329 328 328 327 328 329 330 331 346 353 355
317 317 316 316 314 314 311 314 319 319 317 317 318 318 319 318 317 319 318 319 320 322 323 327 327 327 326 328 328 327 327 330 330 330 330 330 328 329 329 330 329 334 345 353 354
316 316 316 315 314 314 312 315 312 312 318 316 316 316 317 316 319 320 318 320 321 321 323 325 328 325 325 326 328 328 329 329 329 330 329 330 331 329 329 330 330 333 342 351 353
316 316 315 315 314 316 312 313 312 312 318 318 318 318 319 317 320 321 320 321 323 323 322 323 323 324 324 326 326 327 329 329 330 330 332 332 332 330 329 330 330 331 338 347 352
315 315 314 314 316 315 315 311 312 311 321 319 320 320 320 320 321 320 320 321 323 323 323 324 324 323 322 324 325 326 326 328 331 331 332 331 333 331 329 330 330 330 334 345 351
315 314 313 311 314 317 315 313 312 312 325 319 320 319 320 320 321 322 320 321 322 323 322 323 323 323 324 323 324 325 325 326 328 328 328 329 331 329 329 330 330 330 330 333 344
315 314 312 313 312 314 312 312 312 321 323 319 318 319 320 320 320 321 322 322 320 322 322 322 322 322 322 323 324 324 325 325 325 325 326 328 329 329 329 330 330 330 330 331 332
314 313 310 310 316 311 312 314 321 322 319 320 320 320 319 320 320 320 322 323 324 326 326 326 324 323 322 322 323 324 325 326 326 325 325 326 328 329 329 329 330 331 334 338 339
315 311 311 311 312 311 314 319 323 319 319 320 320 320 320 319 320 320 322 323 323 326 326 327 327 324 325 323 323 323 324 325 326 326 326 328 328 328 329 329 336 341 344 345 351
314 313 313 313 312 312 318 322 323 319 320 321 321 321 322 321 320 320 321 322 323 326 328 328 327 326 326 326 323 323 325 324 325 325 325 326 327 328 327 328 331 338 342 345 351
311 314 316 312 313 315 318 317 319 320 320 321 322 321 323 322 321 321 320 321 322 324 326 326 328 326 326 326 326 323 324 325 324 326 326 326 327 328 329 329 331 338 345 354 359
313 319 315 312 313 320 319 320 320 321 321 322 322 322 323 323 322 322 320 321 324 324 325 326 327 327 326 327 328 328 326 326 323 323 328 329 326 329 332 333 344 345 356 359 363
313 320 314 313 321 319 320 320 313 322 323 323 323 322 323 323 323 323 323 323 324 325 325 326 327 327 326 325 327 330 330 331 335 331 328 327 326 338 342 343 349 353 358 357 360
317 317 315 315 321 320 319 318 320 321 323 324 324 323 324 324 325 324 324 323 323 323 324 326 327 329 327 326 327 331 330 329 334 334 342 334 330 345 346 349 355 357 357 355 354
317 319 318 318 317 320 319 319 320 320 321 324 325 324 324 325 325 325 325 323 323 323 331 327 327 329 328 328 327 328 328 330 336 332 333 337 339 344 349 353 353 354 354 350 350
317 319 315 320 319 318 318 318 318 320 320 323 325 324 325 325 324 325 325 325 325 324 325 327 331 328 327 327 326 326 327 327 333 336 343 341 343 348 350 353 351 351 353 352 351
318 318 316 317 317 317 313 319 318 318 319 322 323 323 323 326 326 326 325 325 325 325 327 328 331 329 329 326 325 325 326 326 333 335 336 335 337 347 348 349 349 347 348 348 346
312 312 316 314 318 317 318 318 317 316 317 318 320 321 321 323 323 321 321 322 323 327 330 331 330 331 329 327 326 328 327 337 340 339 342 341 349 347 350 347 348 348 344 345 343

GFSSW_925_thetae_093.txt.gz
Theta_e
319 318 318 319 319 318 318 317 317 316 317 313 310 311 313 313 314 326 330 326 325 322 336 342 347 347 346 349 349 347 353 349 345 342 340 339 337 337 344 345 350 350 352 354 352
319 318 318 317 317 318 318 317 316 316 315 312 311 311 313 313 320 325 324 322 317 324 342 342 344 342 343 344 344 348 350 347 343 342 341 340 337 336 340 345 352 352 354 352 351
319 318 317 317 316 316 317 317 316 316 314 312 312 313 314 314 327 329 320 323 317 322 337 338 335 338 339 339 338 340 344 343 342 341 340 340 337 337 338 339 344 351 356 355 353
319 318 317 317 316 316 316 316 315 315 314 313 313 316 315 322 327 336 317 319 318 336 337 334 333 337 337 332 331 332 332 333 335 334 336 339 338 336 336 337 338 342 356 356 355
318 317 317 317 316 316 315 315 315 315 313 312 314 316 317 327 326 328 317 320 328 344 332 335 334 335 335 331 329 329 329 330 330 331 333 336 336 334 335 336 337 342 356 357 356
317 318 318 317 317 316 315 315 315 314 312 313 315 316 321 322 321 328 333 333 333 336 332 332 332 331 331 331 331 330 330 330 330 329 330 331 333 334 334 336 339 346 353 354 355
317 318 318 317 316 316 314 314 315 311 313 315 316 317 324 323 323 327 331 331 332 332 330 328 329 330 330 331 331 332 332 331 331 331 330 330 330 331 333 334 335 345 350 353 353
316 317 317 317 315 315 314 315 312 312 314 316 316 323 325 321 320 320 322 327 325 322 323 325 324 327 329 330 330 331 330 331 331 331 330 329 328 329 331 331 334 337 345 350 353
316 316 317 315 315 314 315 313 312 314 316 315 326 328 325 319 321 322 322 322 322 323 325 325 325 324 326 328 329 329 328 328 330 332 331 330 329 329 330 330 331 333 333 345 352
314 315 316 315 314 314 313 313 312 314 319 322 324 326 324 322 322 321 321 322 323 324 327 328 328 327 327 328 329 329 329 329 330 332 332 331 331 330 330 329 330 330 331 337 349
314 316 315 314 314 315 314 320 322 324 322 321 322 323 322 321 321 322 321 322 323 323 324 326 329 329 328 329 330 330 329 330 329 329 332 331 331 331 330 330 330 331 331 334 348
314 315 315 315 314 317 317 320 317 317 323 321 321 321 321 320 323 324 322 323 323 323 324 325 326 327 328 327 326 326 328 329 330 330 330 330 332 331 331 332 330 331 332 336 346
314 315 315 315 316 320 317 316 316 317 322 322 322 322 322 322 323 324 324 325 325 326 326 326 325 326 325 325 326 327 328 328 328 329 330 330 332 333 332 332 330 331 332 335 345
315 315 314 314 317 320 320 317 316 316 326 324 323 323 322 323 324 323 323 323 324 324 325 325 325 325 325 325 325 325 326 326 327 328 329 331 332 333 333 332 330 332 332 334 344
315 314 314 313 316 322 320 318 316 317 332 322 323 321 322 322 323 324 323 324 324 324 324 325 324 324 325 325 325 325 325 326 326 327 329 331 332 331 332 332 331 331 332 333 341
315 314 312 317 319 319 317 316 317 325 329 323 321 322 322 323 323 323 324 325 325 325 326 326 327 326 325 324 324 324 325 326 327 327 328 329 328 329 330 332 331 331 332 334 336
314 314 311 314 320 315 316 319 326 327 323 324 323 322 322 322 322 322 323 326 326 328 329 327 328 326 325 324 325 324 324 326 328 328 327 327 327 328 329 330 331 333 337 341 340
314 313 316 315 316 316 318 323 329 325 323 323 323 322 323 322 323 322 323 325 325 326 328 328 328 328 327 327 328 326 325 326 329 328 327 328 328 328 329 330 332 336 339 339 341
314 319 317 319 317 317 321 326 328 325 322 323 323 324 325 324 321 323 323 324 324 326 328 328 328 327 326 327 327 327 325 325 325 326 325 326 328 331 330 330 330 332 336 341 348
313 319 319 317 318 319 322 324 323 321 321 323 325 323 325 325 324 324 323 323 323 325 326 327 329 328 327 327 327 330 328 326 325 328 328 326 329 329 334 331 330 330 334 349 352
316 321 320 317 318 322 324 324 322 322 322 324 325 324 325 326 324 325 324 322 325 325 325 325 327 330 328 327 328 328 330 330 332 333 336 330 328 331 333 337 335 338 348 354 357
318 323 319 317 323 324 323 323 314 322 323 323 323 324 324 325 326 326 325 325 324 324 325 326 327 329 328 327 328 327 335 335 334 343 340 339 337 337 339 335 344 349 356 358 360
321 321 319 318 324 325 323 320 320 321 323 325 326 325 325 326 327 326 326 325 324 324 326 326 326 327 327 327 330 332 330 334 334 333 339 340 342 334 334 336 352 356 356 357 356
320 323 323 322 321 322 323 323 321 321 321 322 325 325 326 327 327 328 327 325 325 325 326 326 326 329 329 329 328 328 329 329 330 332 338 338 337 335 334 335 350 355 356 355 357
323 323 321 322 324 322 322 321 321 321 322 322 324 325 326 328 327 327 326 327 326 327 326 326 330 330 330 328 327 327 327 326 327 329 339 338 340 339 336 335 346 351 352 350 349
321 322 322 321 321 321 317 320 320 320 320 321 324 324 326 326 326 327 327 327 325 324 325 327 332 331 331 328 326 327 326 325 326 326 332 332 334 342 348 347 349 350 349 348 349
319 318 319 319 322 322 321 321 321 320 319 319 320 322 323 322 324 325 323 323 323 324 328 332 333 333 333 329 328 329 327 329 329 333 333 337 345 345 345 346 347 345 344 345 345

GFSSW_925_thetae_096.txt.gz
Theta_e
319 318 317 316 316 315 316 317 318 316 315 316 316 313 311 312 314 323 331 329 326 325 321 330 337 347 347 347 347 348 353 350 350 352 346 340 337 337 339 346 345 349 354 354 350
319 318 317 316 316 316 316 316 316 316 315 315 315 313 313 313 317 322 324 325 323 321 329 334 343 344 344 342 342 345 348 347 343 348 344 341 340 337 338 339 349 353 354 352 351
318 317 317 316 316 316 316 315 315 314 315 315 314 313 315 314 325 326 324 323 323 319 329 336 339 339 340 337 337 339 341 339 337 336 336 337 337 338 336 337 345 355 356 354 352
318 317 317 317 316 316 316 315 315 314 315 313 313 314 316 321 328 329 318 318 318 329 337 338 337 335 335 336 333 332 331 331 331 330 330 331 334 338 338 336 336 353 355 354 354
316 316 317 317 317 315 315 315 314 315 314 312 313 315 318 325 324 325 320 318 319 337 342 337 335 334 334 335 333 331 330 330 330 330 330 331 332 335 336 336 336 350 355 356 354
315 315 316 316 316 314 315 314 315 315 312 312 315 315 321 322 325 331 334 328 327 335 337 333 334 334 333 332 332 331 331 330 330 330 331 330 329 330 332 334 335 347 356 356 354
313 314 314 315 314 314 313 314 315 313 312 314 316 316 325 326 324 326 329 332 328 331 333 331 331 331 330 330 330 330 331 332 332 331 331 331 330 330 331 332 333 336 349 355 356
314 314 315 315 314 313 314 315 313 312 314 315 316 323 328 323 322 322 325 329 330 332 330 328 327 327 326 327 329 329 329 329 330 330 331 331 330 330 330 330 331 333 343 351 355
314 315 315 314 313 314 315 315 313 313 314 317 322 326 330 321 322 322 322 322 324 326 325 324 325 325 326 325 325 327 329 330 330 330 331 332 332 332 331 330 330 331 335 342 353
313 314 315 315 314 315 316 317 315 313 321 323 326 328 328 325 323 323 323 323 324 324 324 325 328 327 327 326 326 327 328 329 330 331 331 331 332 332 332 331 331 330 333 334 336
314 315 315 314 314 317 318 321 324 326 324 325 324 325 324 323 323 324 323 323 323 324 323 326 328 330 329 329 329 329 329 329 329 330 330 330 331 332 332 332 332 332 333 333 334
315 315 314 314 314 320 320 321 319 319 321 324 323 323 323 323 324 325 324 324 324 324 325 325 325 326 327 328 328 328 328 327 327 328 329 330 330 330 330 332 332 332 333 333 333
314 314 314 314 316 321 321 319 319 319 322 326 323 323 324 323 324 325 325 325 325 326 327 327 327 328 327 326 326 326 326 326 327 328 329 328 329 332 331 332 333 333 334 332 335
314 314 314 313 319 321 323 320 319 318 325 326 323 324 323 324 324 325 325 324 324 324 325 326 326 325 325 326 326 325 326 326 325 326 326 328 330 335 331 332 334 331 331 332 333
315 314 314 313 316 324 321 320 318 320 333 325 325 323 323 323 324 324 325 324 324 325 325 325 325 325 326 325 326 325 325 325 325 326 326 326 327 331 333 334 334 333 333 333 335
315 314 314 319 320 321 318 319 320 326 331 324 324 324 324 324 324 324 324 325 326 326 328 329 328 328 328 327 326 325 325 325 325 326 329 328 327 329 330 333 332 333 333 336 342
315 314 314 313 322 318 318 322 327 330 327 326 325 324 324 324 324 323 324 325 327 327 329 329 329 329 327 326 327 328 329 329 329 327 329 328 328 332 331 329 331 336 341 340 338
315 314 316 316 318 319 320 325 330 330 327 325 324 324 324 325 324 324 323 325 327 326 328 330 329 328 328 328 327 328 328 328 330 326 325 329 330 329 332 331 331 334 337 339 339
315 319 321 321 320 319 323 327 330 327 325 324 323 325 327 325 324 324 325 325 325 326 328 328 328 326 327 328 328 328 328 329 330 327 328 325 328 331 337 333 334 332 337 341 345
315 320 322 321 319 321 324 324 326 324 323 323 325 327 326 327 326 326 325 325 324 325 326 326 327 326 327 329 327 327 329 332 332 336 334 335 336 348 345 343 342 336 344 339 338
319 325 323 321 318 322 325 327 325 324 324 324 326 326 326 326 327 326 326 325 326 326 325 325 327 328 326 327 328 330 333 334 334 333 340 341 335 338 336 336 338 334 335 337 333
320 326 322 321 321 325 327 325 316 322 324 324 324 324 324 325 326 328 327 326 325 325 325 326 326 327 326 325 327 329 334 333 332 331 333 338 333 337 335 333 334 334 337 332 339
323 325 323 320 323 326 327 325 323 322 323 324 326 327 326 327 328 328 328 327 325 325 327 326 326 326 326 327 329 329 329 332 334 332 333 343 342 334 336 335 333 335 334 333 351
322 326 326 325 324 324 324 324 325 323 322 322 323 325 326 327 327 329 329 327 326 326 324 325 327 330 332 331 329 330 328 327 329 331 333 339 338 335 336 335 333 334 334 339 349
324 327 325 326 324 325 326 324 323 323 323 323 324 325 325 327 328 329 328 328 328 331 326 326 328 328 329 329 328 329 328 327 327 327 330 329 336 338 340 338 335 338 346 346 349
325 325 324 323 323 324 322 322 322 322 322 322 322 323 325 327 328 326 326 329 328 326 325 324 328 330 332 330 329 329 328 328 327 327 326 332 346 341 341 342 343 347 346 348 347
323 322 323 322 323 324 325 324 323 323 322 321 320 320 322 324 323 324 324 324 323 323 325 327 330 334 334 331 330 331 339 336 336 333 339 339 346 340 340 345 348 347 346 346 344

GFSSW_925_thetae_099.txt.gz
Theta_e
317 317 317 316 315 315 315 315 315 315 316 314 315 314 314 313 313 319 329 325 328 325 324 322 329 333 341 347 344 343 348 352 352 349 345 340 342 339 343 346 349 353 352 349 349
316 316 316 316 316 316 315 315 314 314 314 314 315 314 313 314 315 320 319 321 326 324 322 327 332 336 343 344 340 338 340 345 345 347 346 344 344 336 336 347 357 356 351 349 349
314 315 315 315 315 316 314 314 314 313 314 314 314 313 313 315 325 324 326 323 324 323 321 326 331 340 341 337 335 334 335 336 332 331 340 330 327 328 332 337 356 356 353 350 349
313 313 314 314 314 314 313 314 313 314 314 315 312 312 314 318 327 325 321 321 321 321 326 328 333 336 335 332 333 333 331 329 326 327 326 326 325 328 330 335 345 353 351 350 350
312 312 313 314 314 313 313 313 313 315 315 312 312 314 317 326 321 322 318 319 318 325 332 340 341 334 333 330 331 331 330 329 328 327 327 328 327 327 327 331 334 354 352 352 351
313 313 314 314 313 313 313 313 315 314 313 311 313 315 320 321 326 326 325 321 326 333 337 338 337 331 332 331 329 328 328 328 328 328 329 330 329 327 326 327 342 355 353 352 351
314 313 313 314 314 313 314 315 315 314 312 312 315 316 323 323 326 329 333 333 330 328 331 333 331 329 328 327 328 326 326 327 327 327 327 328 328 328 327 328 329 356 354 353 352
313 313 314 314 314 314 314 315 317 313 313 314 316 324 324 325 325 324 326 329 331 329 329 331 326 321 323 323 323 322 321 323 325 327 328 327 326 329 329 327 327 334 356 355 353
314 314 314 314 314 314 316 319 316 313 314 316 318 324 330 323 322 321 321 321 322 328 330 326 323 320 322 321 321 321 321 322 325 328 328 328 327 330 330 329 327 326 346 355 354
314 314 314 313 314 315 319 321 317 315 321 322 324 326 328 326 323 323 323 323 323 322 322 323 320 322 323 322 323 323 323 324 325 327 327 326 326 327 329 327 329 328 327 344 354
314 314 314 314 313 316 320 322 320 323 321 326 324 328 325 324 323 323 324 323 322 322 321 322 320 324 326 326 325 325 326 326 326 326 324 324 325 327 327 327 328 327 328 326 329
315 314 314 313 315 321 321 318 319 319 318 319 320 322 322 323 323 324 323 322 322 321 321 321 320 322 324 325 325 325 325 325 325 326 324 323 325 326 326 327 327 328 328 328 328
315 315 314 313 318 322 322 320 320 319 318 322 323 321 323 322 322 324 322 324 324 324 323 323 324 326 325 324 324 322 322 322 322 323 323 323 324 325 326 326 327 328 328 328 328
314 315 314 313 319 317 323 320 320 318 320 326 323 323 323 322 322 325 325 324 323 322 323 323 325 325 324 324 323 322 324 323 323 321 321 323 323 322 325 326 327 328 329 329 329
314 315 314 315 316 321 319 319 319 319 334 325 323 323 323 322 322 324 325 323 323 323 324 324 324 325 326 326 326 324 323 322 322 320 319 321 321 323 323 325 329 329 330 329 329
314 315 315 317 316 321 319 319 320 324 331 324 324 322 321 321 323 324 324 323 324 325 324 325 327 326 326 327 326 326 325 325 325 321 320 321 324 324 324 329 333 335 336 348 350
313 315 314 314 318 319 319 320 326 330 328 325 324 324 322 322 324 324 324 323 323 325 327 326 328 326 326 326 326 326 322 324 326 325 324 322 323 332 340 338 336 336 338 336 343
313 316 318 318 317 319 320 323 331 332 326 325 323 322 323 324 324 324 323 322 325 325 325 328 328 325 325 324 326 326 325 325 329 329 329 324 324 340 338 336 336 336 336 338 337
314 317 320 322 320 320 321 327 330 328 324 323 323 325 326 324 325 324 323 324 324 325 327 326 327 325 324 325 326 326 325 323 323 327 327 330 332 340 333 333 335 336 335 337 337
317 319 323 322 320 320 323 324 326 324 323 323 323 325 327 326 326 325 326 324 324 325 323 325 324 324 326 325 324 326 330 331 331 335 335 335 336 341 336 334 335 333 336 337 337
319 324 323 321 319 320 322 325 326 325 324 324 323 324 325 327 326 326 326 326 325 324 323 324 325 325 324 324 323 323 330 330 328 331 332 336 338 336 336 335 335 332 336 335 337
320 326 323 322 323 323 324 327 323 324 322 324 325 326 326 325 326 328 328 327 325 324 326 326 323 325 324 323 323 325 333 331 330 330 326 329 332 335 336 334 333 334 336 336 334
321 323 324 322 322 323 324 324 325 323 322 323 324 326 326 327 329 328 329 327 326 326 326 326 325 325 327 326 326 327 327 325 331 331 331 337 336 332 333 336 334 337 340 333 336
321 328 327 325 324 325 326 327 325 324 323 323 323 322 323 326 325 328 328 328 326 325 333 325 326 328 327 327 327 327 327 326 325 326 326 332 330 336 337 343 337 338 342 337 344
324 329 325 327 325 324 324 325 325 323 323 323 323 324 325 326 327 327 328 327 327 334 326 323 327 327 325 325 327 329 329 328 328 331 331 336 338 337 339 342 341 343 343 337 335
322 327 324 323 324 324 323 326 325 323 322 323 324 322 322 324 324 325 325 326 328 325 323 321 323 326 327 329 330 330 330 336 336 338 339 342 345 342 339 344 346 344 344 338 340
322 321 324 324 324 325 324 325 325 324 323 323 321 321 321 321 320 319 318 320 320 321 321 322 324 326 330 333 331 332 339 336 340 338 343 344 340 337 335 336 342 338 336 341 343

GFSSW_925_thetae_102.txt.gz
Theta_e
312 313 313 313 313 314 314 313 313 313 313 313 313 314 314 314 314 315 320 318 322 326 323 323 329 327 329 341 345 344 345 350 353 349 345 339 340 339 341 351 347 349 349 347 348
311 312 313 312 313 313 312 313 313 313 313 313 314 313 312 313 316 318 318 318 319 326 324 326 327 330 334 343 343 340 338 342 343 345 344 343 341 342 337 349 356 353 348 347 351
313 312 313 313 314 313 312 312 313 313 313 314 314 312 312 314 322 321 326 325 319 325 324 323 325 332 338 340 338 334 336 335 333 338 343 343 340 329 326 353 355 353 350 348 351
313 312 313 313 313 313 312 313 313 314 314 314 313 311 313 317 316 325 321 323 322 322 321 325 327 330 334 335 332 331 330 330 326 326 325 332 324 325 326 325 352 349 348 348 348
313 312 313 314 314 314 313 313 314 314 314 313 311 313 317 323 317 318 319 319 319 319 328 331 340 339 335 332 329 329 327 325 324 324 326 326 326 327 327 328 351 349 349 348 347
313 313 314 313 313 313 313 314 315 316 315 312 312 314 319 318 319 324 319 320 321 327 334 333 339 336 330 329 326 326 323 322 323 324 325 326 325 326 327 327 351 350 350 349 348
314 313 314 314 313 313 313 315 318 318 313 312 314 317 323 320 322 326 324 329 330 325 331 331 332 324 322 322 323 321 320 320 322 322 323 324 324 325 326 326 343 352 351 350 348
314 314 314 313 313 313 315 318 320 314 313 314 315 323 317 321 323 326 329 332 331 328 327 328 330 321 320 321 320 321 319 319 320 322 322 324 324 326 325 323 350 353 352 352 350
314 314 314 313 313 314 319 320 316 314 314 315 319 324 325 327 322 322 322 327 322 329 329 328 326 320 320 322 319 318 320 320 321 323 323 325 324 325 324 325 328 353 353 352 351
312 314 314 313 313 317 320 321 318 317 320 322 323 323 324 327 322 322 322 321 319 320 320 321 318 318 317 319 322 322 321 320 321 324 324 323 321 322 323 325 325 333 354 353 352
312 314 314 313 314 320 320 320 311 315 318 324 324 325 324 323 323 322 322 322 321 320 319 319 318 317 318 320 324 323 322 322 323 324 323 322 321 322 322 324 324 324 339 353 353
312 314 314 313 317 320 320 315 317 317 315 316 317 318 319 321 321 321 323 320 320 319 319 318 318 319 320 322 324 325 324 322 321 322 321 319 320 321 322 322 323 323 324 336 353
311 313 314 313 320 320 320 318 319 318 313 317 320 320 319 319 320 321 319 320 321 320 320 318 320 323 323 322 321 320 320 320 320 320 319 320 319 319 321 321 322 324 324 324 325
312 312 314 313 317 317 320 318 319 318 317 323 323 321 321 320 320 322 321 322 321 321 320 320 321 323 323 324 322 321 322 322 321 319 319 319 319 318 318 320 330 337 339 342 341
314 313 314 314 316 316 319 319 319 317 329 325 321 322 320 319 321 322 323 322 321 321 322 321 323 323 324 325 324 322 322 322 322 321 317 319 318 319 330 336 336 335 339 340 339
316 315 315 315 314 318 318 319 318 322 329 323 320 320 320 319 320 322 322 321 321 322 322 322 324 324 324 323 324 325 322 321 320 317 321 319 319 329 339 337 336 335 339 338 339
317 318 317 316 313 316 319 316 322 325 325 322 322 319 320 321 321 321 321 321 319 321 321 323 326 323 323 322 321 322 320 322 323 323 324 320 322 337 338 336 336 335 339 337 337
319 319 318 318 319 317 318 319 327 329 322 321 321 320 321 321 323 322 321 319 323 322 322 324 325 323 322 323 323 322 322 322 326 325 326 322 327 337 333 334 332 333 332 337 336
319 319 321 321 321 319 314 320 325 323 322 321 320 322 323 322 322 322 322 321 323 322 323 322 324 322 324 323 322 322 320 321 324 326 327 326 328 333 332 331 331 331 334 336 336
315 319 321 322 322 319 314 320 321 322 322 321 321 322 323 322 322 322 323 322 323 322 320 322 322 322 325 322 321 320 320 326 324 329 332 328 331 338 332 332 332 332 333 334 335
318 316 322 322 322 311 315 317 321 322 322 322 321 321 322 323 322 323 324 323 323 323 321 322 321 322 322 321 321 321 320 326 323 324 328 331 329 331 332 332 331 332 335 334 333
316 318 323 322 316 312 317 321 322 322 319 320 322 323 323 324 324 325 326 325 324 323 325 322 318 321 322 321 323 320 327 324 326 327 324 323 325 331 333 332 332 336 340 334 333
312 315 323 322 316 314 315 322 322 322 320 320 321 320 320 322 324 325 325 324 324 324 324 322 319 321 322 320 322 325 324 323 322 322 328 330 330 330 337 337 334 336 340 332 339
313 320 317 314 314 320 319 321 322 323 320 319 320 320 320 322 321 323 324 326 324 324 337 323 319 322 322 322 322 323 324 326 325 322 325 327 329 335 338 340 340 341 338 337 335
314 321 318 319 319 318 319 320 322 322 320 319 320 321 321 322 321 322 322 323 323 331 321 318 321 322 321 322 323 324 325 332 332 334 337 337 338 339 339 338 342 342 341 334 334
313 320 317 318 317 320 319 320 323 323 321 322 320 319 317 319 319 319 317 319 321 319 319 316 318 321 321 322 324 327 335 336 337 337 341 340 342 336 335 332 337 338 335 337 340
318 316 316 318 317 318 319 321 322 320 320 320 318 317 317 319 317 316 314 313 315 317 316 317 316 318 319 321 324 331 336 336 339 337 341 341 337 336 335 334 334 333 334 337 340

GFSSW_925_thetae_105.txt.gz
Theta_e
312 312 312 312 312 312 311 311 312 312 312 312 312 313 313 312 313 315 316 317 320 324 323 326 329 327 328 336 345 343 348 348 350 348 342 339 341 339 338 346 347 350 350 348 351
313 312 311 312 313 313 312 312 312 313 313 313 313 313 311 312 316 319 317 316 317 325 322 326 326 328 331 338 343 344 342 342 340 344 344 342 342 342 340 346 350 351 349 351 352
313 313 313 313 313 313 313 313 313 313 313 314 313 313 311 313 319 315 324 324 318 325 323 323 324 332 335 339 340 336 340 337 333 332 337 340 339 338 330 349 353 352 349 352 352
314 313 313 313 313 313 313 313 313 314 314 314 313 311 313 318 315 325 320 322 319 324 323 322 322 326 330 334 332 333 330 329 328 325 324 332 333 323 323 329 338 349 348 351 351
313 314 314 313 313 313 313 313 314 314 316 316 313 311 318 320 316 318 318 320 322 322 323 327 335 335 339 333 329 328 327 323 324 320 322 323 323 323 324 332 349 348 349 351 351
312 314 314 314 313 313 313 315 317 318 317 314 311 314 318 314 318 324 319 318 319 323 329 329 338 337 332 326 324 325 322 319 319 321 321 324 322 323 324 333 349 348 348 350 352
312 313 314 314 313 313 315 318 319 317 313 312 313 318 322 314 320 327 321 323 323 323 330 333 333 329 322 319 321 320 321 318 320 320 322 323 321 322 323 322 338 349 348 347 349
312 313 314 314 313 315 319 320 317 313 313 314 315 321 314 318 326 322 321 327 331 327 326 326 328 325 318 319 319 321 318 318 320 321 320 321 322 323 322 321 334 349 349 348 347
312 312 314 314 313 319 321 319 314 314 315 315 322 322 323 326 323 323 325 327 329 329 328 327 325 322 318 319 318 317 319 320 321 322 322 324 322 323 320 321 348 350 350 350 348
314 312 314 314 314 321 319 319 318 321 320 322 323 322 323 325 324 321 321 324 318 318 319 322 316 319 315 317 320 323 321 320 320 322 322 322 320 319 319 320 325 349 350 350 349
315 313 314 315 316 320 319 318 311 313 317 320 323 323 322 323 323 321 321 319 319 318 318 317 316 316 316 316 319 322 321 322 323 323 322 320 318 319 318 323 337 332 347 351 351
318 316 316 317 317 320 318 314 315 316 315 314 315 316 318 319 319 319 321 320 319 318 318 316 317 317 318 318 319 320 322 322 321 321 319 317 319 318 320 330 336 340 342 339 343
321 317 317 319 316 319 319 318 318 316 312 315 316 317 319 318 319 318 319 319 319 319 318 317 319 320 320 321 321 319 319 319 319 319 318 319 320 318 327 330 332 334 339 340 342
323 319 318 319 315 314 320 318 319 317 317 324 321 321 319 318 319 319 319 320 319 319 317 317 319 322 323 323 320 322 320 321 322 321 322 318 319 317 329 330 331 333 338 341 342
324 321 318 317 314 313 319 318 319 316 327 325 321 321 318 319 320 321 320 320 320 321 320 321 322 322 322 322 322 322 322 322 323 321 319 320 318 323 332 330 333 332 337 338 341
325 323 318 318 315 316 316 319 317 322 326 322 320 319 319 319 319 321 321 320 320 321 320 320 322 322 322 322 322 322 322 319 317 316 321 320 319 319 334 333 334 331 336 337 339
325 324 319 317 315 317 318 315 321 325 322 321 320 319 318 319 320 319 321 320 318 320 319 321 324 322 321 323 321 319 318 321 323 323 324 319 322 327 333 335 334 333 333 337 336
325 322 320 321 319 319 318 318 327 326 321 320 320 319 320 318 320 320 319 317 321 320 320 322 323 322 322 323 323 321 319 321 329 327 327 322 326 330 332 333 330 331 332 336 335
323 320 320 322 321 319 313 319 323 322 321 321 319 320 321 321 321 321 320 322 322 320 321 321 322 321 323 321 320 320 319 318 323 322 324 324 325 326 330 331 330 330 333 333 335
315 318 319 322 321 316 312 318 319 320 321 320 321 321 322 321 321 320 322 321 323 321 317 320 321 321 323 319 320 321 320 327 322 327 331 326 327 329 330 331 330 332 335 332 332
316 316 319 321 320 309 314 315 319 321 320 320 320 322 321 322 322 323 323 324 322 322 321 320 319 321 321 321 322 320 323 324 320 322 327 328 327 327 333 332 330 330 336 333 331
311 317 320 321 315 308 315 318 319 321 318 319 321 322 321 322 323 324 325 324 322 322 323 320 315 320 322 319 320 319 324 321 323 325 322 322 324 331 336 333 331 331 336 333 332
309 311 321 318 319 314 315 320 321 321 320 318 320 320 319 320 322 323 324 323 322 322 322 320 317 320 321 319 318 323 322 322 319 318 325 328 327 329 334 337 337 338 338 335 337
311 319 316 312 310 318 319 319 321 321 320 318 318 319 320 321 318 321 322 323 323 326 329 322 316 319 321 321 320 322 321 321 322 321 323 324 326 329 336 334 338 340 338 334 332
311 318 316 319 319 318 318 318 320 321 319 318 319 317 319 319 318 318 318 318 318 325 319 316 320 318 318 319 320 321 322 325 334 326 334 331 335 332 335 333 332 338 335 335 336
310 318 314 317 315 317 316 318 321 321 320 320 319 318 316 317 317 317 316 317 317 318 317 313 318 319 319 318 319 323 323 330 335 336 337 337 338 334 332 330 332 333 332 334 336
315 313 314 317 316 318 318 321 321 318 319 318 317 317 318 316 314 313 312 312 313 314 313 314 314 314 316 317 323 325 327 333 334 336 336 340 334 333 335 333 332 330 330 332 333

GFSSW_925_thetae_108.txt.gz
Theta_e
313 313 313 313 313 313 313 312 312 312 312 312 312 312 313 311 312 315 316 317 319 318 324 325 326 327 333 333 343 343 350 348 347 349 342 337 338 338 338 344 349 350 350 349 352
313 313 313 313 313 313 313 312 312 313 313 313 313 313 312 311 315 318 317 316 319 321 325 328 324 325 327 335 342 345 344 343 339 342 341 337 335 334 340 340 347 349 351 351 352
312 313 313 313 313 313 312 312 312 313 313 313 313 313 311 313 318 312 322 322 317 323 323 323 324 330 334 337 340 338 343 338 334 332 329 331 328 331 335 334 346 349 353 352 352
311 312 313 313 313 313 312 312 313 314 314 315 315 312 312 317 319 322 320 321 317 323 322 320 321 325 328 333 332 333 331 330 326 325 322 323 327 323 327 325 341 346 351 352 352
311 311 312 313 313 313 314 315 316 317 318 318 315 311 317 317 314 317 319 319 323 324 321 322 326 329 338 334 328 327 325 323 321 319 319 321 321 322 322 321 322 341 351 352 352
312 311 312 313 313 314 317 319 319 319 316 313 311 313 317 313 316 324 319 321 322 321 323 329 335 335 332 325 322 323 321 318 318 319 319 320 320 320 323 337 346 347 351 351 351
315 314 313 314 314 317 320 319 318 313 312 311 313 318 319 312 319 325 319 319 320 323 329 330 334 329 323 320 319 319 320 318 319 319 320 320 321 322 321 319 322 347 349 351 350
319 317 316 316 314 320 319 316 314 314 313 314 315 320 312 317 324 323 322 322 328 326 326 326 329 325 320 318 317 318 316 318 319 320 321 320 321 321 317 317 325 346 347 350 350
322 319 319 318 315 320 318 314 314 315 314 315 322 320 324 325 325 322 324 325 327 328 327 326 323 320 318 318 315 316 320 320 320 321 322 322 321 320 326 326 327 342 348 347 349
324 322 321 320 317 318 317 318 318 320 320 322 323 321 323 323 323 320 321 325 320 317 317 318 313 319 313 315 317 320 321 320 320 321 320 320 319 317 332 338 340 339 343 348 347
324 324 322 321 317 318 318 317 310 313 315 316 320 323 321 320 320 319 319 322 317 316 317 316 315 317 317 315 317 320 321 320 320 320 323 319 317 324 326 333 339 342 341 340 340
324 324 324 322 316 320 318 313 315 315 313 313 313 315 317 318 318 319 319 319 318 317 316 315 317 317 316 316 316 317 319 319 319 319 320 318 318 326 326 331 334 339 340 340 341
324 324 324 322 315 314 318 317 316 313 312 314 314 316 317 316 318 319 318 318 319 317 317 317 319 318 319 320 320 319 320 319 319 317 318 318 320 325 329 328 329 332 336 338 339
324 324 325 322 315 314 317 317 317 314 316 321 321 320 316 316 319 318 318 319 319 319 315 317 318 322 321 322 319 322 319 318 320 319 322 316 320 318 329 328 329 328 333 336 338
324 324 324 319 317 313 316 316 318 314 325 323 320 319 316 318 319 320 318 319 319 319 318 319 322 321 321 322 321 322 321 321 321 319 319 319 318 319 328 329 329 329 330 335 336
325 325 323 319 316 315 317 318 316 321 325 322 318 317 318 318 318 319 320 318 318 319 318 318 320 321 321 321 321 320 321 318 315 315 320 320 320 320 328 331 331 330 330 335 335
324 324 322 318 315 317 318 314 320 324 321 320 319 318 317 318 318 318 320 317 318 319 318 320 322 320 320 320 319 318 317 320 323 322 324 317 320 321 329 333 332 331 332 333 334
324 323 320 320 319 319 316 317 326 324 321 319 318 318 322 319 320 318 317 318 319 317 318 321 322 321 321 321 321 320 317 319 326 326 326 320 324 330 328 330 328 328 331 331 332
323 322 320 319 320 318 311 318 321 321 319 320 318 319 320 320 320 320 319 321 320 319 320 319 321 320 322 320 319 322 320 316 321 319 323 322 323 324 330 331 329 328 333 334 331
318 316 318 319 319 314 311 316 319 318 320 319 321 320 321 320 322 321 321 321 322 319 318 319 322 320 321 320 320 319 319 325 320 328 330 325 325 325 327 327 330 328 330 335 331
314 313 319 319 315 309 314 314 317 318 319 319 320 321 321 322 321 322 323 322 322 321 318 318 318 321 320 320 322 320 320 320 318 320 326 326 325 321 329 333 331 329 329 332 334
309 317 319 319 315 306 314 316 317 320 317 317 320 320 320 321 322 323 323 323 320 321 322 317 314 320 322 319 318 319 322 318 321 325 321 321 323 325 336 336 336 335 335 336 334
308 309 319 316 319 315 315 318 319 320 319 317 318 318 318 319 320 321 322 321 322 321 321 318 317 320 321 319 319 322 321 318 316 316 323 327 327 322 332 333 334 338 339 336 334
309 317 315 310 309 316 318 318 319 319 319 318 317 316 318 318 317 320 319 320 319 325 326 319 314 319 323 322 319 321 320 318 318 321 324 324 326 323 326 333 331 330 336 334 333
308 315 314 320 318 317 317 317 320 320 319 316 319 316 318 318 317 317 317 315 317 320 317 315 320 317 317 317 319 319 319 319 323 324 331 330 325 329 330 332 331 332 334 332 332
310 316 313 315 314 317 315 319 320 319 319 319 317 317 316 316 315 315 315 314 316 316 316 311 317 315 318 318 317 319 320 321 321 331 330 334 336 331 331 331 331 330 330 330 331
312 311 312 316 315 318 317 320 320 318 318 318 317 316 317 316 313 314 311 311 313 315 311 312 313 313 316 315 319 317 320 324 331 334 334 336 332 332 333 331 330 330 329 330 329

GFSSW_925_thetae_114.txt.gz
Theta_e
315 314 314 313 313 313 312 312 312 312 312 312 312 312 312 312 311 318 321 319 318 320 329 334 329 335 344 347 348 351 341 337 338 339 337 334 333 333 333 334 337 343 348 353 352
318 318 317 316 316 314 313 313 313 313 313 313 313 313 313 311 321 320 319 316 317 321 331 329 328 331 339 337 343 346 336 335 338 336 334 333 333 332 332 332 331 338 353 353 353
323 322 320 319 317 314 316 317 317 316 315 314 314 315 313 313 326 322 321 317 316 322 327 327 328 330 332 339 342 342 336 336 334 331 330 331 331 330 331 331 330 329 347 355 354
324 323 322 321 316 317 319 319 318 318 318 318 317 317 312 325 327 323 319 320 317 326 327 326 327 330 332 337 339 340 335 334 331 329 329 329 329 328 328 328 328 329 332 354 356
324 324 324 322 317 318 318 317 317 317 317 317 317 315 319 325 322 324 321 319 328 324 326 326 328 329 332 334 334 333 331 329 328 328 328 327 328 327 328 333 329 334 337 351 354
324 324 324 323 317 318 317 314 313 313 313 313 313 312 325 321 321 327 326 328 329 325 325 325 327 331 335 333 330 328 328 327 327 327 327 327 327 328 334 336 333 342 344 348 351
324 324 324 324 316 318 317 314 314 313 312 312 312 320 322 322 326 326 324 325 325 325 325 326 334 337 332 330 327 327 327 327 327 327 328 327 328 331 337 338 337 344 348 350 351
324 324 324 324 317 318 317 314 316 314 314 314 316 326 322 319 327 325 323 325 325 327 327 331 333 332 329 328 328 327 328 329 328 327 327 328 330 333 338 341 342 344 349 352 354
324 324 324 324 318 319 317 318 317 315 316 320 328 328 326 322 326 326 324 327 328 329 328 327 330 329 328 329 328 328 328 327 327 327 327 328 330 334 338 342 346 346 348 351 353
323 324 324 324 319 317 317 318 316 318 321 324 326 330 326 326 324 324 326 326 324 326 328 328 329 330 328 328 329 328 327 327 328 327 327 330 331 334 338 338 341 344 347 350 350
322 323 323 323 319 315 319 321 326 326 321 323 325 327 326 323 321 323 325 326 323 324 325 325 326 328 327 327 327 327 328 328 328 327 328 330 332 334 336 335 337 338 341 344 348
318 320 322 322 317 317 320 322 320 320 325 321 320 321 321 321 323 323 324 325 324 326 325 325 328 327 325 326 327 328 328 330 329 327 328 330 332 334 334 335 335 335 337 338 340
312 317 320 321 317 320 321 318 317 317 326 324 322 322 323 322 324 324 324 325 325 325 325 327 327 326 327 327 329 329 329 329 329 328 329 329 330 334 334 333 334 334 335 336 338
308 313 318 321 323 319 322 317 319 318 330 325 324 324 322 323 324 324 324 325 325 325 324 326 326 326 328 327 328 330 326 327 327 329 330 329 329 333 333 334 335 335 335 335 337
306 309 317 321 322 321 319 319 318 318 333 325 324 322 323 324 324 323 323 324 325 325 325 327 326 326 327 327 326 328 326 327 327 328 329 329 329 335 334 335 336 335 336 338 337
306 309 317 323 320 319 319 320 319 330 332 325 324 323 323 324 323 323 324 324 325 325 325 325 325 326 327 326 326 326 328 329 329 328 330 331 329 328 330 334 333 333 335 338 337
306 310 319 319 324 320 321 323 330 331 327 325 325 325 325 325 325 324 325 325 326 327 327 327 327 326 326 328 327 328 328 330 330 330 330 332 328 328 333 334 333 334 335 338 339
306 313 320 320 319 320 322 327 331 329 327 325 325 326 326 326 327 324 325 327 326 326 327 329 330 327 326 327 328 328 328 330 330 329 329 331 331 335 334 334 334 334 334 335 339
309 318 322 321 320 318 325 327 328 328 326 326 325 327 328 327 327 326 327 327 327 327 329 329 329 326 326 327 327 330 331 327 330 332 332 330 330 329 331 333 334 334 336 338 340
316 318 323 321 321 320 325 323 327 325 325 325 328 327 329 328 328 328 328 327 327 326 328 330 330 327 326 326 327 329 328 331 331 333 332 328 330 331 333 330 331 334 337 340 341
318 320 322 321 318 325 324 325 325 324 324 326 327 327 328 328 328 329 329 327 327 327 328 329 330 330 328 330 329 329 330 330 328 330 331 329 329 330 329 330 333 334 336 339 338
320 318 321 321 325 324 324 325 316 325 324 323 325 326 327 327 329 329 329 329 327 327 329 329 329 331 330 328 326 328 329 329 330 331 330 331 330 329 328 332 332 336 337 338 338
320 320 321 322 321 323 325 325 325 326 325 325 325 325 325 327 329 328 328 326 326 327 329 329 329 331 331 329 328 328 328 329 329 329 330 329 327 328 327 328 333 336 338 337 336
322 321 326 325 325 326 325 325 326 324 325 325 325 324 325 326 327 328 328 325 325 326 324 323 328 330 328 329 329 329 327 327 328 329 327 325 325 324 326 334 336 337 336 335 336
321 323 324 328 327 327 326 325 325 325 325 324 325 324 325 327 327 327 326 324 323 326 325 326 328 327 327 325 324 324 325 324 325 326 326 325 324 326 333 338 338 335 335 336 337
320 324 323 323 327 328 322 326 325 325 326 326 326 324 324 326 326 327 325 325 325 325 325 325 326 325 326 323 323 323 323 323 322 323 323 323 326 334 336 335 336 335 336 336 336
316 317 320 319 321 323 324 326 325 325 325 324 325 325 324 324 323 324 323 324 324 325 325 325 323 325 324 322 322 323 323 323 323 324 327 333 335 334 336 337 336 336 336 335 334

GFSSW_925_thetae_117.txt.gz
Theta_e
323 323 322 321 318 314 314 314 313 312 312 313 312 313 312 312 311 316 323 323 322 321 337 336 331 333 338 344 342 342 340 338 337 338 337 336 336 336 335 335 335 340 345 352 350
324 324 323 322 317 315 316 317 316 315 314 314 313 313 313 312 322 324 322 319 318 320 334 333 331 332 337 336 337 340 341 335 335 334 333 333 333 334 334 334 333 335 349 352 349
324 324 324 323 317 317 318 318 318 318 318 316 314 314 314 313 329 328 321 319 316 320 330 330 329 330 333 333 337 339 337 335 334 332 330 330 331 331 331 332 331 330 341 353 350
324 324 324 323 317 318 317 317 316 317 317 318 318 316 313 327 331 334 320 319 316 328 330 328 329 329 330 334 336 337 335 332 331 329 329 329 330 329 330 331 331 332 331 353 353
324 324 324 324 317 317 317 314 313 313 314 316 317 317 320 330 327 328 321 319 320 332 328 328 328 329 331 333 334 333 332 330 329 329 329 329 329 329 332 333 333 338 337 351 354
324 324 324 323 320 318 317 314 314 313 313 315 316 313 330 327 327 331 327 325 328 327 328 327 327 329 333 334 332 331 329 328 329 329 329 329 329 331 333 333 335 341 342 348 353
323 323 324 323 322 318 317 314 315 313 312 312 312 322 329 325 329 328 329 330 329 327 328 326 328 333 335 332 331 328 329 329 329 329 330 330 330 332 334 336 337 342 347 348 349
321 322 323 322 322 318 317 317 316 314 314 315 316 327 326 325 329 327 327 327 327 328 328 328 334 336 333 330 330 330 330 331 330 329 329 329 334 333 334 339 341 343 349 351 353
315 318 321 321 322 316 317 318 318 317 316 320 329 334 326 323 328 327 326 329 328 329 328 328 329 331 330 330 332 330 332 331 330 329 329 329 332 333 335 338 343 346 347 349 354
309 313 318 320 321 316 318 317 321 317 324 327 329 333 328 328 325 327 326 328 329 330 329 329 330 330 330 331 332 332 330 330 330 330 329 330 332 334 333 335 338 343 346 350 352
306 308 314 319 320 317 320 324 329 330 325 328 329 331 328 327 324 325 327 328 326 328 329 329 329 331 331 330 329 329 329 330 330 329 329 330 331 332 333 332 334 338 341 344 346
305 306 310 317 320 320 322 325 323 323 329 326 325 326 326 325 326 326 326 328 327 328 327 327 329 330 328 328 328 329 330 332 331 330 329 331 332 334 333 332 333 334 338 339 340
305 306 308 316 321 323 323 321 322 323 329 326 325 327 326 325 327 325 327 327 327 328 327 330 331 328 328 329 330 331 331 332 331 331 330 331 332 335 335 334 334 334 335 338 339
305 306 307 316 324 323 325 322 324 323 332 327 326 326 325 326 326 327 326 327 327 329 327 329 329 328 329 330 329 332 330 329 329 330 332 332 333 337 336 334 334 335 335 337 337
306 306 308 319 323 326 322 323 323 324 338 328 326 325 326 326 327 326 326 327 328 327 327 330 328 328 329 330 328 330 329 329 329 331 331 331 332 336 335 334 336 336 336 337 337
305 306 309 325 326 324 324 324 324 331 334 328 326 325 326 326 326 326 326 326 328 327 327 328 328 328 329 328 328 328 330 331 332 332 333 333 332 333 334 334 337 334 335 336 337
305 307 314 321 328 324 325 327 333 332 331 328 327 327 327 327 327 326 326 327 327 328 330 329 328 328 328 329 329 330 331 333 334 334 335 335 333 330 334 334 333 334 334 335 336
305 309 321 322 324 324 326 330 333 332 331 328 328 328 328 328 328 328 328 328 328 329 329 331 332 330 329 329 331 330 331 332 336 332 331 334 332 338 333 334 334 333 334 334 337
306 318 321 325 324 324 328 330 330 331 329 328 328 328 328 329 329 329 328 329 330 329 330 333 332 330 328 328 329 332 333 331 329 330 331 332 333 333 333 332 333 333 332 336 339
316 319 320 324 324 325 326 326 329 329 327 328 329 329 330 330 329 329 330 329 329 328 329 331 333 331 329 328 329 331 331 330 333 335 335 331 331 333 336 334 332 332 332 333 338
320 321 325 323 323 325 326 326 326 327 327 327 328 329 329 331 330 331 331 330 329 329 329 330 333 332 331 331 331 333 332 332 331 330 333 334 332 330 331 331 332 332 332 336 337
322 321 323 321 326 325 325 325 318 326 326 326 327 328 329 329 330 330 330 331 329 329 330 331 331 334 333 332 330 330 329 330 333 333 333 333 330 332 331 330 329 331 335 336 337
322 321 319 320 322 324 325 325 324 325 326 327 326 326 328 329 330 330 330 330 328 328 331 331 331 332 332 332 331 331 331 330 331 331 332 332 331 329 328 328 329 335 338 338 337
323 323 326 324 323 327 327 327 326 325 327 326 327 326 327 328 329 331 329 329 327 327 331 327 328 330 331 332 330 332 331 330 329 331 331 330 329 328 327 327 333 338 337 337 337
323 324 326 329 326 326 325 326 326 326 325 326 327 326 327 328 328 329 329 329 326 327 325 326 330 330 329 327 327 327 326 325 326 328 329 327 326 326 327 336 337 336 337 336 337
320 325 326 322 326 329 322 325 325 324 327 327 326 327 326 328 329 329 328 328 328 328 327 328 330 329 327 325 325 325 324 324 324 325 325 324 325 328 336 336 336 336 335 336 336
317 317 318 318 323 323 323 326 326 326 326 326 327 328 327 327 327 328 327 327 328 329 329 329 330 330 327 324 324 325 325 324 324 324 324 326 331 335 337 336 336 335 335 336 336

GFSSW_925_thetae_120.txt.gz
Theta_e
324 324 323 323 317 315 316 316 315 314 313 313 313 312 312 312 312 314 321 323 323 321 330 334 338 334 334 339 340 337 342 342 337 338 336 335 335 336 336 335 335 342 346 351 346
324 324 324 323 317 316 317 318 318 318 317 315 314 313 313 313 319 323 324 323 322 319 331 335 332 331 334 337 337 338 340 337 334 333 332 332 332 333 333 334 334 345 352 348 346
324 324 324 323 320 317 317 317 316 316 317 318 316 313 314 312 329 328 323 322 319 318 326 332 331 330 331 333 334 338 339 336 334 332 330 330 330 331 331 332 331 331 354 349 347
323 323 323 323 322 317 317 315 313 313 316 317 318 316 315 324 335 332 322 321 317 320 327 332 330 330 330 332 335 336 336 333 332 330 329 329 329 329 331 332 331 334 350 350 349
322 321 322 322 322 318 317 314 314 313 313 315 317 317 317 328 333 328 320 319 317 325 332 330 329 329 330 332 334 333 333 331 330 329 329 329 329 330 332 332 334 337 338 353 350
316 318 319 321 321 318 318 315 315 312 312 315 317 317 325 335 331 327 326 321 322 327 331 328 328 329 329 332 334 333 330 329 329 330 329 330 329 332 333 333 335 341 342 351 352
310 312 314 318 320 319 316 317 316 313 312 313 314 321 334 329 329 329 326 326 328 329 329 328 327 330 334 334 333 330 329 330 330 330 330 330 331 334 334 337 339 342 345 346 352
307 308 310 314 319 318 315 317 317 314 314 314 314 325 332 327 329 329 330 330 330 328 328 329 328 333 336 335 330 330 331 331 330 330 330 330 335 334 335 340 342 343 348 350 350
305 306 308 311 318 317 316 317 318 318 316 319 326 333 332 327 329 327 328 329 329 329 329 329 331 333 332 330 331 332 332 333 331 330 329 330 335 334 336 338 343 345 344 350 353
305 306 307 309 317 318 318 322 325 317 325 326 329 334 330 326 328 328 327 329 330 331 330 328 329 331 331 331 333 333 331 331 330 331 330 330 332 334 332 335 339 343 348 350 351
306 306 307 308 316 319 320 326 329 332 330 334 331 334 329 328 326 328 328 329 329 329 332 331 332 332 333 331 331 330 330 330 331 331 330 330 332 333 332 332 336 339 344 346 347
306 307 307 308 315 321 321 327 325 326 327 329 328 330 329 328 326 327 328 329 329 328 329 330 329 331 331 329 329 329 330 331 332 331 331 330 332 333 333 332 333 336 338 340 343
305 306 307 309 317 325 327 324 324 326 329 332 327 327 329 327 327 327 327 329 328 329 330 329 331 330 329 330 330 330 331 332 332 332 332 331 332 332 335 334 334 334 338 339 341
303 305 307 308 323 327 328 324 325 325 331 330 327 328 328 327 327 328 327 329 329 329 330 329 330 330 330 331 330 333 332 331 331 330 332 332 333 338 337 335 334 335 336 337 337
303 304 306 310 322 329 326 326 324 326 339 329 327 328 328 327 329 328 327 328 328 329 328 330 330 329 329 331 330 330 330 330 330 330 331 332 331 335 339 336 336 337 337 337 336
303 304 305 319 325 328 326 327 327 331 333 329 328 327 327 327 328 328 327 328 328 329 329 329 330 329 329 330 329 329 329 331 332 332 334 335 332 339 338 336 337 337 336 336 337
303 305 305 313 327 326 325 329 333 333 334 331 328 327 327 327 327 327 327 327 327 329 330 330 329 329 328 329 329 330 332 334 334 335 335 335 333 338 336 336 337 336 335 334 334
304 306 310 317 323 325 326 331 334 334 334 330 329 328 327 328 328 328 328 328 329 329 330 332 332 330 330 329 331 332 331 334 337 335 333 335 334 336 335 336 335 334 334 333 336
305 316 321 325 326 324 328 331 333 332 332 330 329 328 329 329 329 330 330 329 329 330 331 330 334 331 331 330 330 331 334 332 334 331 330 330 336 337 335 335 335 334 333 333 333
312 318 321 322 323 324 327 327 328 329 330 329 329 330 329 330 330 330 330 330 330 330 330 331 333 332 331 329 330 330 331 332 331 338 336 332 332 338 336 335 335 333 333 332 336
318 327 324 324 323 325 326 326 327 327 328 328 327 328 330 330 331 331 330 331 330 330 330 330 331 332 332 332 332 331 334 333 333 333 333 333 334 337 335 334 333 332 332 334 335
320 324 325 324 323 324 324 325 320 328 327 326 326 328 330 330 330 331 331 333 331 330 331 331 331 332 332 332 333 332 333 332 333 334 334 334 334 332 331 330 329 329 339 340 338
321 322 321 322 321 324 325 325 326 325 325 326 325 326 327 329 332 331 331 331 330 330 332 332 332 333 333 330 331 332 333 333 331 332 334 334 332 331 331 329 329 338 339 339 337
321 325 323 322 322 322 327 329 327 325 325 328 327 327 327 328 329 330 331 330 329 329 334 329 332 332 331 331 330 332 333 332 331 332 331 329 331 332 330 330 332 336 337 338 337
326 323 326 331 330 327 324 324 327 327 327 325 326 326 327 329 329 329 330 330 329 332 327 327 330 328 328 329 329 328 327 327 328 327 328 327 328 330 335 337 336 337 339 337 336
324 326 324 327 323 330 328 327 327 325 326 328 327 327 327 327 329 330 330 330 330 329 328 328 333 329 330 329 327 326 325 325 325 324 324 325 326 328 337 337 337 336 336 338 338
318 318 321 319 320 322 323 323 325 325 326 327 327 329 327 330 330 329 329 330 330 330 331 331 331 332 333 330 326 325 325 325 326 325 325 325 326 336 337 335 334 334 333 333 338

GFSSW_925_thetae_123.txt.gz
Theta_e
323 323 323 322 321 316 317 317 318 318 317 314 313 313 312 312 312 313 319 317 323 321 321 334 334 337 337 331 334 336 336 340 331 332 330 327 329 331 333 340 344 349 348 346 348
322 321 321 321 320 317 317 317 317 317 317 318 315 313 313 313 314 320 317 320 322 322 320 332 335 332 328 331 333 334 335 335 330 328 327 328 329 330 330 352 354 352 347 346 349
316 317 317 319 319 319 317 314 313 313 314 316 317 314 314 313 328 326 324 323 322 320 320 326 329 330 327 326 329 331 335 333 330 328 327 327 326 328 330 331 352 350 347 345 347
310 311 312 316 318 319 318 315 314 313 312 315 317 317 315 321 338 328 324 323 321 318 321 326 330 328 326 326 328 334 332 332 328 327 327 327 327 330 330 329 348 348 346 345 346
307 308 309 312 315 319 317 317 314 312 312 313 316 317 316 325 329 326 320 320 318 319 324 332 332 327 326 327 328 332 330 327 326 327 327 327 327 331 331 332 346 348 347 347 346
305 306 307 308 312 318 315 316 315 312 312 315 316 316 324 332 330 323 321 319 319 324 329 330 328 326 326 327 329 331 328 326 326 328 329 328 327 331 332 334 341 350 348 347 347
305 306 306 308 310 317 316 317 316 313 312 313 317 323 331 330 331 327 324 322 323 322 329 330 328 325 325 330 334 328 327 326 326 327 329 328 332 333 333 339 341 345 346 349 347
306 306 307 308 309 314 317 317 317 315 314 313 313 323 332 330 329 328 326 326 326 328 329 328 329 325 327 333 333 327 326 326 327 327 327 327 334 333 339 341 342 342 349 353 351
306 307 307 307 308 313 318 319 318 317 316 318 323 329 335 327 329 329 330 330 329 328 328 328 328 330 331 330 328 326 327 328 328 329 328 328 332 333 339 343 343 346 350 352 352
305 306 307 308 309 311 319 322 322 321 325 325 328 330 333 326 328 328 327 328 328 328 328 328 324 324 325 326 328 328 328 329 329 327 328 327 331 330 337 342 344 349 350 350 351
304 305 307 308 310 310 319 325 325 327 327 330 331 334 334 330 328 328 328 327 328 329 328 328 327 327 327 328 328 327 327 328 330 328 328 328 331 330 332 339 344 346 345 346 348
303 304 306 309 310 315 322 325 324 324 324 326 329 330 329 327 325 326 328 327 328 325 327 328 327 328 329 329 328 327 327 328 330 329 328 328 328 330 329 336 341 344 344 344 345
303 303 305 308 311 325 326 325 325 326 325 328 328 328 328 326 326 325 326 327 328 327 327 326 328 330 330 328 329 328 328 330 330 329 329 329 329 332 332 331 335 338 339 341 343
302 303 304 307 322 322 327 326 326 325 327 332 327 325 326 326 325 327 326 327 327 327 327 327 329 329 328 329 330 328 328 329 330 329 327 329 327 333 331 332 334 336 337 340 342
302 303 304 304 312 325 328 326 327 325 337 330 326 328 325 325 326 326 327 325 326 326 328 327 329 328 329 330 329 330 327 327 328 326 327 327 327 336 332 332 335 335 335 336 337
302 303 304 310 314 321 327 327 327 330 336 328 326 325 324 325 326 326 326 325 326 326 327 327 328 328 328 329 329 328 328 328 327 326 328 329 330 336 335 333 335 335 335 337 339
303 305 305 306 316 319 325 326 332 333 331 329 325 325 324 324 325 326 326 325 324 327 327 327 327 326 328 328 328 327 328 329 331 332 333 331 335 334 337 335 336 335 335 334 340
304 306 310 311 316 321 324 328 336 335 332 330 327 325 324 325 325 326 326 325 325 325 325 327 331 327 329 329 330 330 329 329 337 335 331 332 332 339 335 334 334 333 332 332 337
305 308 315 317 325 324 326 332 335 334 329 330 329 328 325 326 326 326 325 326 326 325 326 328 332 329 329 329 328 330 328 329 329 331 329 328 337 335 334 333 332 332 331 332 336
309 315 321 317 322 325 326 327 327 326 326 330 330 329 328 328 327 328 330 329 329 329 327 330 331 330 330 328 329 328 328 328 327 331 334 332 339 337 335 335 334 331 330 334 333
314 324 325 322 323 324 326 326 325 325 328 328 329 328 327 329 329 329 329 329 328 329 327 328 329 329 330 330 330 330 328 330 327 328 332 332 337 337 333 331 330 331 337 336 335
315 326 324 325 325 324 324 324 323 325 327 327 325 326 326 329 331 331 331 332 329 329 329 330 328 333 331 330 330 332 330 330 331 333 328 332 330 331 330 328 331 340 340 337 335
314 320 322 325 325 321 323 324 324 326 326 325 325 325 324 327 330 332 332 330 329 330 330 330 331 331 330 328 328 332 332 332 331 330 331 332 330 331 329 329 339 339 339 336 335
315 328 324 322 321 321 321 324 327 325 324 324 327 327 328 328 327 331 331 330 327 327 332 329 329 333 330 330 327 329 330 332 329 329 329 331 331 325 335 336 337 339 338 336 335
321 329 324 329 328 326 330 325 327 326 325 326 325 325 326 329 330 329 329 329 327 334 327 326 331 331 327 326 325 327 327 325 324 326 328 325 326 327 339 338 337 336 337 337 335
322 322 321 323 324 324 325 331 328 327 327 328 327 326 327 329 330 332 330 331 330 329 328 325 329 331 330 328 328 329 327 326 323 323 323 322 323 338 335 333 334 333 333 334 338
315 315 318 323 321 320 323 327 324 324 325 325 327 328 331 329 328 327 325 326 330 329 329 330 330 335 333 332 329 328 327 325 324 324 325 330 339 335 335 335 337 339 339 337 336

GFSSW_925_thetae_126.txt.gz
Theta_e
314 314 313 315 317 319 316 316 316 317 317 317 315 314 313 312 312 312 313 315 318 318 320 329 333 332 333 334 332 333 335 339 339 341 332 324 327 337 339 346 347 348 350 350 350
309 309 309 310 313 318 317 316 313 313 314 316 317 315 313 313 313 317 316 316 318 322 321 325 333 332 331 328 329 331 332 337 329 326 325 325 325 341 342 344 349 348 349 349 353
305 306 306 306 309 318 317 316 314 314 312 313 316 316 313 314 328 326 326 317 322 321 321 322 324 326 327 324 324 327 332 331 327 325 326 325 327 335 352 353 349 350 350 349 354
305 305 306 306 307 315 316 315 315 314 312 312 315 317 314 319 335 329 324 321 323 320 317 322 327 329 326 325 325 327 328 329 326 325 326 325 326 328 341 350 347 347 348 349 352
305 306 307 307 307 311 316 315 316 314 311 313 315 316 316 324 322 328 323 321 321 318 321 325 332 330 326 325 325 328 328 326 324 325 325 327 329 330 333 347 346 346 348 349 348
306 306 307 306 307 308 312 316 316 313 312 315 316 316 324 330 332 327 320 320 318 320 323 325 330 326 324 324 327 329 326 326 325 327 327 327 330 329 344 347 347 346 347 348 347
305 306 306 307 307 308 311 317 316 314 313 314 316 325 329 324 330 323 321 319 318 321 327 328 330 325 323 323 330 331 326 323 325 325 326 328 331 332 344 347 348 347 346 346 346
305 305 306 306 307 308 310 318 317 316 315 313 314 322 327 333 330 327 324 322 322 319 327 328 329 322 324 326 330 330 323 324 325 324 326 328 332 339 338 343 347 347 347 347 348
304 304 305 306 307 308 310 319 319 317 316 317 325 327 331 329 328 328 329 326 325 323 324 327 326 327 327 328 324 324 327 324 326 324 325 329 332 340 339 349 351 351 351 353 353
303 304 305 306 307 308 312 323 322 321 324 324 326 328 329 326 327 329 328 329 326 325 325 326 320 322 320 322 326 326 324 326 326 326 325 329 330 337 341 347 349 350 350 351 353
303 303 305 307 308 309 317 323 317 323 325 321 327 329 334 332 327 328 327 326 325 327 326 326 324 324 324 323 325 325 326 327 328 327 325 328 331 339 341 348 349 348 348 349 350
302 303 304 307 309 314 324 322 321 322 321 323 327 328 328 328 323 325 327 325 327 327 324 323 326 326 326 326 326 326 325 325 327 327 326 326 329 333 343 347 346 346 347 347 346
302 303 304 307 310 325 320 326 324 324 321 323 323 324 324 323 323 322 324 324 326 326 325 322 324 327 328 327 326 326 327 327 329 327 325 327 326 329 333 340 343 344 344 344 346
303 303 304 306 317 311 324 327 327 324 322 325 326 326 325 324 324 324 325 326 326 326 325 323 324 327 327 327 324 326 326 326 326 324 326 325 324 329 333 341 343 341 342 342 343
303 303 304 304 308 316 324 325 325 323 333 332 325 326 321 324 324 323 326 324 325 324 325 324 327 327 327 329 327 328 326 326 326 324 323 324 324 323 329 337 340 340 341 340 340
303 304 304 307 307 313 317 322 324 324 329 328 323 323 323 323 324 323 324 323 324 324 324 324 325 326 326 327 327 326 326 324 324 321 325 325 325 331 331 336 336 337 340 341 340
304 306 305 306 309 313 316 320 326 329 329 325 323 321 321 322 323 323 323 323 321 324 323 324 326 325 326 326 325 322 322 325 329 330 329 325 329 329 330 336 336 336 338 338 338
305 306 308 309 310 313 321 322 332 331 332 328 322 320 321 321 321 323 322 322 321 321 321 323 325 325 327 325 327 328 322 325 333 331 330 325 332 336 333 333 333 334 334 338 337
305 307 312 312 314 316 317 325 328 330 326 326 322 321 321 321 322 323 321 321 322 320 322 323 329 327 327 327 325 327 325 324 324 324 325 327 334 333 333 333 331 330 338 337 334
307 313 317 315 316 321 317 322 324 324 323 325 328 325 325 325 323 322 321 322 324 322 321 325 328 327 328 326 327 324 324 325 321 328 329 328 334 334 332 332 330 331 335 332 332
313 312 321 318 319 314 318 318 322 322 322 326 325 325 324 326 327 326 323 326 325 325 323 322 322 325 327 327 326 327 325 324 322 321 327 330 333 331 331 330 328 328 332 332 331
307 314 323 320 316 313 317 321 320 321 320 323 323 324 323 323 326 328 330 329 327 324 326 326 321 326 327 327 327 325 324 323 326 328 325 326 327 329 327 326 335 335 334 332 331
303 308 317 321 319 316 314 318 320 320 321 322 323 324 322 322 324 329 330 327 328 327 329 326 325 326 326 323 322 326 328 327 323 323 327 328 327 326 325 335 337 337 335 333 331
306 318 316 312 312 317 317 317 318 323 322 322 324 324 323 324 323 326 328 328 326 326 332 327 323 324 326 326 324 325 325 325 324 326 326 326 326 325 335 337 336 335 333 332 335
309 321 317 318 318 318 320 326 326 325 322 322 322 322 322 323 323 325 326 326 325 334 324 321 324 327 325 324 324 325 327 326 324 323 326 322 323 328 335 334 334 334 333 335 334
313 313 310 315 317 315 316 323 327 322 322 322 323 322 323 326 327 328 325 325 326 326 323 318 322 325 327 326 326 328 327 326 323 323 320 319 320 334 333 330 330 331 330 335 334
309 311 309 314 315 315 315 318 320 319 324 325 326 325 326 326 325 324 322 321 324 324 322 321 324 326 326 328 326 328 326 325 324 323 321 321 328 332 331 336 336 336 335 334 333

GFSSW_925_thetae_129.txt.gz
Theta_e
305 305 306 306 308 316 317 316 314 313 314 316 317 315 313 312 312 312 311 315 316 319 320 333 327 329 330 332 332 338 338 339 342 340 337 325 339 339 342 350 348 348 351 349 349
306 306 306 306 306 312 317 315 315 313 312 312 316 317 313 313 314 315 316 315 320 320 319 323 331 330 330 330 328 328 331 335 334 333 330 324 340 340 348 349 350 354 350 350 350
306 306 306 306 306 308 313 314 315 314 312 311 313 316 313 314 327 325 326 315 317 321 321 321 324 324 326 325 324 328 328 329 331 324 324 326 340 345 346 348 348 355 353 350 352
305 306 305 306 306 306 308 316 315 315 312 311 312 316 314 319 331 332 325 316 321 320 319 320 324 327 326 325 324 325 325 327 325 324 323 327 333 349 348 348 346 351 350 351 353
304 305 305 305 305 306 307 316 316 314 311 313 314 316 316 320 317 329 319 321 321 319 318 322 330 330 328 324 323 324 328 324 323 323 324 324 331 341 340 346 347 350 352 352 352
303 304 304 304 305 306 307 316 316 313 312 315 315 315 324 329 332 328 320 322 321 319 320 324 329 327 325 323 324 326 329 325 323 325 326 327 329 341 348 346 349 351 353 353 352
303 303 304 304 305 306 307 315 316 314 313 316 315 323 327 323 331 323 321 321 320 318 322 325 328 328 323 322 325 330 328 323 324 325 326 327 336 344 347 347 349 350 350 352 352
302 303 303 304 305 307 308 316 318 315 315 313 315 322 322 332 328 321 319 319 318 318 324 327 327 325 321 324 326 327 323 324 325 323 326 327 339 342 346 346 348 349 350 349 350
302 303 303 304 305 306 309 321 319 316 316 317 327 325 330 330 327 326 323 324 321 320 320 322 324 324 325 326 323 321 326 324 325 322 326 331 339 339 343 346 346 346 347 348 347
302 303 304 305 305 307 314 322 319 320 324 324 325 327 327 327 329 327 327 327 325 324 325 325 318 320 318 321 326 325 324 322 325 324 326 333 337 339 347 347 347 349 349 348 348
303 303 304 305 306 308 319 322 314 319 325 316 320 326 328 330 327 327 327 325 325 325 325 324 323 323 322 321 324 326 325 324 326 324 327 332 340 340 348 350 353 351 352 352 352
303 304 305 306 307 315 321 320 320 320 320 320 325 325 327 327 324 325 326 324 324 325 323 321 324 324 325 325 325 324 323 325 326 326 326 330 338 339 349 351 351 350 350 350 351
303 304 305 306 308 321 313 323 322 322 319 321 322 324 324 325 324 323 323 323 326 325 323 321 322 324 327 327 325 324 325 326 327 324 323 324 327 339 339 344 344 346 346 348 351
303 304 305 306 314 308 320 322 321 322 320 323 324 323 323 321 323 322 324 324 325 325 323 323 323 325 326 327 323 325 325 325 325 323 326 322 323 325 335 344 344 343 344 344 346
303 304 305 304 306 310 319 318 324 321 331 329 325 325 320 323 324 323 324 324 325 324 322 323 324 326 327 327 324 326 324 325 325 321 322 323 322 321 339 344 344 341 343 343 343
304 304 304 307 307 309 312 322 323 323 324 330 323 322 323 323 323 322 323 323 323 324 322 322 323 324 326 326 325 324 324 322 321 320 326 325 323 325 343 346 343 341 342 341 339
304 305 304 306 306 314 315 320 323 329 326 327 322 321 321 322 323 323 322 323 321 322 322 323 325 324 325 325 324 321 321 324 327 327 329 324 326 325 332 340 342 341 341 340 339
305 306 307 308 309 309 320 322 331 327 328 325 320 319 322 320 322 322 321 320 320 320 319 321 324 325 325 323 325 325 322 324 330 328 327 326 336 333 330 332 336 339 340 338 337
305 307 310 311 310 311 317 325 325 326 325 323 321 321 321 321 322 322 319 319 320 318 320 322 327 326 326 325 325 326 324 322 322 320 322 323 332 331 332 334 336 336 337 338 336
305 311 312 315 312 317 317 321 322 323 322 322 325 321 321 323 321 320 320 320 321 319 319 321 326 326 326 325 324 324 320 324 319 327 327 325 330 333 333 333 330 334 337 334 331
308 308 316 317 321 313 317 316 320 320 320 321 324 324 322 324 325 322 321 322 321 322 320 320 322 325 326 326 325 325 324 320 319 319 325 329 330 327 329 329 330 335 332 331 331
300 304 317 317 314 309 315 317 318 320 318 318 320 322 322 321 324 325 326 324 326 321 322 321 318 324 324 325 323 325 324 321 325 326 322 322 326 323 327 327 327 331 332 330 330
300 303 317 316 316 314 314 317 318 317 317 321 322 323 321 320 322 326 328 326 327 326 324 322 321 324 325 322 322 324 326 323 319 320 324 326 326 324 325 332 332 333 332 330 332
304 317 314 311 311 315 320 320 318 319 320 320 321 322 322 323 321 323 325 326 324 326 335 326 320 321 324 323 322 324 325 323 322 325 325 324 326 325 335 336 335 334 331 331 334
308 318 313 318 317 317 317 321 326 322 321 318 321 321 321 322 323 326 325 324 324 329 321 319 323 326 324 324 323 323 325 323 323 320 322 320 323 322 332 335 334 332 331 334 334
311 310 308 311 313 314 313 316 319 319 318 319 323 325 321 324 322 326 325 324 325 324 321 316 321 323 324 325 326 327 326 325 323 321 320 318 319 316 332 331 332 332 334 335 333
304 306 307 311 312 314 315 315 319 316 322 323 323 323 324 325 323 323 322 320 321 322 320 319 321 319 323 326 326 327 325 324 324 322 322 322 320 331 332 330 330 328 331 333 332